[[{"header":{"parameterUnit":"m.s-1","parameterCategory":1,"la1":30.6,"la2":29.2853,"lo1":-89.7004,"lo2":-87.6739,"dy":0.0162,"dx":0.0183,"nx":112,"ny":82,"refTime":"2024-09-03T00:00:00:Z","depth":0,"parameterNumber":2,"parameterNumberName":"U-component_of_WINDS"},"data":[0.0,0.0,0.0,0.0,0.0,0.0,0.0,0.0,0.0,0.0,0.0,0.0,0.0,0.0,0.0,0.0,0.0,0.0,0.0,0.0,0.0,0.0,0.0,0.0,0.0,0.0,0.0,0.0,0.0,0.0,0.0,0.0,0.0,0.0,0.0,0.0,0.0,0.0,0.0,0.0,0.0,0.0,0.0,0.0,0.0,0.0,0.0,0.0,0.0,0.0,0.0,0.0,0.0,0.0,0.0,0.0,0.0,0.0,0.0,0.0,0.0,0.0,0.0,0.0,0.0,0.0,0.0,0.0,0.0,0.0,0.0,0.0,0.0,0.0,0.0,0.0,0.0,0.0,0.0,0.0,0.0,0.0,0.0,0.0,0.0,0.0,0.0,0.0,0.0,0.0,0.8601,0.9462,1.0256,1.0717,1.0717,1.0561,0.9971,0.8818,0.0,0.0,0.0,0.0,0.0,0.0,0.0,0.0,0.0,0.0,0.0,0.0,0.0,0.0,0.0,0.0,0.0,0.0,0.0,0.0,0.0,0.0,0.0,0.0,0.0,0.0,0.0,0.0,0.0,0.0,0.0,0.0,0.0,0.0,0.0,0.0,0.0,0.0,0.0,0.0,0.0,0.0,0.0,0.0,0.0,0.0,0.0,0.0,0.0,0.0,0.0,0.0,0.0,0.0,0.0,0.0,0.0,0.0,0.0,0.0,0.0,0.0,0.0,0.0,0.0,0.0,0.0,0.0,0.0,0.0,0.0,0.0,0.0,0.0,0.0,0.0,0.0,0.0,0.0,0.0,0.0,0.0,0.0,0.0,0.0,0.0,0.0,0.0,0.0,0.0,0.0,0.0,0.0,0.0,0.0,0.0,0.0,0.0,0.0,0.0,0.0,0.0,0.0,0.0,0.8798,1.0175,1.0561,1.0717,1.0717,1.0473,0.991,0.8905,0.0,0.0,0.0,0.0,0.0,0.0,0.0,0.0,0.0,0.0,0.0,0.0,0.0,0.0,0.0,0.0,0.0,0.0,0.0,0.0,0.0,0.0,0.0,0.0,0.0,0.0,0.0,0.0,0.0,0.0,0.0,0.0,0.0,0.0,0.0,0.0,0.0,0.0,0.0,0.0,0.0,0.0,0.0,0.0,0.0,0.0,0.0,0.0,0.0,0.0,0.0,0.0,0.0,0.0,0.0,0.0,0.0,0.0,0.0,0.0,0.0,0.0,0.0,0.0,0.0,0.0,0.0,0.0,0.0,0.0,0.0,0.0,0.0,0.0,0.0,0.0,0.0,0.0,0.0,0.0,0.0,0.0,0.0,0.0,0.0,0.0,0.0,0.0,0.0,0.0,0.0,0.0,0.0,0.0,0.0,0.0,0.0,0.0,0.0,0.0,0.0,0.0,0.0,0.871,0.932,1.0493,1.0677,1.0717,1.0717,1.0446,0.9863,0.8879,0.8031,0.0,0.0,0.0,0.0,0.0,0.0,0.0,0.0,0.0,0.0,0.0,0.0,0.0,0.0,0.0,0.0,0.0,0.0,0.0,0.0,0.0,0.0,0.0,0.0,0.0,0.0,0.0,0.0,0.0,0.0,0.0,0.0,0.0,0.0,0.0,0.0,0.0,0.0,0.0,0.0,0.0,0.0,0.0,0.0,0.0,0.0,0.0,0.0,0.0,0.0,0.0,0.0,0.0,0.0,0.0,0.0,0.0,0.0,0.0,0.0,0.0,0.0,0.0,0.0,0.0,0.0,0.0,0.0,0.0,0.0,0.0,0.0,0.0,0.0,0.0,0.0,0.0,0.0,0.0,0.0,0.0,0.0,0.0,0.0,0.0,0.0,0.0,0.0,0.0,0.0,0.0,0.0,0.0,0.0,0.0,0.0,0.0,0.0,0.0,0.0,0.0,0.0,0.9537,0.9883,1.0636,1.0717,1.0717,1.0717,1.0317,0.968,0.8771,0.7733,0.0,0.0,0.0,0.0,0.0,0.0,0.0,0.0,0.0,0.0,0.0,0.0,0.0,0.0,0.0,0.0,0.0,0.0,0.0,0.0,0.0,0.0,0.0,0.0,0.0,0.0,0.0,0.0,0.0,0.0,0.0,0.0,0.0,0.0,0.0,0.0,0.0,0.0,0.0,0.0,0.0,0.0,0.0,0.0,0.0,0.0,0.0,0.0,0.0,0.0,0.0,0.0,0.0,0.0,0.0,0.0,0.0,0.0,0.0,0.0,0.0,0.0,0.0,0.0,0.0,0.0,0.0,0.0,0.0,0.0,0.0,0.0,0.0,0.0,0.0,0.0,0.0,0.0,0.0,0.0,0.0,0.0,0.0,0.0,0.0,0.0,0.0,0.0,0.0,0.0,0.0,0.0,0.0,0.0,0.0,0.0,0.0,0.0,0.0,0.0,0.0,0.0,0.9707,1.0344,1.0683,1.0717,1.0717,1.0717,0.9937,0.9232,0.8743,0.7339,0.0,0.0,0.0,0.0,0.0,0.0,0.0,0.0,0.0,0.0,0.0,0.0,0.0,0.0,0.0,0.0,0.0,0.0,0.0,0.0,0.0,0.0,0.0,0.0,0.0,0.0,0.0,0.0,0.0,0.0,0.0,0.0,0.0,0.0,0.0,0.0,0.0,0.0,0.0,0.0,0.0,0.0,0.0,0.0,0.0,0.0,0.0,0.0,0.0,0.0,0.0,0.0,0.0,0.0,0.0,0.0,0.0,0.0,0.0,0.0,0.0,0.0,0.0,0.0,0.0,0.0,0.0,0.0,0.0,0.0,0.0,0.0,0.0,0.0,0.0,0.0,0.0,0.0,0.0,0.0,0.0,0.0,0.0,0.0,0.0,0.0,0.0,0.0,0.0,0.0,0.0,0.0,0.0,0.0,0.0,0.0,0.0,0.0,0.0,0.0,0.0,0.0,0.9476,1.008,1.0656,1.0717,1.0717,1.0717,1.0154,0.9408,0.8492,0.0,0.0,0.0,0.0,0.0,0.0,0.0,0.0,0.0,0.0,0.0,0.0,0.0,0.0,0.0,0.0,0.0,0.0,0.0,0.0,0.0,0.0,0.0,0.0,0.0,0.0,0.0,0.0,0.0,0.0,0.0,0.0,0.0,0.0,0.0,0.0,0.0,0.0,0.0,0.0,0.0,0.0,0.0,0.0,0.0,0.0,0.0,0.0,0.0,0.0,0.0,0.0,0.0,0.0,0.0,0.0,0.0,0.0,0.0,0.0,0.0,0.0,0.0,0.0,0.0,0.0,0.0,0.0,0.0,0.0,0.0,0.0,0.0,0.0,0.0,0.0,0.0,0.0,0.0,0.0,0.0,0.0,0.0,0.0,0.0,0.0,0.0,0.0,0.0,0.0,0.0,0.0,0.0,0.0,0.0,0.0,0.0,0.0,0.0,0.0,0.0,0.0,0.8737,0.9496,1.01,1.0663,1.0717,1.0717,1.0717,1.0134,0.9334,0.8388,0.0,0.0,0.0,0.0,0.0,0.0,0.0,0.0,0.0,0.0,0.0,0.0,0.0,0.0,0.0,0.0,0.0,0.0,0.0,0.0,0.0,0.0,0.0,0.0,0.0,0.0,0.0,0.0,0.0,0.0,0.0,0.0,0.0,0.0,0.0,0.0,0.0,0.0,0.0,0.0,0.0,0.0,0.0,0.0,0.0,0.0,0.0,0.0,0.0,0.0,0.0,0.0,0.0,0.0,0.0,0.0,0.0,0.0,0.0,0.0,0.0,0.0,0.0,0.0,0.0,0.0,0.0,0.0,0.0,0.0,0.0,0.0,0.0,0.0,0.0,0.0,0.0,0.0,0.0,0.0,0.0,0.0,0.0,0.0,0.0,0.0,0.0,0.0,0.0,0.0,0.0,0.0,0.0,0.0,0.0,0.0,0.0,0.0,0.0,0.0,0.0,0.0,0.8784,0.9849,1.0548,1.0704,1.0717,1.0717,1.0717,0.9761,0.8961,0.0,0.0,0.0,0.0,0.0,0.0,0.0,0.0,0.0,0.0,0.0,0.0,0.0,0.0,0.0,0.0,0.0,0.0,0.0,0.0,0.0,0.0,0.0,0.0,0.0,0.0,0.0,0.0,0.0,0.0,0.0,0.0,0.0,0.0,0.0,0.0,0.0,0.0,0.0,0.0,0.0,0.0,0.0,0.0,0.0,0.0,0.0,0.0,0.0,0.0,0.0,0.0,0.0,0.0,0.0,0.0,0.0,0.0,0.0,0.0,0.0,0.0,0.0,0.0,0.0,0.0,0.0,0.0,0.0,0.0,0.0,0.0,0.0,0.0,0.0,0.0,0.0,0.0,0.0,0.0,0.0,0.0,0.0,0.0,0.0,0.0,0.0,0.0,0.0,0.0,0.0,0.0,0.0,0.0,0.0,0.0,0.0,0.0,0.0,0.0,0.0,0.0,0.0,0.8736,0.9605,1.0293,1.0638,1.0717,1.0717,1.0717,1.0046,0.9239,0.8381,0.0,0.0,0.0,0.0,0.0,0.0,0.0,0.0,0.0,0.0,0.0,0.0,0.0,0.0,0.0,0.0,0.0,0.0,0.0,0.0,0.0,0.0,0.0,0.0,0.0,0.0,0.0,0.0,0.0,0.0,0.0,0.0,0.0,0.0,0.0,0.0,0.0,0.0,0.0,0.0,0.0,0.0,0.0,0.0,0.0,0.0,0.0,0.0,0.0,0.0,0.0,0.0,0.0,0.0,0.0,0.0,0.0,0.0,0.0,0.0,0.0,0.0,0.0,0.0,0.0,0.0,0.0,0.0,0.0,0.0,0.0,0.0,0.0,0.0,0.0,0.0,0.0,0.0,0.0,0.0,0.0,0.0,0.0,0.0,0.0,0.0,0.0,0.0,0.0,0.0,0.0,0.0,0.0,0.0,0.0,0.0,0.0,0.0,0.0,0.0,0.0,0.0,0.8407,0.9351,0.9965,1.0246,1.0326,1.0326,1.0326,0.9906,0.9261,0.8295,0.0,0.0,0.0,0.0,0.0,0.0,0.0,0.0,0.0,0.0,0.0,0.0,0.0,0.0,0.0,0.0,0.0,0.0,0.0,0.0,0.0,0.0,0.0,0.0,0.0,0.0,0.0,0.0,0.0,0.0,0.0,0.0,0.0,0.0,0.0,0.0,0.0,0.0,0.0,0.0,0.0,0.0,0.0,0.0,0.0,0.0,0.0,0.0,0.0,0.0,0.0,0.0,0.0,0.0,0.0,0.0,0.0,0.0,0.0,0.0,0.0,0.0,0.0,0.0,0.0,0.0,0.0,0.0,0.0,0.0,0.0,0.0,0.0,0.0,0.0,0.0,0.0,0.0,0.0,0.0,0.0,0.0,0.0,0.0,0.0,0.0,0.0,0.0,0.0,0.0,0.0,0.0,0.0,0.0,0.0,0.0,0.0,0.0,0.0,0.0,0.0,0.0,0.7938,0.9001,0.9661,0.9728,0.9728,0.9728,0.9728,0.9557,0.9093,0.8266,0.0,0.0,0.0,0.0,0.0,0.0,0.0,0.0,0.0,0.0,0.0,0.0,0.0,0.0,0.0,0.0,0.0,0.0,0.0,0.0,0.0,0.0,0.0,0.0,0.0,0.0,0.0,0.0,0.0,0.0,0.0,0.0,0.0,0.0,0.0,0.0,0.0,0.0,0.0,0.0,0.0,0.0,0.0,0.0,0.0,0.0,0.0,0.0,0.0,0.0,0.0,0.0,0.0,0.0,0.0,0.0,0.0,0.0,0.0,0.0,0.652,0.6308,0.0,0.0,0.0,0.0,0.0,0.0,0.0,0.0,0.0,0.0,0.0,0.0,0.0,0.0,0.0,0.0,0.0,0.0,0.0,0.0,0.0,0.0,0.0,0.0,0.0,0.0,0.0,0.0,0.0,0.0,0.0,0.0,0.0,0.0,0.0,0.0,0.0,0.0,0.0,0.0,0.8009,0.8801,0.9322,0.9661,0.9728,0.9728,0.9728,0.9445,0.8971,0.8263,0.7525,0.0,0.0,0.0,0.0,0.0,0.0,0.0,0.0,0.0,0.0,0.0,0.0,0.0,0.0,0.0,0.0,0.0,0.0,0.0,0.0,0.0,0.0,0.0,0.0,0.0,0.0,0.0,0.0,0.0,0.0,0.0,0.0,0.0,0.0,0.0,0.0,0.0,0.0,0.0,0.0,0.0,0.0,0.0,0.0,0.0,0.0,0.0,0.0,0.0,0.0,0.0,0.0,0.0,0.0,0.0,0.0,0.0,0.0,0.0,0.5845,0.595,0.0,0.0,0.0,0.0,0.0,0.0,0.0,0.0,0.0,0.0,0.0,0.0,0.0,0.0,0.0,0.0,0.0,0.0,0.0,0.0,0.0,0.0,0.0,0.0,0.0,0.0,0.0,0.0,0.0,0.0,0.0,0.0,0.0,0.0,0.0,0.0,0.0,0.0,0.0,0.0,0.7663,0.8381,0.8923,0.9123,0.9189,0.9189,0.9189,0.9074,0.8827,0.8366,0.7778,0.0,0.0,0.0,0.0,0.0,0.0,0.0,0.0,0.0,0.0,0.0,0.0,0.0,0.0,0.0,0.0,0.0,0.0,0.0,0.0,0.0,0.0,0.0,0.0,0.0,0.0,0.0,0.0,0.0,0.0,0.0,0.0,0.0,0.0,0.0,0.0,0.0,0.0,0.0,0.0,0.0,0.0,0.0,0.0,0.0,0.0,0.0,0.0,0.0,0.0,0.0,0.0,0.0,0.2936,0.3066,0.3459,0.3443,0.3577,0.3846,0.4518,0.4984,0.528,0.4629,0.0,0.0,0.0,0.0,0.0,0.0,0.0,0.0,0.0,0.0,0.0,0.0,0.0,0.0,0.0,0.0,0.0,0.0,0.0,0.0,0.0,0.0,0.4444,0.3425,0.3367,0.401,0.5755,0.0,0.0,0.0,0.0,0.0,0.0,0.0,0.0,0.0,0.0,0.0,0.6617,0.7345,0.7917,0.8184,0.8184,0.8318,0.8584,0.8761,0.8728,0.8472,0.8125,0.7723,0.0,0.0,0.0,0.0,0.0,0.0,0.0,0.0,0.0,0.0,0.0,0.0,0.0,0.0,0.0,0.0,0.0,0.0,0.0,0.0,0.0,0.0,0.0,0.0,0.0,0.0,0.0,0.0,0.0,0.0,0.0,0.0,0.2629,0.2573,0.0,0.0,0.0,0.0,0.0,0.0,0.0,0.0,0.0,0.0,0.0,0.0,0.0,0.1725,0.1736,0.1719,0.2401,0.3704,0.2828,0.3045,0.4367,0.4421,0.4532,0.4465,0.3269,0.0,0.384,0.3766,0.0,0.0,0.0,0.0,0.0,0.0,0.0,0.0,0.0,0.0,0.0,0.0,0.0,0.0,0.0,0.0,0.0,0.0,0.0,0.0,0.0,0.0,0.4281,0.4029,0.4088,0.4226,0.424,0.3651,0.3012,0.2781,0.2588,0.2401,0.0,0.0,0.0,0.0,0.0,0.0,0.4225,0.4646,0.5366,0.6577,0.6711,0.7178,0.8518,0.864,0.853,0.8225,0.816,0.8055,0.795,0.7382,0.0,0.0,0.0,0.0,0.0,0.0,0.0,0.0,0.0,0.0,0.0,0.0,0.0,0.0,0.0,0.0,0.0,0.0,0.0,0.0,0.0,0.0,0.0,0.0,0.0,0.0,0.0,0.0,0.0,0.1513,0.1736,0.1178,0.0887,0.0772,0.0,0.0,0.0,0.0,0.0,0.0,0.0,0.0,0.0,0.0,0.0475,0.0699,0.0721,0.0678,0.0999,0.1694,0.1202,0.1384,0.1944,0.2049,0.2053,0.204,0.1297,0.1259,0.1645,0.2247,0.233,0.2162,0.0,0.0,0.0,0.0,0.3091,0.2936,0.2407,0.2167,0.2074,0.1749,0.0,0.0,0.0,0.0,0.0,0.0,0.0,0.2831,0.1611,0.2101,0.2685,0.1958,0.1844,0.1852,0.1748,0.1401,0.1437,0.2563,0.28,0.2667,0.2249,0.2218,0.0,0.0,0.0,0.3411,0.3777,0.4101,0.4562,0.5165,0.5232,0.5499,0.6101,0.6168,0.6137,0.5996,0.6692,0.7023,0.6998,0.7375,0.731,0.0,0.0,0.0,0.0,0.0,0.0,0.0,0.0,0.0,0.0,0.0,0.0,0.0,0.0,0.0,0.0,0.0,0.0,0.0,0.0,0.0,0.0,0.0,0.0,0.0,0.0,0.0,0.0,0.0576,0.0736,0.0053,0.0,0.0,0.0,0.0,0.0,0.0,0.0,0.0,0.0,0.0,-0.007,-0.0147,-0.0076,-0.0078,-0.0159,-0.0081,0.0,0.0,0.0,0.0,0.0,-0.0086,-0.0171,-0.017,-0.0337,-0.0334,-0.0247,0.0759,0.109,0.1073,0.1909,0.2211,0.2223,0.2399,0.2547,0.2415,0.1719,0.137,0.1136,0.0887,0.0662,0.0577,0.1196,0.0,0.0,0.0,0.0,0.1525,0.0067,0.0344,0.0771,-0.0072,-0.029,-0.0291,-0.0144,-0.0143,0.0349,0.2033,0.2486,0.2399,0.1931,0.1839,0.0,0.1991,0.2319,0.2601,0.2807,0.3039,0.3369,0.3694,0.3758,0.3892,0.4294,0.4294,0.4294,0.4294,0.5248,0.5719,0.5656,0.6467,0.663,0.6033,0.0,0.0,0.0,0.0,0.0,0.0,0.0,0.0,0.0,0.0,0.0,0.0,0.0,0.0,0.0,0.0,0.0,0.0,0.0,0.0,0.0,0.0,0.0,0.0,0.0,0.0,0.0,0.0,0.0,0.0,0.0,0.0,0.0,0.0,0.0,0.0,0.0,0.0,0.0,0.0,-0.0232,-0.0636,-0.0247,-0.0252,-0.0681,-0.0258,0.0,0.0,0.0,0.0,0.0,-0.0434,-0.0695,-0.0694,-0.1128,-0.1301,-0.1294,-0.0322,-0.0155,-0.0613,-0.0523,-0.0521,-0.0525,-0.052,-0.0225,0.0153,0.0151,-0.0151,-0.0452,-0.0526,-0.08,-0.1186,-0.1111,-0.1147,0.0,0.0,-0.1102,-0.1125,-0.1244,-0.1173,-0.1095,-0.1109,-0.1103,-0.1022,-0.0656,-0.0577,-0.0425,0.0069,0.0135,0.0132,0.0126,0.0,0.0123,0.0125,0.0127,0.0195,0.0201,0.0204,0.0751,0.2087,0.2218,0.2754,0.416,0.4294,0.4294,0.4294,0.4359,0.4423,0.442,0.4358,0.417,0.3974,0.3453,0.0,0.0,0.0,0.0,0.0,0.0,0.0,0.0,0.0,0.0,0.0,0.0,0.0,0.0,0.0,0.0,0.0,0.0,0.0,0.0,0.0,0.0,0.0,0.0,0.0,0.0,0.0,0.0,0.0,-0.0265,0.0,-0.0449,-0.0664,-0.0823,-0.0907,-0.0884,-0.0924,-0.0875,-0.0896,-0.0998,-0.1182,-0.1025,-0.0947,-0.1124,-0.0954,-0.0873,-0.0879,-0.0879,-0.0882,-0.0888,-0.1065,-0.115,-0.1142,-0.1318,-0.14,-0.1389,-0.1018,-0.0997,-0.114,-0.1114,-0.1107,-0.1111,-0.1106,-0.0952,-0.0798,-0.0874,-0.0953,-0.1029,-0.1013,-0.1137,-0.1325,-0.1314,-0.1305,-0.13,-0.1301,-0.1314,-0.1331,-0.1274,-0.1267,-0.1182,-0.1188,-0.1178,-0.1168,-0.1022,-0.1018,-0.0939,-0.0787,-0.0351,0.0,0.0,0.0,0.0,0.0,0.0,0.0,0.0,0.0,0.0206,0.0682,0.0744,0.0941,0.1478,0.1545,0.1539,0.1526,0.2386,0.2903,0.2877,0.3771,0.4129,0.3883,0.3543,0.3204,0.0,0.0,0.0,0.0,0.0,0.0,0.0,0.0,0.0,0.0,0.0,0.0,0.0,0.0,0.0,0.0,0.0,0.0,0.0,0.0,0.0,0.0,0.0,0.0,0.0,-0.0435,-0.0468,-0.0406,-0.0709,-0.0939,-0.0915,-0.1168,-0.1361,-0.1394,-0.1364,-0.1407,-0.1359,-0.1376,-0.1475,-0.1661,-0.1491,-0.1494,-0.167,-0.1494,-0.1412,-0.1421,-0.1421,-0.1427,-0.1436,-0.1616,-0.1699,-0.1688,-0.1866,-0.1947,-0.1934,-0.1839,-0.1907,-0.1879,-0.1677,-0.1582,-0.1581,-0.1575,-0.149,-0.1323,-0.1477,-0.1551,-0.1541,-0.167,-0.172,-0.1771,-0.1748,-0.1676,-0.1684,-0.167,-0.1676,-0.1687,-0.1687,-0.1671,-0.1655,-0.1655,-0.164,-0.1551,-0.1396,-0.14,-0.1327,-0.1243,-0.0792,-0.0422,-0.0409,-0.0416,-0.042,-0.0409,-0.0416,-0.0424,-0.0424,-0.042,-0.0416,-0.0344,-0.0341,-0.0338,-0.0202,-0.0201,-0.0133,0.0,0.0855,0.1367,0.1418,0.2361,0.274,0.2568,0.2444,0.2246,0.1929,0.0,0.0,0.0,0.0,0.0,0.0,0.0,0.0,0.0,0.0,0.0,0.0,0.0,0.0,0.0,0.0,0.0,0.0,0.0,0.0,0.0,0.0,0.0,-0.1182,-0.1271,-0.1275,-0.1292,-0.1291,-0.1327,-0.1448,-0.143,-0.1482,-0.143,-0.1447,-0.1462,-0.1478,-0.1406,-0.168,-0.221,-0.1697,-0.1706,-0.2245,-0.1706,-0.1436,-0.1436,-0.1436,-0.1436,-0.1436,-0.1975,-0.2245,-0.2245,-0.2694,-0.2874,-0.2871,-0.2842,-0.283,-0.2739,-0.2271,-0.2087,-0.2084,-0.2148,-0.1797,-0.1535,-0.1918,-0.2055,-0.2114,-0.2492,-0.2562,-0.2555,-0.2525,-0.2515,-0.2514,-0.2514,-0.2514,-0.2514,-0.2514,-0.2492,-0.2469,-0.2469,-0.2446,-0.2265,-0.1939,-0.1802,-0.173,-0.1321,-0.1242,-0.1236,-0.1221,-0.1218,-0.1218,-0.1218,-0.1218,0.0,-0.1218,-0.1217,-0.1205,-0.1104,-0.11,-0.0957,-0.0539,-0.0532,-0.0398,-0.0067,0.0,0.0,0.0,0.0,-0.0061,-0.0059,-0.0056,-0.0054,-0.0054,0.0,0.0,0.0,0.0,0.0,0.0,0.0,0.0,0.0,0.0,0.0,0.0,0.0,0.0,0.0,0.0,0.0,0.0,0.0,0.0,0.0,-0.1568,-0.1608,-0.1311,-0.1327,-0.1402,-0.1352,-0.164,-0.1925,-0.1929,-0.2205,-0.2406,-0.2439,-0.2449,-0.2465,-0.2491,-0.2499,-0.2593,-0.2683,-0.2601,-0.2515,-0.2694,-0.2604,-0.2515,-0.2515,-0.2515,-0.2515,-0.2515,-0.2604,-0.2694,-0.2694,-0.2874,-0.2874,-0.2874,-0.2866,-0.2861,-0.2856,-0.2717,-0.2609,-0.2609,-0.2601,-0.2498,-0.2391,-0.2441,-0.2494,-0.2469,-0.2544,-0.2594,-0.2559,-0.2549,-0.2532,-0.2514,-0.2514,-0.2514,-0.2514,-0.2514,-0.2492,-0.2469,-0.2469,-0.2446,-0.2346,-0.2262,-0.2266,-0.2192,-0.2102,-0.2084,-0.1915,-0.1309,-0.1234,-0.1234,-0.1234,-0.1234,-0.1234,-0.1234,-0.1224,-0.1213,-0.1205,-0.1113,-0.1029,-0.0957,-0.0944,-0.0864,-0.0719,-0.0706,-0.0699,-0.0699,-0.0749,-0.0745,-0.0818,-0.0774,-0.0812,0.0,0.0,0.0,0.0,0.0,0.0,0.0,0.0,0.0,0.0,0.0,0.0,0.0,0.0,0.0,0.0,0.0,0.0,0.0,0.0,0.0,0.0,-0.2024,-0.2146,-0.1933,-0.1917,-0.1978,-0.2024,-0.2223,-0.2423,-0.2362,-0.2626,-0.2815,-0.2845,-0.2848,-0.2856,-0.2872,-0.2874,-0.2874,-0.2874,-0.2874,-0.2874,-0.2874,-0.2874,-0.2874,-0.2874,-0.2874,-0.2874,-0.2874,-0.2874,-0.2874,-0.2874,-0.2874,-0.2874,-0.2874,-0.2874,-0.2874,-0.2871,0.0,0.0,0.0,0.0,-0.2774,-0.2735,-0.2717,-0.2691,-0.2664,-0.2569,-0.2624,-0.2592,-0.2567,-0.2548,-0.253,-0.2518,-0.2514,-0.2514,-0.2514,-0.2502,-0.2488,-0.2488,-0.2474,-0.2458,-0.2446,-0.2453,-0.2454,-0.2428,-0.242,0.0,-0.177,-0.1684,-0.1678,-0.1678,-0.1678,-0.1678,-0.1678,-0.1667,-0.1655,-0.1647,-0.1624,-0.1531,-0.1376,-0.1357,0.0,0.0,0.0,-0.1014,-0.1064,-0.1055,0.0,0.0,0.0,0.0,0.0,0.0,0.0,0.0,0.0128,0.0131,0.0,0.0,0.0,0.0,0.0,0.0,0.0,0.0,0.0,0.0,0.0,0.0,0.0,0.0,0.0,0.0,-0.2364,-0.2652,-0.2736,-0.2728,-0.2732,-0.2782,-0.2791,-0.2804,-0.2831,-0.2834,-0.2845,-0.2872,-0.2874,-0.2874,-0.2874,-0.2874,0.0,0.0,0.0,-0.2874,-0.2874,-0.2874,-0.2874,-0.2874,-0.2874,-0.2874,-0.2874,-0.2874,-0.2874,-0.2874,-0.2874,-0.2874,-0.2874,-0.2874,-0.2874,-0.2874,-0.2874,-0.2874,-0.287,-0.284,-0.2795,-0.2747,-0.2744,0.0,0.0,-0.2665,-0.257,-0.2637,-0.2585,-0.2567,-0.2559,-0.2532,-0.2522,-0.2519,-0.2519,-0.2517,-0.2514,-0.2514,-0.2514,-0.2507,-0.248,-0.2495,-0.2499,-0.2444,-0.2453,-0.2451,-0.2398,-0.236,-0.2337,-0.2333,-0.2333,-0.2333,-0.2333,-0.2333,-0.2323,-0.2298,-0.2293,0.0,-0.1799,-0.1772,-0.1622,-0.1215,-0.1252,-0.1219,-0.1249,-0.1254,-0.1209,-0.1239,-0.1276,-0.1397,-0.1392,-0.1427,-0.1456,-0.1474,-0.1345,-0.1345,0.0,0.0,0.0,0.0,0.0,0.0,0.0,0.0,0.0,0.0,0.0,0.0,0.0,0.0,0.0,-0.2318,-0.2634,-0.2763,-0.2806,-0.2827,-0.2834,-0.2821,-0.2841,-0.2859,-0.2864,-0.2866,-0.2868,-0.2874,-0.2874,-0.2874,-0.2874,-0.2874,-0.2874,-0.2874,-0.2874,-0.2874,-0.2874,-0.2874,-0.2874,-0.2874,-0.2874,0.0,-0.2874,-0.2874,-0.2874,-0.2874,-0.2874,-0.2874,-0.2874,-0.2874,-0.2874,-0.2874,-0.2874,-0.2874,-0.287,-0.284,-0.2821,-0.2807,-0.2782,-0.2755,-0.2728,-0.2722,-0.2603,-0.2562,-0.2634,-0.2613,0.0,-0.2586,-0.2568,-0.2551,-0.2551,-0.2533,-0.2514,-0.2514,-0.2514,-0.2512,-0.2507,-0.251,-0.2511,-0.2499,-0.2482,-0.2465,-0.2454,-0.2406,-0.2361,-0.2337,-0.2333,-0.2333,-0.2333,-0.2333,-0.2331,-0.2324,-0.2304,-0.2286,-0.2203,-0.2105,-0.2078,-0.1987,-0.1976,-0.1955,-0.1989,-0.2054,-0.2096,-0.2036,-0.216,-0.2137,-0.2181,-0.2236,-0.2299,-0.2366,-0.1668,-0.1423,0.0,0.0,0.0,0.0,0.0,0.0,0.0,0.0,0.0,0.0,0.0,-0.1633,-0.183,0.0,-0.24,-0.2637,-0.2737,-0.2816,-0.2846,-0.2864,-0.2868,-0.2853,-0.2864,-0.2874,-0.2874,-0.2874,-0.2874,-0.2874,-0.2874,-0.2874,-0.2874,-0.2874,-0.2874,-0.2874,-0.2874,-0.3321,-0.4305,-0.4305,-0.4751,-0.5733,-0.5733,-0.5733,-0.5733,-0.5733,-0.5733,-0.5733,-0.5733,-0.5733,-0.5733,-0.5733,-0.5733,-0.5733,-0.5733,-0.4574,-0.2872,-0.2857,-0.2841,-0.2826,-0.2811,-0.2787,-0.2758,-0.2743,-0.2717,-0.2603,-0.2573,-0.2637,-0.2622,-0.2605,-0.2592,-0.2578,-0.2563,-0.2559,-0.2551,-0.2521,-0.2526,-0.2533,-0.2518,-0.2514,-0.2514,-0.2514,-0.2502,-0.2487,-0.2472,-0.2444,-0.2413,-0.2383,-0.2378,-0.2372,-0.2357,-0.2356,-0.2349,-0.2334,-0.232,-0.2307,-0.2292,-0.2263,-0.2169,-0.2223,-0.2237,-0.2238,-0.2223,-0.2294,-0.2334,-0.2334,-0.2408,-0.2461,-0.2492,-0.2567,-0.2634,-0.2608,-0.2286,-0.2122,0.0,0.0,0.0,0.0,0.0,0.0,0.0,-0.0848,-0.1016,-0.1364,-0.1739,-0.2058,-0.2215,-0.2785,-0.3212,-0.3386,-0.3694,-0.3909,-0.4033,-0.4037,-0.4037,-0.4126,-0.3411,-0.2874,-0.2874,-0.3231,-0.3411,-0.3411,-0.3769,-0.4037,-0.4037,-0.4037,-0.4037,-0.4037,-0.4037,-0.4753,-0.627,-0.627,-0.707,-0.8587,-0.8587,-0.8587,-0.8587,-0.8587,-0.8587,-0.8587,-0.8587,-0.8587,-0.8587,-0.8587,-0.8587,-0.8587,-0.8587,-0.6716,-0.4037,-0.4037,-0.4015,-0.3898,-0.3898,-0.3958,-0.3914,-0.3786,-0.3767,-0.3746,-0.3671,-0.3649,-0.3641,-0.369,-0.3674,-0.3661,-0.3628,-0.3638,-0.3638,-0.3573,-0.3577,-0.3586,-0.3552,-0.346,-0.3454,-0.3454,-0.3454,-0.3443,-0.3486,-0.3481,-0.3233,-0.2505,-0.2424,-0.2413,-0.2382,-0.2378,-0.2367,-0.2335,-0.2333,-0.2326,-0.2309,-0.2285,-0.2274,-0.2208,-0.2303,-0.2316,-0.2316,-0.2368,-0.2398,-0.2405,-0.2488,-0.2547,-0.2577,-0.2661,-0.2717,-0.2748,-0.2803,-0.2829,0.0,0.0,-0.0108,-0.0421,-0.0605,-0.0754,0.0,-0.1519,-0.1879,-0.1916,-0.2313,-0.2604,-0.2591,-0.4115,-0.5348,-0.5366,-0.6833,-0.7951,-0.7963,-0.7963,-0.8137,-0.8575,-0.5196,-0.2874,-0.2874,-0.4395,-0.5375,-0.5375,-0.6981,-0.7963,-0.7963,-0.7963,-0.7963,-0.7963,-0.7963,-0.8052,-0.823,-0.8319,-0.8409,-0.8587,-0.8587,-0.8587,-0.8587,-0.8587,-0.8587,-0.8587,-0.8587,-0.8587,-0.8587,-0.8587,-0.8587,-0.8587,-0.8587,-0.8319,-0.7963,-0.7963,-0.7959,-0.7948,-0.7948,-0.7895,-0.7808,-0.7724,-0.7645,-0.7654,-0.7478,-0.7368,-0.7364,-0.7357,-0.7383,-0.7405,-0.7397,-0.7425,-0.7371,-0.7351,-0.7217,-0.7164,-0.7152,-0.7016,-0.6971,-0.6971,-0.6971,-0.6967,-0.6956,-0.6956,-0.5897,-0.2886,-0.2424,-0.2413,-0.2382,-0.2378,-0.2367,-0.2335,-0.2333,-0.2342,-0.2367,-0.2365,-0.2375,-0.2402,-0.2406,-0.2409,-0.2409,-0.2442,-0.2472,-0.2499,-0.256,-0.2607,-0.2637,-0.2702,-0.2748,-0.2778,-0.2812,-0.2829,-0.0234,-0.1215,-0.227,-0.2543,-0.3484,-0.4454,-0.4973,-0.4399,-0.4114,-0.5474,-0.5077,-0.479,-0.5929,-0.6787,-0.7378,-0.7378,-0.8029,-0.8676,-0.8935,-0.8892,-0.9013,-0.9389,-0.7808,-0.6794,-0.7057,-0.7777,-0.8222,-0.8222,-0.8935,-0.9291,-0.9024,-0.9024,-0.9024,-0.9024,-0.9024,-0.9557,-1.0629,-1.0629,-1.1078,-1.1888,-1.1888,-1.1888,-1.1888,-1.2237,-1.2497,-1.268,-1.2408,-1.232,-1.232,-1.2059,-1.1888,-1.1976,-1.2237,-1.232,-1.2054,-0.9566,-0.8587,-0.8587,-0.8587,-0.8562,-0.8513,-0.8424,-0.8334,-0.8325,-0.8235,-0.8089,-0.7968,-0.7968,-0.8023,-0.7983,-0.8012,-0.8008,-0.7995,-0.7969,-0.7952,-0.7867,-0.7894,-0.7731,-0.7591,-0.7591,-0.755,-0.7513,-0.7513,-0.7513,-0.7022,-0.5566,-0.5402,-0.5379,-0.5389,-0.538,-0.4976,-0.3948,-0.2906,-0.2391,-0.2403,-0.2405,-0.241,-0.2423,-0.244,-0.245,-0.245,-0.2496,-0.2527,-0.2541,-0.2598,-0.2643,-0.2673,-0.2735,-0.278,-0.2811,-0.2841,-0.2855,-0.1854,-0.3153,-0.4538,-0.4982,-0.6128,-0.7328,-0.7892,-0.6956,-0.6427,-0.8141,-0.7359,-0.6882,-0.824,-0.8867,-0.9317,-0.9344,-0.988,-1.0421,-1.0796,-1.0765,-1.083,-1.129,-1.1224,-1.1354,-1.1735,-1.117,-1.076,-1.0791,-1.1239,-1.1422,-1.1067,-1.1067,-1.1067,-1.1067,-1.1067,-1.1688,-1.3116,-1.3116,-1.366,-1.4653,-1.4653,-1.4653,-1.4741,-1.4999,-1.5352,-1.5704,-1.5352,-1.5168,-1.5175,-1.4829,-1.4653,-1.4741,-1.5087,-1.5168,-1.4815,-1.1699,-1.0545,-1.0545,-1.0545,-1.0545,-1.0525,-1.0502,-1.0319,-1.0229,-1.0168,-1.0072,-0.9923,-0.9893,-0.9883,-0.9863,-0.9705,-0.9662,-0.9682,-0.9524,-0.9437,-0.9452,-0.9455,-0.9271,-0.9109,-0.9075,-0.9012,-0.8954,-0.892,-0.8915,-0.8915,-0.8915,-0.8915,-0.8566,-0.7621,-0.7511,-0.7013,-0.5742,-0.4535,-0.3786,-0.3799,-0.3345,-0.3123,-0.3133,-0.2708,-0.2493,-0.2493,-0.2544,-0.2575,-0.2583,-0.2626,-0.2667,-0.2705,-0.2758,-0.2799,-0.2829,-0.286,-0.2874,-0.5552,-0.5756,-0.6191,-0.7264,-0.7627,-0.7884,-0.8407,-0.8453,-0.8436,-0.8444,-0.836,-0.8249,-0.8165,-0.9616,-1.095,-1.1068,-1.3104,-1.4653,-1.4794,-1.4902,-1.5194,-1.5861,-1.5593,-1.5631,-1.6321,-1.4046,-1.2611,-1.2744,-1.4455,-1.5528,-1.5528,-1.5528,-1.5528,-1.5528,-1.5528,-1.5528,-1.5616,-1.5616,-1.5616,-1.5616,-1.5616,-1.5616,-1.5616,-1.5704,-1.5704,-1.5704,-1.5704,-1.5704,-1.5704,-1.5616,-1.5616,-1.5616,-1.5704,-1.5704,-1.5616,-1.5528,-1.544,-1.544,-1.544,-1.544,-1.5499,-1.5329,-1.5278,-1.5211,-1.4894,-1.4791,-1.4754,-1.4509,-1.4465,-1.4383,-1.4059,-1.3894,-1.3811,-1.3307,-1.311,-1.3003,-1.3003,-1.297,-1.2749,-1.2601,-1.2568,-1.2521,-1.2367,-1.2347,-1.2347,-1.2347,-1.2347,-1.1201,-0.7927,-0.7452,-0.7398,-0.7319,-0.7243,-0.728,-0.7366,-0.5842,-0.4946,-0.4927,-0.3488,-0.2637,-0.2637,-0.2585,-0.2615,-0.2561,-0.2563,-0.2592,-0.2736,-0.2767,-0.2799,-0.2829,-0.286,-0.2874,-0.636,-0.7783,-0.93,-0.9913,-1.1053,-1.2013,-1.2324,-1.1286,-1.0621,-1.1761,-1.0774,-0.9991,-1.1123,-1.1928,-1.2503,-1.3075,-1.3961,-1.4959,-1.5835,-1.5859,-1.5918,-1.6164,-1.6233,-1.6253,-1.6243,-1.5632,-1.5347,-1.5431,-1.6063,-1.6379,-1.613,-1.6252,-1.626,-1.6145,-1.6252,-1.6341,-1.6137,-1.6137,-1.6049,-1.5704,-1.5704,-1.5881,-1.6137,-1.6137,-1.6313,-1.6585,-1.6313,-1.6137,-1.6137,-1.5793,-1.5704,-1.5704,-1.6049,-1.6137,-1.6225,-1.6497,-1.6673,-1.6585,-1.5881,-1.5704,-1.5697,-1.5637,-1.5548,-1.5523,-1.541,-1.5138,-1.4959,-1.4899,-1.4803,-1.4631,-1.4555,-1.4473,-1.4473,-1.4307,-1.4264,-1.4145,-1.3823,-1.3612,-1.3335,-1.2974,-1.2718,-1.2562,-1.2508,-1.2501,-1.2501,-1.2501,-1.2501,-1.2095,-1.0957,-0.9834,-0.9116,-0.9116,-0.8116,-0.7513,-0.7468,-0.7053,-0.678,-0.6806,-0.6407,-0.621,-0.621,-0.6198,-0.559,-0.4379,-0.441,-0.3887,-0.2767,-0.2778,-0.281,-0.2859,-0.287,-0.2874,-0.8775,-1.0241,-1.1789,-1.216,-1.3204,-1.4163,-1.4211,-1.3129,-1.2422,-1.3334,-1.2219,-1.142,-1.2671,-1.283,-1.3119,-1.4059,-1.4561,-1.5123,-1.6236,-1.6293,-1.6347,-1.6434,-1.6487,-1.6414,-1.6251,-1.6446,-1.6657,-1.675,-1.6909,-1.6816,-1.6657,-1.6776,-1.6815,-1.6768,-1.6815,-1.6815,-1.676,-1.6696,-1.6489,-1.6233,-1.6233,-1.6321,-1.6665,-1.6665,-1.6841,-1.7112,-1.6753,-1.6665,-1.6665,-1.6321,-1.6233,-1.6233,-1.6489,-1.6665,-1.6665,-1.7024,-1.7112,-1.7024,-1.6409,-1.6233,-1.6233,-1.6233,-1.6156,-1.6056,-1.5994,-1.5786,-1.5547,-1.5486,-1.5347,-1.5126,-1.4968,-1.4961,-1.4878,-1.4713,-1.4713,-1.4631,-1.439,-1.4066,-1.3644,-1.3297,-1.2999,-1.2705,-1.2603,-1.2583,-1.2603,-1.2657,-1.2617,-1.2562,-1.2508,-1.1566,-1.088,-1.0927,-0.9996,-0.9385,-0.9425,-0.901,-0.873,-0.873,-0.8263,-0.799,-0.799,-0.7999,-0.7481,-0.643,-0.6389,-0.5889,-0.4801,-0.4801,-0.4496,-0.3857,-0.3857,-0.35,-1.2549,-1.2983,-1.3356,-1.3939,-1.4183,-1.4245,-1.4089,-1.3919,-1.3627,-1.3017,-1.2644,-1.2477,-1.2452,-1.245,-1.2827,-1.4156,-1.4761,-1.542,-1.6269,-1.6553,-1.6665,-1.675,-1.6552,-1.6405,-1.6568,-1.66,-1.6674,-1.6758,-1.7006,-1.7104,-1.7112,-1.712,-1.7201,-1.7372,-1.721,-1.7201,-1.7372,-1.7201,-1.7112,-1.7112,-1.7112,-1.7112,-1.7112,-1.7112,-1.7112,-1.7112,-1.7112,-1.7112,-1.7112,-1.7112,-1.7112,-1.7112,-1.7112,-1.7112,-1.7112,-1.7112,-1.7112,-1.7112,-1.7112,-1.7112,-1.7112,-1.7112,-1.7112,-1.708,-1.683,-1.6738,-1.6552,-1.6373,-1.6194,-1.5891,-1.5554,-1.5463,-1.5298,-1.4878,-1.4796,-1.4796,-1.4713,-1.4465,-1.4049,-1.3741,-1.3394,-1.3071,-1.2793,-1.2745,-1.2793,-1.2942,-1.2834,-1.2691,-1.2542,-1.2522,-1.2583,-1.2725,-1.2745,-1.28,-1.2949,-1.1579,-1.0614,-1.0614,-0.9178,-0.825,-0.825,-0.8252,-0.834,-0.8433,-0.8433,-0.844,-0.854,-0.854,-0.7615,-0.5823,-0.5823,-0.493,-1.2888,-1.3444,-1.3905,-1.4177,-1.4183,-1.4061,-1.3804,-1.3451,-1.2956,-1.2128,-1.1777,-1.1496,-1.0904,-1.1581,-1.2548,-1.3478,-1.457,-1.5612,-1.6569,-1.6863,-1.6942,-1.6774,-1.6885,-1.682,-1.66,-1.682,-1.6942,-1.6774,-1.6806,-1.6974,-1.7104,-1.7242,-1.7274,-1.7185,-1.7266,-1.7274,-1.7185,-1.7136,-1.7112,-1.7112,-1.7112,-1.7112,-1.7112,-1.7112,-1.7112,-1.7112,-1.7112,-1.7112,-1.7112,-1.7112,-1.7112,-1.7112,-1.7112,-1.7112,-1.7112,-1.7112,-1.7112,-1.7112,-1.7112,-1.7112,-1.7112,-1.7112,-1.7112,-1.7104,-1.7055,-1.6925,-1.6747,-1.656,-1.6381,-1.6211,-1.5916,-1.5883,-1.5801,-1.5711,-1.5628,-1.5628,-1.5298,-1.5034,-1.4756,-1.4349,-1.3864,-1.3384,-1.2995,-1.2901,-1.2915,-1.2956,-1.2929,-1.2888,-1.2847,-1.2847,-1.2861,-1.2895,-1.2901,-1.2915,-1.3036,-1.2728,-1.2544,-1.2544,-1.2181,-1.2008,-1.2008,-1.2044,-1.1449,-1.0297,-1.0213,-0.964,-0.854,-0.854,-0.8321,-0.7874,-0.7874,-0.7606,-1.3403,-1.3865,-1.4177,-1.4197,-1.4041,-1.3729,-1.3173,-1.277,-1.2244,-1.1262,-1.1016,-1.0818,-1.0354,-1.1165,-1.2237,-1.3223,-1.4501,-1.5607,-1.6548,-1.695,-1.7071,-1.6974,-1.7055,-1.7031,-1.6836,-1.699,-1.7071,-1.6974,-1.6966,-1.7006,-1.7104,-1.721,-1.7258,-1.7234,-1.725,-1.7218,-1.7112,-1.7112,-1.7112,-1.7112,-1.7112,-1.7112,-1.7112,-1.7112,-1.7112,-1.7112,-1.7112,-1.7112,-1.7112,-1.7112,-1.7112,-1.7112,-1.7112,-1.7112,-1.7112,-1.7112,-1.7112,-1.7112,-1.7112,-1.7112,-1.7112,-1.7112,-1.7112,-1.7096,-1.7023,-1.6877,-1.6698,-1.6511,-1.6324,-1.617,-1.599,-1.5966,-1.5966,-1.5966,-1.5966,-1.5966,-1.5711,-1.5467,-1.5151,-1.4668,-1.4128,-1.3637,-1.3552,-1.326,-1.3078,-1.3146,-1.3098,-1.3078,-1.3146,-1.3044,-1.2983,-1.3051,-1.3057,-1.3078,-1.3146,-1.3227,-1.3275,-1.3275,-1.3356,-1.3403,-1.3403,-1.3464,-1.3056,-1.2168,-1.2228,-1.1928,-1.1071,-1.1071,-1.0661,-0.9833,-0.9833,-0.9388,-1.3919,-1.417,-1.4231,-1.4082,-1.379,-1.3308,-1.2406,-1.2042,-1.151,-1.0461,-1.0256,-1.0308,-1.0214,-1.0942,-1.187,-1.3124,-1.4318,-1.5463,-1.6414,-1.6828,-1.7055,-1.7104,-1.7112,-1.7112,-1.7112,-1.7112,-1.7112,-1.7112,-1.7136,-1.7136,-1.7112,-1.7112,-1.7185,-1.7348,-1.7193,-1.7112,-1.7112,-1.7112,-1.7112,-1.7112,-1.7112,-1.7112,-1.7112,-1.7112,-1.7112,-1.7112,-1.7112,-1.7112,-1.7112,-1.7112,-1.7112,-1.7112,-1.7112,-1.7112,-1.7112,-1.7112,-1.7112,-1.7112,-1.7112,-1.7112,-1.7112,-1.7112,-1.7112,-1.708,-1.6933,-1.6763,-1.6576,-1.6389,-1.6219,-1.599,-1.5974,-1.5966,-1.5966,-1.5966,-1.5966,-1.5966,-1.5966,-1.5719,-1.5298,-1.4878,-1.4355,-1.4066,-1.4128,-1.3781,-1.3411,-1.3549,-1.3453,-1.3336,-1.3466,-1.3261,-1.3064,-1.3193,-1.32,-1.3254,-1.339,-1.3403,-1.341,-1.3431,-1.3431,-1.3437,-1.3458,-1.3587,-1.3722,-1.3871,-1.4,-1.415,-1.4299,-1.4299,-1.3407,-1.1799,-1.1799,-1.0905,-1.3973,-1.4089,-1.4075,-1.3919,-1.3478,-1.284,-1.1938,-1.1331,-1.0678,-0.9582,-0.9669,-0.9831,-0.9353,-1.0484,-1.1772,-1.258,-1.3758,-1.4984,-1.6186,-1.6535,-1.6779,-1.708,-1.7112,-1.7112,-1.7112,-1.7112,-1.7112,-1.7112,-1.725,-1.7274,-1.712,-1.7112,-1.7128,-1.7161,-1.7128,-1.7112,-1.7112,-1.7112,-1.7112,-1.7112,-1.7112,-1.7112,-1.7112,-1.7112,-1.7112,-1.7112,-1.7112,-1.7112,-1.7112,-1.7112,-1.7112,-1.7112,-1.7112,-1.7112,-1.7112,-1.7112,-1.7112,-1.7112,-1.7112,-1.7112,-1.7112,-1.7112,-1.7112,-1.7104,-1.7071,-1.6942,-1.6763,-1.6584,-1.6397,-1.6227,-1.5998,-1.5966,-1.5966,-1.5966,-1.5966,-1.5966,-1.5966,-1.5966,-1.5801,-1.5381,-1.5193,-1.5013,-1.4631,-1.4526,-1.4436,-1.4465,-1.4203,-1.3955,-1.3983,-1.3604,-1.3336,-1.3356,-1.3363,-1.337,-1.3397,-1.3403,-1.3458,-1.358,-1.3587,-1.3641,-1.3763,-1.379,-1.3878,-1.4027,-1.4055,-1.415,-1.4299,-1.4299,-1.4122,-1.3761,-1.3761,-1.3584,-1.3892,-1.4007,-1.4,-1.3688,-1.3329,-1.2657,-1.1364,-1.0905,-1.0362,-0.91,-0.9198,-0.9353,-0.8973,-0.9999,-1.1118,-1.1706,-1.2783,-1.4066,-1.5415,-1.5845,-1.6259,-1.6901,-1.7055,-1.7112,-1.7112,-1.7112,-1.7112,-1.7112,-1.7193,-1.7201,-1.7112,-1.7112,-1.7112,-1.7112,-1.7112,-1.7112,-1.7112,-1.7112,-1.7112,-1.7112,-1.7112,-1.7112,-1.7112,-1.7112,-1.7112,-1.7112,-1.7112,-1.7112,-1.7112,-1.7112,-1.7112,-1.7112,-1.7112,-1.7112,-1.7112,-1.7112,-1.7112,-1.7112,-1.7112,-1.7112,-1.7112,-1.7112,-1.7112,-1.7096,-1.7006,-1.6852,-1.6674,-1.6487,-1.6308,-1.6154,-1.6064,-1.5966,-1.5966,-1.5966,-1.5966,-1.5966,-1.5966,-1.5966,-1.5966,-1.5711,-1.5546,-1.5298,-1.5133,-1.4878,-1.4713,-1.4713,-1.4555,-1.4307,-1.4149,-1.3901,-1.3652,-1.3403,-1.3403,-1.3431,-1.3512,-1.3519,-1.358,-1.3729,-1.3736,-1.377,-1.3838,-1.3919,-1.3994,-1.4068,-1.415,-1.4224,-1.4299,-1.4299,-1.4299,-1.4299,-1.4299,-1.4299,-1.3749,-1.3885,-1.3878,-1.3458,-1.3086,-1.2466,-1.0804,-1.0482,-1.017,-0.8807,-0.8785,-0.9007,-0.8901,-0.964,-1.0428,-1.094,-1.1947,-1.3173,-1.4643,-1.5236,-1.5837,-1.669,-1.6982,-1.7112,-1.7112,-1.7112,-1.7112,-1.7112,-1.7112,-1.7112,-1.7112,-1.7112,-1.7112,-1.7112,-1.7112,-1.7112,-1.7112,-1.7112,-1.7112,-1.7112,-1.7112,-1.7112,-1.7112,-1.7112,-1.7112,-1.7112,-1.7112,-1.7112,-1.7112,-1.7112,-1.7112,-1.7112,-1.7112,-1.7112,-1.7112,-1.7112,-1.7112,-1.7112,-1.7112,-1.7112,-1.7112,-1.7112,-1.7112,-1.7088,-1.695,-1.6779,-1.66,-1.6414,-1.6235,-1.6006,-1.5974,-1.5966,-1.5966,-1.5966,-1.5966,-1.5966,-1.5966,-1.5966,-1.5966,-1.5966,-1.5711,-1.5546,-1.5546,-1.5216,-1.4961,-1.4961,-1.4878,-1.4721,-1.4397,-1.4315,-1.4066,-1.3569,-1.3486,-1.3464,-1.3614,-1.3627,-1.3702,-1.3878,-1.3892,-1.3905,-1.3939,-1.4055,-1.4122,-1.4122,-1.4238,-1.4299,-1.4299,-1.4299,-1.4299,-1.4299,-1.4299,-1.4299,-1.3566,-1.3661,-1.3593,-1.3275,-1.2768,-1.2043,-1.0606,-1.0156,-0.9662,-0.8534,-0.8598,-0.8893,-0.9047,-0.9421,-0.9979,-1.1037,-1.1711,-1.2661,-1.4253,-1.5082,-1.5788,-1.6519,-1.6901,-1.7112,-1.7112,-1.7112,-1.7112,-1.7112,-1.7112,-1.7112,-1.7112,-1.7112,-1.7112,-1.7112,-1.7112,-1.7112,-1.7112,-1.7112,-1.7112,-1.7112,-1.7112,-1.7112,-1.7112,-1.7112,-1.7112,-1.7112,-1.7112,-1.7112,-1.7112,-1.7112,-1.7112,-1.7112,-1.7112,-1.7112,-1.7112,-1.7112,-1.7112,-1.7112,-1.7112,-1.7112,-1.7112,-1.7112,-1.7112,-1.7112,-1.7088,-1.6966,-1.6787,-1.6609,-1.6422,-1.6243,-1.6089,-1.5966,-1.5966,-1.5966,-1.5966,-1.5966,-1.5966,-1.5966,-1.5966,-1.5966,-1.5966,-1.5966,-1.5966,-1.5875,-1.5883,-1.5883,-1.5546,-1.5298,-1.5298,-1.4886,-1.4473,-1.4066,-1.3652,-1.3464,-1.3614,-1.3627,-1.3749,-1.4034,-1.4048,-1.4116,-1.4251,-1.4272,-1.4278,-1.4278,-1.4292,-1.4299,-1.4299,-1.4299,-1.4299,-1.4299,-1.4299,-1.4299,-1.301,-1.322,-1.3343,-1.3186,-1.2835,-1.2206,-1.102,-1.0446,-0.9863,-0.8791,-0.8633,-0.8723,-0.8901,-0.9047,-0.9462,-1.0428,-1.0672,-1.1305,-1.2921,-1.3587,-1.4367,-1.5626,-1.6186,-1.6641,-1.7071,-1.7112,-1.7112,-1.7112,-1.7112,-1.7112,-1.7112,-1.7112,-1.7112,-1.7112,-1.7112,-1.7112,-1.7112,-1.7112,-1.7112,-1.7112,-1.7112,-1.7112,-1.7112,-1.7112,-1.7112,-1.7112,-1.7112,-1.7112,-1.7112,-1.7112,-1.7112,-1.7112,-1.7112,-1.7112,-1.7112,-1.7112,-1.7112,-1.7112,-1.7112,-1.7112,-1.7112,-1.7112,-1.7112,-1.7112,-1.7112,-1.699,-1.6725,-1.6633,-1.6446,-1.6259,-1.6089,-1.5966,-1.5966,-1.5966,-1.5966,-1.5966,-1.5966,-1.5966,-1.5966,-1.5966,-1.5966,-1.5966,-1.5966,-1.5966,-1.5966,-1.5966,-1.5875,-1.5628,-1.5463,-1.5216,-1.5006,-1.4695,-1.4123,-1.3749,-1.3736,-1.3756,-1.3885,-1.419,-1.4211,-1.4238,-1.4299,-1.4299,-1.4299,-1.4299,-1.4299,-1.4299,-1.4299,-1.4299,-1.4299,-1.4299,-1.4299,-1.4299,-1.2359,-1.2763,-1.3065,-1.3,-1.2699,-1.2131,-1.114,-1.0566,-0.9943,-0.891,-0.8623,-0.8617,-0.8787,-0.8869,-0.9145,-0.9884,-1.0071,-1.0615,-1.2028,-1.267,-1.3498,-1.4838,-1.548,-1.6064,-1.673,-1.699,-1.7112,-1.7112,-1.7112,-1.7112,-1.7112,-1.7112,-1.7112,-1.7112,-1.7112,-1.7112,-1.7112,-1.7112,-1.7112,-1.7112,-1.7112,-1.7112,-1.7112,-1.7112,-1.7112,-1.7112,-1.7112,-1.7112,-1.7112,-1.7112,-1.7112,-1.7112,-1.7112,-1.7112,-1.7112,-1.7112,-1.7112,-1.7112,-1.7112,-1.7112,-1.7112,-1.7112,-1.7112,-1.7104,-1.7047,-1.695,-1.6725,-1.6633,-1.6446,-1.6259,-1.6089,-1.5966,-1.5966,-1.5966,-1.5966,-1.5966,-1.5966,-1.5966,-1.5966,-1.5966,-1.5966,-1.5966,-1.5966,-1.5966,-1.5966,-1.5966,-1.5966,-1.5883,-1.5628,-1.5546,-1.5451,-1.5203,-1.487,-1.4433,-1.4143,-1.4043,-1.406,-1.4278,-1.4299,-1.4299,-1.4299,-1.4299,-1.4299,-1.4299,-1.4299,-1.4299,-1.4299,-1.4299,-1.4299,-1.4299,-1.4299,-1.4299,-1.1753,-1.2291,-1.2788,-1.2625,-1.2215,-1.1681,-1.0979,-1.0342,-0.9688,-0.8863,-0.8623,-0.8617,-0.8787,-0.8966,-0.921,-0.9575,-1.0225,-1.0997,-1.1906,-1.28,-1.3636,-1.4359,-1.4919,-1.5463,-1.5925,-1.6698,-1.7112,-1.7112,-1.7112,-1.7112,-1.7112,-1.7112,-1.7112,-1.7112,-1.7112,-1.7112,-1.7112,-1.7112,-1.7112,-1.7112,-1.7112,-1.7112,-1.7112,-1.7112,-1.7112,-1.7112,-1.7112,-1.7112,-1.7112,-1.7112,-1.7112,-1.7112,-1.7112,-1.7112,-1.7112,-1.7112,-1.7112,-1.7112,-1.7112,-1.7112,-1.7112,-1.7112,-1.7112,-1.708,-1.6822,-1.6766,-1.6725,-1.6633,-1.6446,-1.6259,-1.6089,-1.5966,-1.5966,-1.5966,-1.5966,-1.5966,-1.5966,-1.5966,-1.5966,-1.5966,-1.5966,-1.5966,-1.5966,-1.5966,-1.5966,-1.5966,-1.5966,-1.5966,-1.5966,-1.5966,-1.5948,-1.5714,-1.573,-1.5447,-1.4829,-1.4622,-1.4405,-1.4278,-1.4299,-1.4299,-1.4299,-1.4299,-1.4299,-1.4299,-1.4299,-1.4299,-1.4299,-1.4299,-1.4299,-1.4299,-1.4299,-1.4299,-1.0442,-1.0875,-1.1361,-1.1185,-1.1003,-1.0726,-1.0452,-1.0012,-0.9502,-0.8876,-0.8678,-0.8617,-0.8787,-0.8771,-0.9088,-1.0176,-1.0444,-1.0875,-1.189,-1.2808,-1.3636,-1.4343,-1.5666,-1.6584,-1.6755,-1.6982,-1.7112,-1.7112,-1.7112,-1.7112,-1.7112,-1.7112,-1.7112,-1.7112,-1.7112,-1.7112,-1.7112,-1.7112,-1.7112,-1.7112,-1.7112,-1.7112,-1.7112,-1.7112,-1.7112,-1.7112,-1.7112,-1.7112,-1.7112,-1.7112,-1.7112,-1.7112,-1.7112,-1.7112,-1.7112,-1.7112,-1.7112,-1.7112,-1.7112,-1.7112,-1.7112,-1.7112,-1.7112,-1.7055,-1.6755,-1.6755,-1.6701,-1.6479,-1.6267,-1.6113,-1.6064,-1.5966,-1.5966,-1.5966,-1.5966,-1.5966,-1.5966,-1.5966,-1.5966,-1.5966,-1.5966,-1.5966,-1.5966,-1.5966,-1.5966,-1.5966,-1.6146,-1.6219,-1.6219,-1.6332,-1.6394,-1.6494,-1.6406,-1.5996,-1.5349,-1.5233,-1.5039,-1.4808,-1.4822,-1.4646,-1.4299,-1.4299,-1.4299,-1.4299,-1.4299,-1.4299,-1.4299,-1.4299,-1.4299,-1.4299,-1.4299,-1.4299,-0.9571,-1.0084,-1.0574,-1.0501,-1.0311,-1.0168,-1.0088,-0.973,-0.9315,-0.8901,-0.8682,-0.8645,-0.8706,-0.869,-0.8974,-0.9933,-1.0225,-1.068,-1.1687,-1.2605,-1.353,-1.4513,-1.5861,-1.673,-1.6803,-1.699,-1.7112,-1.7112,-1.7112,-1.7112,-1.7112,-1.7112,-1.7112,-1.7112,-1.7112,-1.7112,-1.7112,-1.7112,-1.7112,-1.7112,-1.7112,-1.7112,-1.7112,-1.7112,-1.7112,-1.7112,-1.7112,-1.7112,0.0,-1.7112,-1.7112,-1.7112,-1.7112,-1.7112,-1.7112,-1.7112,-1.7112,-1.7112,-1.7112,-1.7112,-1.7112,-1.7112,-1.7023,-1.6868,-1.6649,-1.6609,-1.6584,-1.6292,-1.6178,-1.6129,-1.5982,-1.5966,-1.5966,-1.5966,-1.5966,-1.5966,-1.5966,-1.5966,-1.5966,-1.5966,-1.6097,-1.6121,-1.5974,-1.6154,-1.6227,-1.6154,-1.6292,-1.6405,-1.6405,-1.6511,-1.6649,-1.675,-1.6747,-1.6497,-1.6143,-1.5836,-1.5613,-1.5249,-1.5264,-1.5087,-1.4557,-1.4557,-1.4476,-1.4299,-1.4299,-1.4299,-1.4299,-1.4299,-1.4299,-1.4299,-1.4299,-1.4299,0.0,-0.9717,-1.0231,-1.0208,-0.9977,-0.9766,-0.9785,-0.938,0.0,-0.8804,-0.8649,-0.8604,-0.8661,-0.8731,-0.8917,-0.9218,-0.9811,-1.0558,-1.1468,-1.241,-1.3522,-1.4911,-1.5699,-1.6186,-1.6349,-1.6812,-1.7112,-1.7112,-1.7112,-1.7112,-1.7112,-1.7112,-1.7112,-1.7112,-1.7112,-1.7112,-1.7112,-1.7112,-1.7112,-1.7112,-1.7112,-1.7112,-1.7112,-1.7112,-1.7112,-1.7112,-1.7112,-1.7112,-1.7112,-1.7112,-1.7112,-1.7112,-1.7112,-1.7112,-1.7112,-1.7112,-1.7112,-1.7112,-1.7112,-1.7112,-1.7112,-1.7096,-1.686,-1.6576,-1.6568,-1.643,-1.6251,-1.6089,-1.6162,-1.6251,-1.6089,-1.5966,-1.5966,-1.5966,-1.5966,-1.5966,-1.5966,-1.5966,-1.5966,-1.5966,-1.6178,-1.6235,-1.599,-1.6332,-1.6503,-1.6332,-1.647,-1.66,-1.66,-1.6609,-1.6682,-1.6766,-1.6782,-1.6933,-1.7096,-1.6522,-1.6063,-1.5785,-1.5793,-1.5528,-1.508,-1.508,-1.4822,-1.4387,-1.4299,-1.4299,-1.4299,-1.4299,-1.4299,-1.4299,-1.4299,-1.4299,-0.8038,0.0,-0.8637,-0.8419,-0.835,-0.838,0.0,-0.8463,-0.843,-0.8243,-0.8284,-0.8519,-0.9118,-0.8982,-0.9283,-1.0704,-1.0956,-1.1338,-1.2377,-1.3766,-1.5057,-1.6081,-1.6592,-1.6877,-1.6917,-1.7039,-1.7112,-1.7112,-1.7112,-1.7112,-1.7112,-1.7112,-1.7112,-1.7112,-1.7112,-1.7112,-1.7112,-1.7112,-1.7112,-1.7112,-1.7112,-1.7112,-1.7112,-1.7112,-1.7112,-1.7112,-1.7112,-1.7112,-1.7112,-1.7112,-1.7112,-1.7112,-1.7112,-1.7112,-1.7112,-1.7112,-1.7112,-1.7112,-1.7112,-1.7112,-1.7088,-1.6958,-1.6763,-1.6552,-1.6414,-1.6243,-1.6097,-1.5974,-1.599,-1.6097,-1.5974,-1.5966,-1.5966,-1.5966,-1.5966,-1.5966,-1.5966,-1.5966,-1.5966,-1.5966,-1.6081,-1.6097,-1.5974,-1.6227,-1.6357,-1.6308,-1.6584,-1.6787,-1.6787,-1.6901,-1.6998,-1.7047,-1.7047,-1.7063,-1.7104,-1.6984,-1.6713,-1.6225,-1.6225,-1.6049,-1.5528,-1.5528,-1.5352,-1.4822,-1.4476,-1.4299,-1.4299,-1.4299,-1.4299,-1.4299,-1.4299,-1.4299,-0.7605,-0.8106,-0.8575,-0.8384,-0.8416,-0.848,-0.8633,-0.8455,-0.8284,-0.8268,-0.8349,-0.856,-0.9023,-0.9153,-0.9559,-1.0704,-1.1216,-1.1963,-1.3368,-1.4676,-1.5756,-1.6495,-1.6893,-1.7112,-1.7112,-1.7112,-1.7112,-1.7112,-1.7112,-1.7112,-1.7112,-1.7112,-1.7112,-1.7112,-1.7112,-1.7112,-1.7112,-1.7112,-1.7112,-1.7112,-1.7112,-1.7112,-1.7112,-1.7112,-1.7112,-1.7112,-1.7112,-1.7112,-1.7112,-1.7112,-1.7112,-1.7112,-1.7112,-1.7112,-1.7112,-1.7112,-1.7112,-1.7184,-1.7878,-1.864,-1.9228,-1.9126,-1.895,-1.868,-1.7746,-1.733,-1.7009,-1.6205,-1.5966,-1.5966,-1.5966,-1.6607,-1.7173,-1.7173,-1.7828,-1.8146,-1.7337,-1.7173,-1.6936,-1.6122,-1.6113,-1.6162,-1.6162,-1.6381,-1.6552,-1.6552,-1.6795,-1.6974,-1.6974,-1.7055,-1.7112,-1.7112,-1.7112,-1.7112,-1.7112,-1.7112,-1.7024,-1.6753,-1.6753,-1.6489,-1.6049,-1.6049,-1.5785,-1.5352,-1.4822,-1.4646,-1.4646,-1.4387,-1.4299,-1.4299,-1.4299,-1.4299,-0.7529,-0.8373,-0.9137,-0.8974,-0.9015,-0.912,-0.9257,-0.8808,-0.8381,-0.858,-0.8629,-0.8698,-0.9007,-0.9389,-0.9925,-1.0444,-1.1411,-1.2686,-1.4359,-1.5301,-1.6016,-1.656,-1.6909,-1.7112,-1.7112,-1.7112,-1.7112,-1.7112,-1.7112,-1.7112,-1.7112,-1.7112,-1.7112,-1.7112,-1.7112,-1.7112,-1.7112,-1.7112,-1.7112,-1.7112,-1.7112,-1.7112,-1.7112,-1.7112,-1.7112,-1.7112,-1.7112,-1.7112,-1.7112,-1.7112,-1.7112,-1.7112,-1.7112,-1.7112,-1.7112,-1.7112,-1.7279,-1.778,-1.9293,-2.0692,-2.1755,-2.1723,-2.1656,-2.1249,-1.9726,-1.9096,-1.8708,-1.7173,-1.6607,-1.6451,-1.6689,-1.7901,-1.9024,-1.9024,-2.016,-2.0818,-1.9359,-1.9024,-1.8545,-1.71,-1.6734,-1.6668,-1.6668,-1.6713,-1.6693,-1.6717,-1.6958,-1.708,-1.7104,-1.7112,-1.7112,-1.7112,-1.7112,-1.7112,-1.7112,-1.7112,-1.7112,-1.7112,-1.7112,-1.6936,-1.6489,-1.6401,-1.6225,-1.5793,-1.5352,-1.508,-1.5087,-1.4646,-1.4387,-1.4387,-1.4299,-1.4299,-0.7951,-0.8844,-0.9324,-0.8406,-0.8641,-0.9023,-0.8792,-0.8645,-0.858,-0.8604,-0.8682,-0.9072,-0.9962,-1.0205,-1.0729,-1.1987,-1.297,-1.3993,-1.5179,-1.5731,-1.6202,-1.6747,-1.699,-1.7112,-1.7112,-1.7112,-1.7112,-1.7112,-1.7112,-1.7112,-1.7112,-1.7112,-1.7112,-1.7112,-1.7112,-1.7112,-1.7112,-1.7112,-1.7112,-1.7112,-1.7112,-1.7112,-1.7112,-1.7112,-1.7112,-1.7112,-1.7112,-1.7112,-1.7112,-1.7112,-1.7112,-1.7112,-1.7112,-1.7112,-1.7112,-1.7112,-1.8147,-1.9671,-2.1255,-2.1779,-2.1806,-2.1624,-2.1527,-2.1381,-2.1015,-2.0839,-2.0727,-2.0494,-1.9359,-1.8545,-2.0008,-2.0575,-2.0818,-2.0818,-2.098,-2.1141,-2.0888,-2.0818,-2.0727,-2.0494,-1.9215,-1.8265,-1.8265,-1.7233,-1.6438,-1.66,-1.6779,-1.6942,-1.7088,-1.7112,-1.7112,-1.7112,-1.7112,-1.7112,-1.7112,-1.7112,-1.7112,-1.7112,-1.7112,-1.7112,-1.7024,-1.6577,-1.6401,-1.6313,-1.5793,-1.5616,-1.5616,-1.5087,-1.4911,-1.4911,-1.4476,-1.4299,-0.7553,-0.8819,-0.9813,-0.8947,-0.9494,-1.0201,-1.0038,-0.9778,-0.96,-0.9697,-0.9778,-1.0014,-1.0615,-1.1037,-1.2062,-1.4464,-1.5275,-1.6238,-1.8045,-1.7909,-1.8126,-1.9438,-1.9847,-1.97,-1.875,-1.8575,-1.8575,-1.8575,-1.763,-1.7543,-1.8575,-1.763,-1.7112,-1.7112,-1.7112,-1.7112,-1.7112,-1.7112,-1.7112,-1.7112,-1.7112,-1.7112,-1.7112,-1.7112,-1.7112,-1.7112,-1.7112,-1.7112,-1.7112,-1.7112,-1.7055,-1.7069,-1.8191,-1.8452,-1.8361,-1.9286,-2.0732,-2.2292,-2.3015,-2.3728,-2.4304,-2.4195,-2.4158,-2.3973,-2.2958,-2.2591,-2.2591,-2.2591,-2.1383,-2.016,-2.098,-2.1867,-2.2591,-2.2591,-2.3324,-2.3724,-2.2843,-2.2591,-2.235,-2.1383,-2.0565,-2.0039,-2.0171,-1.9624,-1.9218,-1.9542,-1.9676,-1.9809,-2.0019,-1.9186,-1.8575,-1.8575,-1.7718,-1.7112,-1.7112,-1.7112,-1.7112,-1.7112,-1.7112,-1.7112,-1.7112,-1.6928,-1.6753,-1.6753,-1.6313,-1.6049,-1.6049,-1.5616,-1.5352,-1.5352,-1.4911,-1.4646,-0.7314,-0.8968,-1.0522,-1.0049,-1.0836,-1.1699,-1.175,-1.1346,-1.1113,-1.1886,-1.1759,-1.1668,-1.2157,-1.289,-1.4315,-1.7001,-1.7659,-1.8581,-2.0583,-2.018,-2.0176,-2.1734,-2.216,-2.1861,-2.0498,-2.0326,-2.0326,-2.0326,-1.904,-1.8894,-2.0394,-1.9113,-1.8357,-1.8401,-1.841,-1.841,-1.841,-1.8366,-1.7929,-1.7112,-1.7543,-1.7543,-1.7112,-1.7972,-1.8147,-1.7805,-1.8235,-1.8383,-1.8252,-1.8252,-1.8139,-1.8154,-1.9752,-2.0131,-2.0017,-2.1755,-2.3187,-2.419,-2.4608,-2.5494,-2.6386,-2.6386,-2.6386,-2.6149,-2.4786,-2.4375,-2.4375,-2.4375,-2.3484,-2.243,-2.243,-2.3404,-2.4375,-2.4375,-2.5422,-2.607,-2.4694,-2.4375,-2.3976,-2.2671,-2.2108,-2.1853,-2.2041,-2.1665,-2.1559,-2.1967,-2.2074,-2.2192,-2.2514,-2.1384,-2.0558,-2.0558,-1.8837,-1.7543,-1.7112,-1.7112,-1.7112,-1.7112,-1.7112,-1.7112,-1.7112,-1.7112,-1.7112,-1.7112,-1.6753,-1.6577,-1.6577,-1.6057,-1.5881,-1.5881,-1.5352,-1.508,-0.7882,-0.9606,-1.1359,-1.1491,-1.2329,-1.3193,-1.3441,-1.2928,-1.3021,-1.5391,-1.4929,-1.4418,-1.5696,-1.6883,-1.801,-1.9032,-1.9832,-2.0526,-2.1323,-2.1392,-2.1416,-2.1734,-2.1871,-2.1808,-2.1641,-2.1641,-2.1641,-2.1641,-2.1557,-2.1652,-2.2033,-2.1874,-2.1969,-2.218,-2.2191,-2.2191,-2.2191,-2.198,-2.0277,-1.7112,-1.8837,-1.875,-1.72,-2.0645,-2.1251,-1.9786,-2.1501,-2.2075,-2.1789,-2.1789,-2.1652,-2.1452,-2.163,-2.162,-2.1838,-2.3679,-2.4256,-2.4365,-2.5996,-2.6547,-2.6386,-2.6386,-2.6386,-2.6386,-2.6228,-2.6228,-2.6228,-2.6228,-2.6149,-2.607,-2.607,-2.6149,-2.6228,-2.6228,-2.6307,-2.6386,-2.6228,-2.6228,-2.6149,-2.607,-2.4694,-2.3656,-2.36,-2.2303,-2.133,-2.1517,-2.1731,-2.204,-2.2182,-2.2321,-2.2449,-2.2449,-2.0819,-1.9012,-1.7288,-1.7112,-1.7112,-1.7112,-1.7112,-1.7112,-1.7112,-1.7112,-1.7112,-1.7112,-1.7112,-1.7024,-1.7024,-1.6577,-1.6313,-1.6313,-1.5881,-1.544,-0.8889,-1.0799,-1.2608,-1.2342,-1.4389,-1.6277,-1.5253,-1.5288,-1.5909,-1.7238,-1.7281,-1.7145,-1.7391,-1.8744,-2.0017,-2.0584,-2.1262,-2.2353,-2.4019,-2.3675,-2.3587,-2.4743,-2.5067,-2.4754,-2.3584,-2.3501,-2.3501,-2.3501,-2.2422,-2.2299,-2.3557,-2.2554,-2.201,-2.2106,-2.2106,-2.2106,-2.2106,-2.2021,-2.1263,-1.9997,-2.0752,-2.0677,-2.0082,-2.143,-2.1768,-2.1091,-2.1768,-2.2053,-2.1967,-2.1967,-2.1838,-2.1696,-2.2701,-2.3796,-2.4988,-2.5473,-2.5587,-2.5657,-2.6308,-2.648,-2.6386,-2.6386,-2.6386,-2.6386,-2.6386,-2.6386,-2.6386,-2.6386,-2.6386,-2.6386,-2.6386,-2.6386,-2.6386,-2.6386,-2.6386,-2.6386,-2.6386,-2.6386,-2.6386,-2.6386,-2.5898,-2.5422,-2.5422,-2.4853,-2.4541,-2.4733,-2.5087,-2.536,-2.562,-2.4877,-2.4349,-2.4349,-2.2708,-2.0819,-1.9012,-1.8837,-1.8322,-1.72,-1.7112,-1.7112,-1.7112,-1.7112,-1.7112,-1.7112,-1.7112,-1.7112,-1.7112,-1.6936,-1.6841,-1.6841,-1.6313,-1.6049,-0.9875,-1.1909,-1.3885,-1.3582,-1.6039,-1.8333,-1.7623,-1.7701,-1.8305,-1.9575,-1.9864,-1.9864,-1.9795,-2.0695,-2.1672,-2.2253,-2.2967,-2.4061,-2.5723,-2.533,-2.5304,-2.652,-2.6867,-2.6488,-2.5244,-2.5082,-2.5082,-2.5082,-2.3926,-2.3798,-2.5124,-2.4057,-2.3503,-2.375,-2.3762,-2.3762,-2.3762,-2.368,-2.3551,-2.3386,-2.3387,-2.2857,-2.1838,-2.3004,-2.3181,-2.2671,-2.3264,-2.3467,-2.3386,-2.3386,-2.3247,-2.3167,-2.4209,-2.5458,-2.6653,-2.6466,-2.6386,-2.6386,-2.6386,-2.6386,-2.6386,-2.6386,-2.6386,-2.6386,-2.6386,-2.6386,-2.6386,-2.6386,-2.6386,-2.6386,-2.6386,-2.6386,-2.6386,-2.6386,-2.6386,-2.6386,-2.6386,-2.6386,-2.6386,-2.6386,-2.6386,-2.6386,-2.6386,-2.6386,-2.6453,-2.6653,-2.6934,-2.7228,-2.7522,-2.6704,-2.5967,-2.5458,-2.4263,-2.2708,-2.0905,-2.0732,-2.0211,-1.8925,-1.8322,-1.7718,-1.7112,-1.7112,-1.7112,-1.7112,-1.7112,-1.7112,-1.7112,-1.7112,-1.7112,-1.7112,-1.6753,-1.6577,-1.069,-1.2733,-1.5074,-1.5432,-1.7027,-1.8971,-2.0722,-2.0104,-1.9947,-2.274,-2.2859,-2.2619,-2.322,-2.3086,-2.3166,-2.4062,-2.493,-2.5611,-2.5905,-2.6199,-2.6386,-2.6386,-2.6386,-2.6386,-2.6386,-2.6386,-2.6386,-2.6386,-2.6386,-2.6507,-2.68,-2.6814,-2.7122,-2.7907,-2.7921,-2.7921,-2.7921,-2.762,-2.7229,-2.6814,-2.693,-2.5211,-2.2005,-2.5672,-2.6259,-2.4576,-2.6505,-2.7094,-2.6814,-2.6814,-2.6653,-2.6386,-2.6386,-2.6386,-2.6386,-2.6386,-2.6386,-2.6386,-2.6386,-2.6386,-2.6386,-2.6386,-2.6386,-2.6386,-2.6386,-2.6386,-2.6386,-2.6386,-2.6386,-2.6386,-2.6386,-2.6386,-2.6386,-2.6386,-2.6386,-2.6386,-2.6386,-2.6386,-2.6386,-2.6386,-2.6386,-2.6386,-2.6386,-2.6386,-2.6386,-2.6386,-2.664,-2.6934,-2.7228,-2.7522,-2.7135,-2.5604,-2.5373,-2.4691,-2.2794,-2.2622,-2.2622,-2.2622,-2.0905,-1.9099,-1.72,-1.7112,-1.7112,-1.7112,-1.7112,-1.7112,-1.7112,-1.7112,-1.7112,-1.7112,-1.7112,-1.6841,-1.2222,-1.3783,-1.5758,-1.6515,-1.8364,-2.0267,-2.1203,-2.1635,-2.2245,-2.3851,-2.3941,-2.3674,-2.3647,-2.3567,-2.3594,-2.3861,-2.4462,-2.4997,-2.5304,-2.5585,-2.5772,-2.5772,-2.5772,-2.5772,-2.5772,-2.6003,-2.6175,-2.6144,-2.6625,-2.6983,-2.6903,-2.722,-2.742,-2.7675,-2.7675,-2.7675,-2.7675,-2.7578,-2.7537,-2.7378,-2.7361,-2.6612,-2.5092,-2.648,-2.664,-2.5827,-2.64,-2.66,-2.652,-2.652,-2.6466,-2.6386,-2.6386,-2.6386,-2.6386,-2.6386,-2.6386,-2.6386,-2.6386,-2.6386,-2.6386,-2.6386,-2.6386,-2.6386,-2.6386,-2.6386,-2.6386,-2.6386,-2.6386,-2.6386,-2.6386,-2.6386,-2.6386,-2.6386,-2.6386,-2.6386,-2.6386,-2.6386,-2.6386,-2.6386,-2.6386,-2.6386,-2.6386,-2.6386,-2.6386,-2.6386,-2.664,-2.6934,-2.7228,-2.7709,-2.7795,-2.7077,-2.7246,-2.6588,-2.4691,-2.4605,-2.3995,-2.2708,-2.2105,-2.0992,-1.9186,-1.7805,-1.7112,-1.7112,-1.7112,-1.7112,-1.7112,-1.7112,-1.7112,-1.7112,-1.7112,-1.7024,-1.3828,-1.5217,-1.682,-1.8063,-1.9533,-2.0949,-2.2017,-2.2752,-2.3487,-2.4436,-2.4315,-2.4048,-2.4102,-2.3928,-2.3848,-2.4075,-2.4502,-2.4877,-2.505,-2.5331,-2.5518,-2.5518,-2.5671,-2.5747,-2.5747,-2.6129,-2.635,-2.6298,-2.6696,-2.7011,-2.6882,-2.7114,-2.7347,-2.7502,-2.7502,-2.7502,-2.7502,-2.7502,-2.7424,-2.7269,-2.7424,-2.7184,-2.6683,-2.6884,-2.6874,-2.6623,-2.6465,-2.6465,-2.6623,-2.6465,-2.6386,-2.6386,-2.6386,-2.6386,-2.6373,-2.6266,-2.6293,-2.636,-2.6119,-2.6199,-2.6373,-2.6253,-2.6293,-2.6386,-2.6386,-2.6386,-2.6386,-2.6386,-2.6386,-2.6386,-2.6386,-2.6386,-2.6386,-2.6386,-2.6386,-2.6386,-2.6386,-2.6386,-2.6386,-2.6386,-2.6386,-2.6386,-2.6386,-2.6386,-2.6386,-2.6386,-2.664,-2.6894,-2.7068,-2.7509,-2.7805,-2.7549,-2.7789,-2.753,-2.6424,-2.644,-2.6066,-2.4861,-2.4081,-2.3223,-2.2105,-1.9613,-1.8235,-1.8235,-1.7455,-1.7112,-1.7112,-1.7112,-1.7112,-1.7112,-1.7112,-1.7112,-1.5257,-1.6607,-1.7969,-1.9786,-2.0561,-2.1309,-2.2953,-2.3541,-2.3888,-2.4436,-2.4155,-2.3968,-2.4502,-2.4195,-2.4022,-2.4556,-2.4863,-2.5112,-2.5037,-2.534,-2.5501,-2.5514,-2.5818,-2.6047,-2.6047,-2.6412,-2.664,-2.6668,-2.6757,-2.6757,-2.6785,-2.6785,-2.6951,-2.733,-2.733,-2.733,-2.733,-2.733,-2.7179,-2.6785,-2.7179,-2.7335,-2.7235,-2.7153,-2.7069,-2.6991,-2.6662,-2.6648,-2.6936,-2.6542,-2.6464,-2.6385,-2.6385,-2.6385,-2.6358,-2.609,-2.6079,-2.6226,-2.5705,-2.5865,-2.6266,-2.5999,-2.6106,-2.6346,-2.6346,-2.6346,-2.6346,-2.6346,-2.6333,-2.6319,-2.6346,-2.6346,-2.636,-2.6386,-2.6386,-2.6386,-2.6386,-2.6386,-2.6386,-2.6386,-2.6386,-2.6386,-2.6386,-2.6386,-2.6386,-2.6386,-2.664,-2.6814,-2.6787,-2.7068,-2.7255,-2.7228,-2.7482,-2.7669,-2.7696,-2.7923,-2.8154,-2.8181,-2.655,-2.5604,-2.5604,-2.2094,-2.0134,-2.0134,-1.8497,-1.7543,-1.7367,-1.7367,-1.7279,-1.7112,-1.7112,-1.7112,-1.4532,-1.5992,-1.7782,-1.9733,-2.1323,-2.2687,-2.3583,-2.3577,-2.3527,-2.3875,-2.4035,-2.4155,-2.4275,-2.4382,-2.4489,-2.4609,-2.4911,-2.51,-2.473,-2.5302,-2.5626,-2.5269,-2.564,-2.5848,-2.5848,-2.6217,-2.639,-2.6332,-2.6958,-2.7312,-2.7164,-2.7481,-2.7723,-2.7798,-2.7798,-2.7798,-2.7798,-2.7798,-2.7723,-2.7647,-2.7723,-2.7752,-2.7763,-2.7697,-2.7438,-2.7128,-2.7051,-2.6912,-2.6766,-2.669,-2.6613,-2.6613,-2.632,-2.6167,-2.6076,-2.5792,-2.5651,-2.5678,-2.5558,-2.5598,-2.5692,-2.5625,-2.5812,-2.613,-2.613,-2.613,-2.613,-2.613,-2.5879,-2.5758,-2.5985,-2.613,-2.6106,-2.6333,-2.6386,-2.6386,-2.6386,-2.6386,-2.6386,-2.6386,-2.6386,-2.6386,-2.6386,-2.6386,-2.6386,-2.6386,-2.664,-2.6734,-2.6507,-2.6934,-2.7175,-2.6947,-2.7188,-2.7455,-2.7682,-2.7549,-2.7549,-2.7776,-2.7456,-2.7192,-2.7192,-2.3892,-2.2019,-2.2019,-2.1587,-2.0732,-1.9273,-1.9273,-1.8584,-1.7112,-1.7112,-1.7112,-1.468,-1.6462,-1.8564,-2.0971,-2.2394,-2.3337,-2.3845,-2.3791,-2.3707,-2.3858,-2.4113,-2.4282,-2.4282,-2.4332,-2.4499,-2.4643,-2.4716,-2.4729,-2.4716,-2.5063,-2.5208,-2.5005,-2.5352,-2.571,-2.5852,-2.6243,-2.6518,-2.6614,-2.7011,-2.7246,-2.7184,-2.7347,-2.7495,-2.7495,-2.7495,-2.7495,-2.7495,-2.7495,-2.7495,-2.7495,-2.7495,-2.7569,-2.773,-2.7597,-2.7421,-2.7268,-2.7038,-2.694,-2.6951,-2.6785,-2.671,-2.671,-2.6496,-2.642,-2.633,-2.5813,-2.5702,-2.5707,-2.5273,-2.5277,-2.5491,-2.5344,-2.5504,-2.5745,-2.5745,-2.5745,-2.5745,-2.5745,-2.5625,-2.5545,-2.5705,-2.5745,-2.5785,-2.5932,-2.6186,-2.6386,-2.6386,-2.6386,-2.6386,-2.6386,-2.6386,-2.6386,-2.6386,-2.6386,-2.6386,-2.6386,-2.652,-2.656,-2.6413,-2.6653,-2.6787,-2.6627,-2.6881,-2.7121,-2.7268,-2.7268,-2.7335,-2.7482,-2.7495,-2.7495,-2.7495,-2.5899,-2.4731,-2.3995,-2.3052,-2.2105,-2.1165,-2.1165,-2.0211,-1.841,-1.841,-1.7972,-1.4581,-1.6946,-1.9514,-2.2132,-2.3098,-2.3476,-2.3877,-2.3865,-2.3879,-2.4003,-2.4178,-2.4325,-2.4325,-2.4366,-2.4465,-2.472,-2.4607,-2.4536,-2.4791,-2.4932,-2.5003,-2.4932,-2.5229,-2.5611,-2.5884,-2.6199,-2.653,-2.6808,-2.6822,-2.6822,-2.6822,-2.6822,-2.6822,-2.6822,-2.6881,-2.691,-2.691,-2.6969,-2.6983,-2.6983,-2.6983,-2.713,-2.7408,-2.7283,-2.7277,-2.7334,-2.6942,-2.6989,-2.7248,-2.6857,-2.6782,-2.6706,-2.6706,-2.6631,-2.6603,-2.5916,-2.5834,-2.5896,-2.5107,-2.5106,-2.5545,-2.5302,-2.5424,-2.559,-2.5514,-2.559,-2.559,-2.5438,-2.5398,-2.5447,-2.5424,-2.5438,-2.5451,-2.5504,-2.5879,-2.6253,-2.6306,-2.636,-2.6386,-2.6386,-2.6386,-2.6386,-2.6386,-2.6386,-2.6386,-2.6386,-2.6386,-2.6386,-2.6386,-2.6386,-2.6386,-2.6386,-2.66,-2.6774,-2.6814,-2.7001,-2.7134,-2.7188,-2.7188,-2.7188,-2.7188,-2.7468,-2.7083,-2.5822,-2.4326,-2.3395,-2.3052,-2.3052,-2.2105,-2.0385,-2.0047,-1.9099,-1.2797,-1.5828,-1.9209,-2.1273,-2.2404,-2.3164,-2.3468,-2.3351,-2.329,-2.3904,-2.4186,-2.4414,-2.4414,-2.4553,-2.472,-2.4791,-2.5017,-2.5158,-2.4862,-2.537,-2.5736,-2.537,-2.5651,-2.5962,-2.6006,-2.6006,-2.6105,-2.6149,-2.6149,-2.6149,-2.6149,-2.6149,-2.6149,-2.6149,-2.6427,-2.6574,-2.6574,-2.6852,-2.6983,-2.6983,-2.6983,-2.7013,-2.7056,-2.7027,-2.7202,-2.7465,-2.7391,-2.7231,-2.7042,-2.6969,-2.6969,-2.6895,-2.6587,-2.6441,-2.6367,-2.5957,-2.581,-2.5838,-2.5681,-2.5709,-2.5764,-2.5723,-2.5917,-2.6018,-2.5732,-2.5882,-2.5943,-2.5356,-2.5181,-2.5255,-2.5152,-2.5144,-2.5197,-2.5451,-2.5571,-2.5705,-2.5959,-2.6213,-2.6386,-2.6386,-2.6386,-2.6386,-2.6386,-2.6386,-2.6386,-2.6386,-2.6386,-2.6386,-2.6386,-2.6386,-2.6386,-2.6386,-2.6426,-2.6547,-2.68,-2.6627,-2.6613,-2.6867,-2.6881,-2.6881,-2.6881,-2.7161,-2.7373,-2.7416,-2.7401,-2.6673,-2.5032,-2.5032,-2.4081,-2.2191,-2.0645,-1.9786,-1.4359,-1.6611,-1.8901,-2.1532,-2.2448,-2.2955,-2.3695,-2.3746,-2.3724,-2.3999,-2.4113,-2.4281,-2.4434,-2.4535,-2.4703,-2.4911,-2.4911,-2.4911,-2.498,-2.527,-2.5407,-2.527,-2.5407,-2.5549,-2.5725,-2.574,-2.5813,-2.6003,-2.6018,-2.6018,-2.6018,-2.6018,-2.6018,-2.6018,-2.6149,-2.6237,-2.6237,-2.6369,-2.6442,-2.6442,-2.6632,-2.672,-2.672,-2.691,-2.7071,-2.7203,-2.7203,-2.713,-2.6983,-2.6983,-2.6983,-2.6998,-2.6838,-2.6765,-2.6692,-2.6239,-2.6166,-2.6093,-2.5873,-2.58,-2.58,-2.58,-2.5884,-2.5922,-2.5505,-2.5505,-2.5566,-2.4985,-2.4817,-2.4898,-2.4796,-2.4836,-2.4863,-2.4997,-2.5144,-2.5304,-2.5438,-2.5692,-2.5945,-2.6119,-2.6146,-2.6199,-2.636,-2.6386,-2.6386,-2.6386,-2.6386,-2.6386,-2.6386,-2.6386,-2.6386,-2.6386,-2.6386,-2.644,-2.6573,-2.6466,-2.644,-2.6573,-2.6587,-2.6587,-2.6587,-2.6867,-2.7081,-2.7201,-2.7655,-2.7627,-2.6927,-2.6927,-2.5981,-2.4178,-2.3309,-2.1856,-1.4981,-1.6459,-1.777,-2.0767,-2.1832,-2.2403,-2.3384,-2.3662,-2.3764,-2.3925,-2.3954,-2.4065,-2.4367,-2.4401,-2.4468,-2.4803,-2.4602,-2.4535,-2.4803,-2.487,-2.487,-2.487,-2.487,-2.4935,-2.5257,-2.5286,-2.5418,-2.5754,-2.5769,-2.5769,-2.5769,-2.5769,-2.5769,-2.5769,-2.5857,-2.59,-2.59,-2.5974,-2.6018,-2.6018,-2.6266,-2.6383,-2.6383,-2.6632,-2.6749,-2.6749,-2.6837,-2.6866,-2.6866,-2.6778,-2.6749,-2.6749,-2.6837,-2.6866,-2.6881,-2.6663,-2.6546,-2.6546,-2.6239,-2.6093,-2.6093,-2.6093,-2.6093,-2.6019,-2.5593,-2.5593,-2.552,-2.5079,-2.5005,-2.5005,-2.4784,-2.4784,-2.471,-2.4636,-2.481,-2.501,-2.5157,-2.5358,-2.5585,-2.5798,-2.5905,-2.6026,-2.6239,-2.6333,-2.6386,-2.6386,-2.6386,-2.6386,-2.6386,-2.6386,-2.6386,-2.6386,-2.6386,-2.6386,-2.6386,-2.6386,-2.6386,-2.6386,-2.6386,-2.6386,-2.6386,-2.66,-2.6747,-2.6827,-2.7255,-2.7629,-2.8006,-2.8006,-2.7239,-2.5868,-2.5349,-2.3761,-1.257,-1.3916,-1.5292,-1.7882,-1.9681,-2.1086,-2.2052,-2.2506,-2.2871,-2.3501,-2.3618,-2.372,-2.4071,-2.413,-2.413,-2.413,-2.413,-2.413,-2.413,-2.413,-2.413,-2.413,-2.413,-2.4262,-2.4583,-2.4613,-2.4826,-2.5149,-2.5178,-2.5178,-2.5178,-2.5178,-2.5178,-2.5178,-2.5403,-2.5549,-2.5549,-2.5857,-2.6018,-2.6018,-2.6032,-2.6047,-2.6047,-2.6061,-2.6061,-2.6091,-2.6398,-2.653,-2.65,-2.6193,-2.6061,-2.6091,-2.6413,-2.653,-2.6574,-2.6881,-2.6983,-2.6983,-2.691,-2.691,-2.691,-2.691,-2.691,-2.6838,-2.6473,-2.6619,-2.6765,-2.5946,-2.6019,-2.6107,-2.5373,-2.5152,-2.5079,-2.471,-2.4649,-2.481,-2.5371,-2.5504,-2.5518,-2.5531,-2.5758,-2.6037,-2.605,-2.6199,-2.6386,-2.6386,-2.6386,-2.6386,-2.6386,-2.6386,-2.6386,-2.6386,-2.6386,-2.6386,-2.6386,-2.6386,-2.6386,-2.6386,-2.6386,-2.6386,-2.6386,-2.64,-2.6547,-2.6814,-2.6854,-2.7014,-2.7308,-2.7308,-2.7308,-2.7144,-2.538,-2.4591,-1.2375,-1.3527,-1.4834,-1.7595,-1.9557,-2.1119,-2.217,-2.3303,-2.4343,-2.4827,-2.4511,-2.4471,-2.5746,-2.493,-2.4086,-2.4086,-2.4086,-2.4086,-2.4086,-2.4086,-2.4086,-2.4086,-2.4086,-2.413,-2.4247,-2.4262,-2.4305,-2.4423,-2.4437,-2.4525,-2.4797,-2.4811,-2.4914,-2.5119,-2.5169,-2.5227,-2.5227,-2.5344,-2.5403,-2.5403,-2.5608,-2.571,-2.571,-2.5915,-2.6018,-2.6018,-2.5915,-2.6003,-2.6179,-2.6061,-2.6018,-2.6032,-2.6149,-2.6193,-2.6237,-2.6559,-2.6676,-2.6705,-2.6925,-2.6983,-2.6983,-2.6983,-2.6983,-2.691,-2.6546,-2.6473,-2.6473,-2.5946,-2.5726,-2.5593,-2.5299,-2.5005,-2.4784,-2.4636,-2.4636,-2.469,-2.4903,-2.4943,-2.501,-2.5197,-2.5317,-2.5451,-2.5638,-2.5919,-2.6106,-2.6106,-2.6266,-2.6386,-2.6386,-2.6386,-2.6386,-2.6386,-2.6386,-2.6386,-2.6386,-2.6386,-2.6386,-2.6386,-2.6386,-2.6386,-2.6386,-2.6386,-2.644,-2.6547,-2.6547,-2.6787,-2.7268,-2.7268,-2.7268,-2.7268,-2.66,-2.5735,-1.2077,-1.2981,-1.4191,-1.7251,-1.8669,-1.9879,-2.208,-2.3277,-2.4145,-2.5082,-2.5019,-2.5245,-2.6568,-2.5853,-2.4947,-2.4517,-2.407,-2.3749,-2.3749,-2.3749,-2.3749,-2.3749,-2.3749,-2.3793,-2.391,-2.3925,-2.3969,-2.4071,-2.4086,-2.4174,-2.4393,-2.4408,-2.4554,-2.4943,-2.4958,-2.5017,-2.5119,-2.5119,-2.5119,-2.5134,-2.5271,-2.5374,-2.5374,-2.5593,-2.5696,-2.5681,-2.5461,-2.5549,-2.5842,-2.574,-2.5696,-2.571,-2.5813,-2.5857,-2.5886,-2.6222,-2.6339,-2.6369,-2.6588,-2.6735,-2.6822,-2.6822,-2.6896,-2.691,-2.6692,-2.6619,-2.6546,-2.6239,-2.6034,-2.574,-2.5446,-2.5005,-2.4636,-2.4636,-2.4636,-2.4636,-2.4636,-2.4636,-2.469,-2.489,-2.501,-2.5144,-2.5331,-2.5611,-2.5838,-2.5945,-2.6119,-2.6279,-2.6373,-2.6386,-2.6386,-2.6386,-2.6386,-2.6386,-2.6386,-2.6386,-2.6386,-2.6386,-2.6386,-2.6386,-2.6386,-2.6386,-2.6386,-2.6386,-2.6386,-2.6587,-2.6974,-2.6974,-2.6974,-2.6974,-2.6974,-2.6365,0.0,0.0,0.0,-1.6509,-1.6766,-1.7372,-2.1707,-2.2029,-2.1963,-2.3993,-2.5071,-2.5816,-2.6378,-2.6713,-2.6547,-2.5423,-2.4023,-2.3168,-2.3168,-2.3106,-2.3106,-2.3106,-2.3106,-2.3237,-2.3545,-2.3574,-2.372,-2.4027,-2.4057,-2.4057,-2.4071,-2.4071,-2.4232,-2.454,-2.4621,-2.4782,-2.5105,-2.5105,-2.5119,-2.5119,-2.5119,-2.5119,-2.5119,-2.5119,-2.5119,-2.5119,-2.5119,-2.5227,-2.5491,-2.5183,-2.5119,-2.5163,-2.5403,-2.552,-2.5549,-2.5886,-2.6003,-2.6003,-2.6018,-2.6222,-2.6486,-2.6486,-2.6705,-2.6969,-2.6969,-2.6969,-2.6983,-2.6983,-2.6983,-2.6765,-2.6019,-2.5212,-2.4636,-2.4636,-2.4636,-2.4636,-2.4636,-2.4636,-2.4636,-2.4636,-2.4863,-2.5064,-2.5064,-2.5304,-2.5598,-2.5892,-2.6023,-2.6052,-2.6333,-2.6386,-2.6386,-2.6386,-2.6386,-2.6386,-2.6386,-2.6386,-2.6386,-2.6386,-2.6386,-2.6386,-2.6386,-2.6386,-2.6386,-2.6386,-2.6386,-2.6386,-2.6386,-2.6386,-2.6386,-2.6386,-2.6386,-2.6547,-1.1943,0.0,0.0,0.0,0.0,0.0,-1.9872,-2.0764,-2.1945,-2.4395,-2.4299,-2.4715,-2.7659,-2.6789,-2.6018,-2.7217,-2.5808,-2.4517,-2.4517,-2.3728,-2.3106,-2.3106,-2.3106,-2.3149,-2.3237,-2.3237,-2.3281,-2.3369,-2.3384,-2.3486,-2.372,-2.3954,-2.413,-2.4218,-2.4218,-2.4379,-2.4767,-2.4767,-2.4885,-2.5119,-2.5119,-2.5119,-2.5119,-2.5119,-2.5119,-2.5119,-2.5119,-2.511,-2.5183,-2.5163,-2.5119,-2.5134,-2.5154,-2.5183,-2.5227,-2.5549,-2.5666,-2.5696,-2.593,-2.6076,-2.6149,-2.6149,-2.6208,-2.6325,-2.6574,-2.6632,-2.6691,-2.6925,-2.6765,-2.6399,-2.5593,-2.5226,-2.4931,-2.4636,-2.4636,-2.4636,-2.4636,-2.4636,-2.4636,-2.4636,-2.4703,-2.4756,-2.4756,-2.501,-2.5224,-2.5304,-2.5678,-2.6063,-2.6066,-2.6266,-2.6386,-2.6386,-2.6386,-2.6386,-2.6386,-2.6386,-2.6386,-2.6386,-2.6386,-2.6386,-2.6386,-2.6386,-2.6386,-2.6386,-2.6386,-2.6386,-2.6386,-2.6386,-2.6386,-2.6386,-2.6386,-2.6547,-1.374,-1.4473,-1.5613,-1.6767,0.0,0.0,-1.9922,-2.0391,-2.1211,-2.3965,-2.424,-2.473,-2.7363,-2.6948,-2.6664,-2.8052,-2.6933,-2.5701,-2.5192,-2.4456,-2.3899,-2.3899,-2.3417,-2.3293,-2.3914,-2.3417,-2.3106,-2.3106,-2.3106,-2.3193,-2.3384,-2.3574,-2.3735,-2.3881,-2.3881,-2.4042,-2.4364,-2.4496,-2.4671,-2.4914,-2.5061,-2.5119,-2.5119,-2.5119,-2.5119,-2.5119,-2.5119,-2.5119,-2.5119,-2.5119,-2.5119,-2.5119,-2.5119,-2.5119,-2.5149,-2.5271,-2.533,-2.5359,-2.5549,-2.571,-2.5813,-2.5813,-2.59,-2.6047,-2.6237,-2.6296,-2.6369,-2.6691,-2.659,-2.6253,-2.5593,-2.5299,-2.5079,-2.471,-2.4636,-2.4636,-2.4636,-2.4636,-2.4636,-2.4636,-2.4636,-2.4636,-2.4636,-2.4783,-2.493,-2.5064,-2.5478,-2.5772,-2.5772,-2.6026,-2.6213,-2.6213,-2.6213,-2.6266,-2.6373,-2.6386,-2.6386,-2.6386,-2.6386,-2.6386,-2.6386,-2.6386,-2.6386,-2.6386,-2.6386,-2.6386,-2.6386,-2.6386,-2.6386,-2.6386,-2.6386,-2.648,-1.6268,-1.6573,0.0,-1.8821,-1.8223,0.0,-2.0762,-2.0254,-1.998,-2.2656,-2.3789,-2.4656,-2.5684,-2.6543,-2.7266,-2.7773,-2.7314,-2.6575,-2.5512,-2.525,-2.5144,-2.496,-2.407,-2.3915,-2.4947,-2.4008,-2.3293,-2.3293,-2.3293,-2.3355,-2.3542,-2.3417,-2.3488,-2.3784,-2.3608,-2.3691,-2.4027,-2.432,-2.4481,-2.4525,-2.487,-2.5031,-2.5075,-2.5075,-2.509,-2.5119,-2.5119,-2.5119,-2.5119,-2.5119,-2.5119,-2.5119,-2.5119,-2.5119,-2.5119,-2.5119,-2.5119,-2.5119,-2.5119,-2.5242,-2.5476,-2.5476,-2.5666,-2.5915,-2.5959,-2.5959,-2.6032,-2.6398,-2.6489,-2.6357,-2.5932,-2.5593,-2.5226,-2.4784,-2.4636,-2.4636,-2.4636,-2.4636,-2.4636,-2.4636,-2.4636,-2.4636,-2.4636,-2.4636,-2.473,-2.4997,-2.5277,-2.5464,-2.5464,-2.5718,-2.5905,-2.5905,-2.601,-2.6066,-2.6319,-2.6373,-2.6386,-2.6386,-2.6386,-2.6386,-2.6386,-2.6386,-2.6386,-2.6386,-2.6386,-2.6386,-2.6386,-2.6386,-2.6386,-2.6386,-2.6386,-2.6386,-1.7842,-1.8608,-1.9597,-1.8929,-1.9533,0.0,-1.8574,-1.8516,-1.889,-1.9475,-1.9512,-2.0078,-2.2344,-2.3184,-2.3887,-2.498,-2.5935,-2.6669,-2.7065,-2.6213,-2.5201,-2.4229,-2.5109,-2.5468,-2.4763,-2.4729,-2.4702,-2.4702,-2.4702,-2.5194,-2.6156,-2.5256,-2.4734,-2.4796,-2.3756,-2.3354,-2.3691,-2.3749,-2.391,-2.4174,-2.4247,-2.4408,-2.4723,-2.4723,-2.4803,-2.5119,-2.5119,-2.5119,-2.5119,-2.5119,-2.5119,-2.5119,-2.5119,-2.5119,-2.5119,-2.5119,-2.5119,-2.5119,-2.5119,-2.5163,-2.5154,-2.5154,-2.5198,-2.5286,-2.5549,-2.5622,-2.5754,-2.6339,-2.6473,-2.6431,-2.6328,-2.6253,-2.596,-2.5226,-2.5079,-2.5005,-2.4636,-2.4636,-2.4636,-2.4636,-2.4636,-2.4636,-2.4636,-2.4636,-2.4649,-2.4716,-2.497,-2.5157,-2.5157,-2.5424,-2.5598,-2.5598,-2.5812,-2.605,-2.6039,-2.6253,-2.6386,-2.6386,-2.6386,-2.6386,-2.6386,-2.6386,-2.6386,-2.6386,-2.6386,-2.6386,-2.6386,-2.6386,-2.6386,-2.6386,-2.6386,-2.6386,-1.9928,-2.0352,-2.1114,-2.041,-2.0586,0.0,0.0,-1.8929,-1.8968,-2.0274,-1.9551,-1.9316,-2.1484,-2.2051,-2.248,-2.332,-2.4746,-2.5819,-2.5988,-2.6028,-2.5835,-2.5213,-2.5479,-2.5758,-2.5758,-2.557,-2.5512,-2.5753,-2.5753,-2.6094,-2.6944,-2.6415,-2.605,-2.605,-2.5423,-2.4842,-2.4344,-2.4512,-2.4299,-2.3837,-2.4013,-2.4174,-2.432,-2.432,-2.451,-2.4885,-2.4885,-2.4973,-2.5119,-2.5119,-2.5119,-2.5119,-2.5119,-2.5119,-2.5119,-2.5119,-2.5119,-2.5119,-2.5119,-2.5119,-2.5119,-2.5119,-2.5119,-2.5163,-2.5242,-2.5403,-2.5593,-2.593,-2.6252,-2.6473,-2.6185,-2.6271,-2.6253,-2.5653,-2.5373,-2.5152,-2.4931,-2.471,-2.4636,-2.4636,-2.4636,-2.4636,-2.4636,-2.4636,-2.4636,-2.4636,-2.489,-2.5024,-2.4877,-2.5117,-2.5291,-2.5291,-2.5424,-2.5585,-2.5718,-2.5865,-2.5945,-2.5945,-2.5945,-2.5945,-2.5945,-2.6092,-2.6239,-2.6386,-2.6386,-2.6386,-2.6386,-2.6386,-2.6386,-2.6386,-2.6386,-2.6386,-2.2187,-2.2227,-2.2519,-2.2109,-2.1777,-2.1445,0.0,0.0,0.0,-2.1289,-2.0254,-1.9492,-2.0996,-2.1191,-2.1269,-2.1699,-2.3144,-2.4043,-2.3613,-2.4692,-2.5543,-2.5697,-2.5503,-2.5692,-2.6555,-2.5848,-2.5634,-2.6354,-2.614,-2.6429,-2.7481,-2.7347,-2.7297,-2.7366,-2.7142,-2.6537,-2.5501,-2.5652,-2.5297,-2.4245,-2.4517,-2.4683,-2.4743,-2.4501,-2.455,-2.4862,-2.4672,-2.4715,-2.5031,-2.5105,-2.5119,-2.5119,-2.5119,-2.5119,-2.5119,-2.5119,-2.5119,-2.5119,-2.5119,-2.5119,-2.5119,-2.5119,-2.5119,-2.5119,-2.5119,-2.5227,-2.5447,-2.552,-2.5915,-2.6254,-2.5955,-2.6142,-2.6299,-2.5935,-2.5611,-2.5373,-2.5299,-2.5079,-2.4784,-2.471,-2.471,-2.471,-2.4636,-2.4636,-2.4636,-2.4636,-2.4836,-2.4903,-2.4663,-2.485,-2.4997,-2.4997,-2.505,-2.517,-2.5411,-2.5478,-2.5518,-2.5518,-2.5518,-2.5518,-2.5518,-2.5745,-2.6012,-2.6306,-2.6306,-2.6333,-2.6386,-2.6386,-2.6386,-2.6386,-2.6386,-2.6386,0.0,0.0,0.0,0.0,-2.3809,-2.416,-2.0371,0.0,-2.045,-1.8848,0.0,-1.832,-1.887,0.0,0.0,-1.8968,-2.0195,-2.0957,-2.0488,-2.1557,-2.2593,-2.3067,-2.4982,-2.6034,-2.5454,-2.4546,-2.4677,-2.6299,-2.5306,-2.6019,-2.9141,-2.8551,-2.8319,-2.8664,-2.7607,-2.6961,-2.6779,-2.6813,-2.677,-2.6587,-2.6665,-2.685,-2.7047,-2.5894,-2.5517,-2.5814,-2.4964,-2.4583,-2.4642,-2.5002,-2.5119,-2.5119,-2.5119,-2.5119,-2.5119,-2.5119,-2.5119,-2.5119,-2.5119,-2.5119,-2.5119,-2.5119,-2.5119,-2.5119,-2.5119,-2.5149,-2.5169,-2.5447,-2.5579,-2.5641,-2.5918,-2.6239,-2.6415,-2.597,-2.6112,-2.618,-2.58,-2.5726,-2.558,-2.5226,-2.5152,-2.5005,-2.4636,-2.4636,-2.4636,-2.4636,-2.4663,-2.4676,-2.4562,-2.4663,-2.469,-2.469,-2.4917,-2.509,-2.513,-2.5371,-2.5518,-2.5518,-2.5518,-2.5518,-2.5518,-2.5545,-2.5705,-2.6077,-2.609,-2.6132,-2.6386,-2.6386,-2.6386,-2.6386,-2.6386,-2.6386,0.0,0.0,0.0,0.0,0.0,-2.3856,-2.1368,-2.0625,-2.043,-2.0293,0.0,0.0,0.0,0.0,0.0,0.0,-1.9297,-1.9512,-1.8574,-1.957,-2.0857,-2.2087,-2.3171,-2.4035,-2.4678,-2.4165,-2.4524,-2.628,-2.5396,-2.597,-2.8711,-2.8951,-2.9222,-2.9621,-2.9418,-2.8879,-2.8086,-2.8086,-2.7727,-2.7021,-2.7004,-2.7073,-2.7183,-2.6633,-2.6525,-2.681,-2.5643,-2.5252,-2.5402,-2.4959,-2.5293,-2.5973,-2.5315,-2.5119,-2.5119,-2.5119,-2.5119,-2.5119,-2.5119,-2.5119,-2.5119,-2.5119,-2.5119,-2.5119,-2.5119,-2.5119,-2.5149,-2.5213,-2.5388,-2.5564,-2.5696,-2.5974,-2.6152,-2.5995,-2.5898,-2.577,-2.5626,-2.5552,-2.5461,-2.5316,-2.5249,-2.5166,-2.5005,-2.4784,-2.4636,-2.4636,-2.4636,-2.4636,-2.4636,-2.4636,-2.4636,-2.4636,-2.4743,-2.4823,-2.4823,-2.493,-2.501,-2.501,-2.501,-2.5077,-2.5251,-2.5264,-2.5398,-2.5692,-2.5865,-2.609,-2.6132,-2.6306,-2.6386,-2.6386,-2.6386,-2.6386,-2.5134,0.0,0.0,0.0,-2.3654,-2.3311,-2.192,-2.1174,-2.0938,-2.1766,-2.0918,0.0,0.0,0.0,0.0,0.0,0.0,-1.8672,-1.7383,-1.8008,-1.9141,-2.0644,-2.1348,-2.2187,-2.3418,-2.2832,-2.3242,-2.5352,-2.4519,-2.5028,-2.7637,-2.8691,-2.9473,-3.0,-3.0586,-3.045,-2.9471,-2.9471,-2.8998,-2.8044,-2.8044,-2.8044,-2.8044,-2.7684,-2.7643,-2.7826,-2.6591,-2.6163,-2.6358,-2.5776,-2.6096,-2.6971,-2.6289,-2.6029,-2.5977,-2.5345,-2.5119,-2.5119,-2.5119,-2.5119,-2.5119,-2.5119,-2.5119,-2.5119,-2.5119,-2.5119,-2.5119,-2.5119,-2.5227,-2.5403,-2.5403,-2.5637,-2.5886,-2.5886,-2.5734,-2.5581,-2.5581,-2.5555,-2.5498,-2.5355,-2.5249,-2.5226,-2.5235,-2.4877,-2.4636,-2.4636,-2.4636,-2.4636,-2.4636,-2.4636,-2.4636,-2.4636,-2.4636,-2.4636,-2.4636,-2.4636,-2.4636,-2.4636,-2.4636,-2.473,-2.4957,-2.4957,-2.509,-2.5384,-2.5611,-2.5758,-2.5838,-2.6052,-2.6146,-2.6146,-2.6306,-2.6386,0.0,0.0,0.0,-2.3854,-2.3521,-2.331,-2.1352,-2.1928,-2.2647,0.0,0.0,0.0,0.0,0.0,0.0,0.0,0.0,0.0,0.0,-1.6765,-1.7116,-1.8027,-1.9943,-2.1229,-2.1288,-1.9805,-2.0096,-2.309,-2.1721,-2.2425,-2.625,-2.7656,-2.8711,-2.957,-3.043,-3.0898,-3.084,-3.084,-3.082,-3.0762,-3.0762,-3.0762,-3.0704,-2.9412,-2.8861,-2.8778,-2.787,-2.7429,-2.7463,-2.7792,-2.7946,-2.798,-2.8354,-2.849,-2.8219,-2.5911,-2.5119,-2.5119,-2.5119,-2.5119,-2.5119,-2.5119,-2.5119,-2.5119,-2.5119,-2.5119,-2.5119,-2.5119,-2.5134,-2.5134,-2.5134,-2.5315,-2.5549,-2.5549,-2.5714,-2.5947,-2.5947,-2.5947,-2.5892,-2.5455,-2.5398,-2.5357,-2.5296,-2.4875,-2.4636,-2.4636,-2.4636,-2.4636,-2.4636,-2.4636,-2.4636,-2.4636,-2.4636,-2.4636,-2.4636,-2.4636,-2.4636,-2.4636,-2.4636,-2.4562,-2.4649,-2.4649,-2.4796,-2.509,-2.5104,-2.5251,-2.5531,-2.5531,-2.5545,-2.5558,-2.6119,-2.6386,0.0,0.0,-2.7744,-2.5551,0.0,0.0,-2.2492,0.0,0.0,0.0,0.0,0.0,0.0,0.0,0.0,0.0,0.0,0.0,0.0,-1.5537,-1.5762,-1.6652,-1.8379,-1.926,-1.875,-1.8652,-1.9414,-2.1349,-2.0938,-2.2053,-2.5332,-2.6738,-2.7969,-2.9101,-2.998,-3.0586,-3.0879,-3.0898,-3.0898,-3.0898,-3.0898,-3.0898,-3.0898,-3.045,-3.0216,-3.0157,-2.8947,-2.8445,-2.836,-2.7895,-2.8236,-2.9028,-2.8403,-2.8748,-2.934,-2.7194,-2.6435,-2.6301,-2.539,-2.5119,-2.5119,-2.5119,-2.5119,-2.5119,-2.5119,-2.5119,-2.5119,-2.5119,-2.5119,-2.5119,-2.5119,-2.5207,-2.5213,-2.5213,-2.5301,-2.5374,-2.5374,-2.5549,-2.5626,-2.5473,-2.5437,-2.5398,-2.5371,-2.521,-2.5052,-2.4978,-2.4784,-2.4636,-2.4636,-2.4636,-2.4636,-2.4636,-2.4636,-2.4636,-2.4636,-2.4636,-2.4636,-2.4636,-2.4636,-2.4636,-2.4636,-2.4636,-2.469,-2.4783,-2.4983,-2.513,-2.5224,-2.5424,-2.5518,-2.5518,-2.5718,-2.5919,-2.8107,-2.8401,0.0,-2.6572,-2.604,0.0,-2.3385,0.0,-2.3833,0.0,0.0,0.0,0.0,0.0,0.0,0.0,0.0,0.0,0.0,-1.5271,-1.542,-1.5811,-1.709,-1.7779,-1.7422,-1.7441,-1.8281,-2.0233,-2.0059,-2.1191,-2.4219,-2.5918,-2.7305,-2.8437,-2.959,-3.043,-3.0879,-3.0898,-3.0898,-3.0898,-3.0898,-3.0898,-3.0898,-3.0898,-3.0898,-3.082,-2.9962,-2.9589,-2.9549,-2.8974,-2.9263,-3.0039,-2.9458,-2.9788,-3.0328,-2.8381,-2.7439,-2.6886,-2.5577,-2.5119,-2.5119,-2.5119,-2.5119,-2.5119,-2.5119,-2.5119,-2.5119,-2.5119,-2.5119,-2.5119,-2.5119,-2.5119,-2.5119,-2.5119,-2.5119,-2.5119,-2.5119,-2.5213,-2.5359,-2.5359,-2.5313,-2.5279,-2.5394,-2.5385,-2.5282,-2.5239,-2.5011,-2.4784,-2.4784,-2.471,-2.4636,-2.4636,-2.4636,-2.4636,-2.4636,-2.4636,-2.4636,-2.4636,-2.4636,-2.4636,-2.4636,-2.4636,-2.4636,-2.4636,-2.4823,-2.4917,-2.4917,-2.5104,-2.5197,-2.5197,-2.5197,-2.5358]},{"header":{"parameterUnit":"m.s-1","parameterCategory":1,"la1":30.6,"la2":29.2853,"lo1":-89.7004,"lo2":-87.6739,"dy":0.0162,"dx":0.0183,"nx":112,"ny":82,"refTime":"2024-09-03T00:00:00:Z","depth":0,"parameterNumber":3,"parameterNumberName":"V-component_of_WINDS"},"data":[0.0,0.0,0.0,0.0,0.0,0.0,0.0,0.0,0.0,0.0,0.0,0.0,0.0,0.0,0.0,0.0,0.0,0.0,0.0,0.0,0.0,0.0,0.0,0.0,0.0,0.0,0.0,0.0,0.0,0.0,0.0,0.0,0.0,0.0,0.0,0.0,0.0,0.0,0.0,0.0,0.0,0.0,0.0,0.0,0.0,0.0,0.0,0.0,0.0,0.0,0.0,0.0,0.0,0.0,0.0,0.0,0.0,0.0,0.0,0.0,0.0,0.0,0.0,0.0,0.0,0.0,0.0,0.0,0.0,0.0,0.0,0.0,0.0,0.0,0.0,0.0,0.0,0.0,0.0,0.0,0.0,0.0,0.0,0.0,0.0,0.0,0.0,0.0,0.0,0.0,4.8779,5.3664,5.8165,6.0781,6.0781,5.9896,5.6549,5.001,0.0,0.0,0.0,0.0,0.0,0.0,0.0,0.0,0.0,0.0,0.0,0.0,0.0,0.0,0.0,0.0,0.0,0.0,0.0,0.0,0.0,0.0,0.0,0.0,0.0,0.0,0.0,0.0,0.0,0.0,0.0,0.0,0.0,0.0,0.0,0.0,0.0,0.0,0.0,0.0,0.0,0.0,0.0,0.0,0.0,0.0,0.0,0.0,0.0,0.0,0.0,0.0,0.0,0.0,0.0,0.0,0.0,0.0,0.0,0.0,0.0,0.0,0.0,0.0,0.0,0.0,0.0,0.0,0.0,0.0,0.0,0.0,0.0,0.0,0.0,0.0,0.0,0.0,0.0,0.0,0.0,0.0,0.0,0.0,0.0,0.0,0.0,0.0,0.0,0.0,0.0,0.0,0.0,0.0,0.0,0.0,0.0,0.0,0.0,0.0,0.0,0.0,0.0,0.0,4.9894,5.7703,5.9896,6.0781,6.0781,5.9396,5.6203,5.0827,0.0,0.0,0.0,0.0,0.0,0.0,0.0,0.0,0.0,0.0,0.0,0.0,0.0,0.0,0.0,0.0,0.0,0.0,0.0,0.0,0.0,0.0,0.0,0.0,0.0,0.0,0.0,0.0,0.0,0.0,0.0,0.0,0.0,0.0,0.0,0.0,0.0,0.0,0.0,0.0,0.0,0.0,0.0,0.0,0.0,0.0,0.0,0.0,0.0,0.0,0.0,0.0,0.0,0.0,0.0,0.0,0.0,0.0,0.0,0.0,0.0,0.0,0.0,0.0,0.0,0.0,0.0,0.0,0.0,0.0,0.0,0.0,0.0,0.0,0.0,0.0,0.0,0.0,0.0,0.0,0.0,0.0,0.0,0.0,0.0,0.0,0.0,0.0,0.0,0.0,0.0,0.0,0.0,0.0,0.0,0.0,0.0,0.0,0.0,0.0,0.0,0.0,0.0,4.9394,5.2856,5.9511,6.055,6.0781,6.0781,5.9242,5.5934,5.0356,4.5547,0.0,0.0,0.0,0.0,0.0,0.0,0.0,0.0,0.0,0.0,0.0,0.0,0.0,0.0,0.0,0.0,0.0,0.0,0.0,0.0,0.0,0.0,0.0,0.0,0.0,0.0,0.0,0.0,0.0,0.0,0.0,0.0,0.0,0.0,0.0,0.0,0.0,0.0,0.0,0.0,0.0,0.0,0.0,0.0,0.0,0.0,0.0,0.0,0.0,0.0,0.0,0.0,0.0,0.0,0.0,0.0,0.0,0.0,0.0,0.0,0.0,0.0,0.0,0.0,0.0,0.0,0.0,0.0,0.0,0.0,0.0,0.0,0.0,0.0,0.0,0.0,0.0,0.0,0.0,0.0,0.0,0.0,0.0,0.0,0.0,0.0,0.0,0.0,0.0,0.0,0.0,0.0,0.0,0.0,0.0,0.0,0.0,0.0,0.0,0.0,0.0,0.0,5.4087,5.6049,6.0319,6.0781,6.0781,6.0781,5.8511,5.4895,4.974,4.3855,0.0,0.0,0.0,0.0,0.0,0.0,0.0,0.0,0.0,0.0,0.0,0.0,0.0,0.0,0.0,0.0,0.0,0.0,0.0,0.0,0.0,0.0,0.0,0.0,0.0,0.0,0.0,0.0,0.0,0.0,0.0,0.0,0.0,0.0,0.0,0.0,0.0,0.0,0.0,0.0,0.0,0.0,0.0,0.0,0.0,0.0,0.0,0.0,0.0,0.0,0.0,0.0,0.0,0.0,0.0,0.0,0.0,0.0,0.0,0.0,0.0,0.0,0.0,0.0,0.0,0.0,0.0,0.0,0.0,0.0,0.0,0.0,0.0,0.0,0.0,0.0,0.0,0.0,0.0,0.0,0.0,0.0,0.0,0.0,0.0,0.0,0.0,0.0,0.0,0.0,0.0,0.0,0.0,0.0,0.0,0.0,0.0,0.0,0.0,0.0,0.0,0.0,5.5049,5.8665,6.0589,6.0781,6.0781,6.0781,5.6357,5.2356,4.9586,4.1623,0.0,0.0,0.0,0.0,0.0,0.0,0.0,0.0,0.0,0.0,0.0,0.0,0.0,0.0,0.0,0.0,0.0,0.0,0.0,0.0,0.0,0.0,0.0,0.0,0.0,0.0,0.0,0.0,0.0,0.0,0.0,0.0,0.0,0.0,0.0,0.0,0.0,0.0,0.0,0.0,0.0,0.0,0.0,0.0,0.0,0.0,0.0,0.0,0.0,0.0,0.0,0.0,0.0,0.0,0.0,0.0,0.0,0.0,0.0,0.0,0.0,0.0,0.0,0.0,0.0,0.0,0.0,0.0,0.0,0.0,0.0,0.0,0.0,0.0,0.0,0.0,0.0,0.0,0.0,0.0,0.0,0.0,0.0,0.0,0.0,0.0,0.0,0.0,0.0,0.0,0.0,0.0,0.0,0.0,0.0,0.0,0.0,0.0,0.0,0.0,0.0,0.0,5.3741,5.7165,6.0435,6.0781,6.0781,6.0781,5.7588,5.3356,4.8163,0.0,0.0,0.0,0.0,0.0,0.0,0.0,0.0,0.0,0.0,0.0,0.0,0.0,0.0,0.0,0.0,0.0,0.0,0.0,0.0,0.0,0.0,0.0,0.0,0.0,0.0,0.0,0.0,0.0,0.0,0.0,0.0,0.0,0.0,0.0,0.0,0.0,0.0,0.0,0.0,0.0,0.0,0.0,0.0,0.0,0.0,0.0,0.0,0.0,0.0,0.0,0.0,0.0,0.0,0.0,0.0,0.0,0.0,0.0,0.0,0.0,0.0,0.0,0.0,0.0,0.0,0.0,0.0,0.0,0.0,0.0,0.0,0.0,0.0,0.0,0.0,0.0,0.0,0.0,0.0,0.0,0.0,0.0,0.0,0.0,0.0,0.0,0.0,0.0,0.0,0.0,0.0,0.0,0.0,0.0,0.0,0.0,0.0,0.0,0.0,0.0,0.0,4.9865,5.3857,5.728,6.0473,6.0781,6.0781,6.0781,5.7473,5.2933,4.7269,0.0,0.0,0.0,0.0,0.0,0.0,0.0,0.0,0.0,0.0,0.0,0.0,0.0,0.0,0.0,0.0,0.0,0.0,0.0,0.0,0.0,0.0,0.0,0.0,0.0,0.0,0.0,0.0,0.0,0.0,0.0,0.0,0.0,0.0,0.0,0.0,0.0,0.0,0.0,0.0,0.0,0.0,0.0,0.0,0.0,0.0,0.0,0.0,0.0,0.0,0.0,0.0,0.0,0.0,0.0,0.0,0.0,0.0,0.0,0.0,0.0,0.0,0.0,0.0,0.0,0.0,0.0,0.0,0.0,0.0,0.0,0.0,0.0,0.0,0.0,0.0,0.0,0.0,0.0,0.0,0.0,0.0,0.0,0.0,0.0,0.0,0.0,0.0,0.0,0.0,0.0,0.0,0.0,0.0,0.0,0.0,0.0,0.0,0.0,0.0,0.0,0.0,5.0135,5.5857,5.9819,6.0704,6.0781,6.0781,6.0781,5.5357,5.05,0.0,0.0,0.0,0.0,0.0,0.0,0.0,0.0,0.0,0.0,0.0,0.0,0.0,0.0,0.0,0.0,0.0,0.0,0.0,0.0,0.0,0.0,0.0,0.0,0.0,0.0,0.0,0.0,0.0,0.0,0.0,0.0,0.0,0.0,0.0,0.0,0.0,0.0,0.0,0.0,0.0,0.0,0.0,0.0,0.0,0.0,0.0,0.0,0.0,0.0,0.0,0.0,0.0,0.0,0.0,0.0,0.0,0.0,0.0,0.0,0.0,0.0,0.0,0.0,0.0,0.0,0.0,0.0,0.0,0.0,0.0,0.0,0.0,0.0,0.0,0.0,0.0,0.0,0.0,0.0,0.0,0.0,0.0,0.0,0.0,0.0,0.0,0.0,0.0,0.0,0.0,0.0,0.0,0.0,0.0,0.0,0.0,0.0,0.0,0.0,0.0,0.0,0.0,5.0183,5.5899,5.9903,6.0716,6.0781,6.0781,6.0781,5.6973,5.2395,4.7231,0.0,0.0,0.0,0.0,0.0,0.0,0.0,0.0,0.0,0.0,0.0,0.0,0.0,0.0,0.0,0.0,0.0,0.0,0.0,0.0,0.0,0.0,0.0,0.0,0.0,0.0,0.0,0.0,0.0,0.0,0.0,0.0,0.0,0.0,0.0,0.0,0.0,0.0,0.0,0.0,0.0,0.0,0.0,0.0,0.0,0.0,0.0,0.0,0.0,0.0,0.0,0.0,0.0,0.0,0.0,0.0,0.0,0.0,0.0,0.0,0.0,0.0,0.0,0.0,0.0,0.0,0.0,0.0,0.0,0.0,0.0,0.0,0.0,0.0,0.0,0.0,0.0,0.0,0.0,0.0,0.0,0.0,0.0,0.0,0.0,0.0,0.0,0.0,0.0,0.0,0.0,0.0,0.0,0.0,0.0,0.0,0.0,0.0,0.0,0.0,0.0,0.0,5.0239,5.6259,6.0355,6.0823,6.0888,6.0888,6.0888,5.8028,5.3897,4.8277,0.0,0.0,0.0,0.0,0.0,0.0,0.0,0.0,0.0,0.0,0.0,0.0,0.0,0.0,0.0,0.0,0.0,0.0,0.0,0.0,0.0,0.0,0.0,0.0,0.0,0.0,0.0,0.0,0.0,0.0,0.0,0.0,0.0,0.0,0.0,0.0,0.0,0.0,0.0,0.0,0.0,0.0,0.0,0.0,0.0,0.0,0.0,0.0,0.0,0.0,0.0,0.0,0.0,0.0,0.0,0.0,0.0,0.0,0.0,0.0,0.0,0.0,0.0,0.0,0.0,0.0,0.0,0.0,0.0,0.0,0.0,0.0,0.0,0.0,0.0,0.0,0.0,0.0,0.0,0.0,0.0,0.0,0.0,0.0,0.0,0.0,0.0,0.0,0.0,0.0,0.0,0.0,0.0,0.0,0.0,0.0,0.0,0.0,0.0,0.0,0.0,0.0,5.0473,5.6831,6.0997,6.0987,6.0987,6.0987,6.0987,5.868,5.5075,5.0064,0.0,0.0,0.0,0.0,0.0,0.0,0.0,0.0,0.0,0.0,0.0,0.0,0.0,0.0,0.0,0.0,0.0,0.0,0.0,0.0,0.0,0.0,0.0,0.0,0.0,0.0,0.0,0.0,0.0,0.0,0.0,0.0,0.0,0.0,0.0,0.0,0.0,0.0,0.0,0.0,0.0,0.0,0.0,0.0,0.0,0.0,0.0,0.0,0.0,0.0,0.0,0.0,0.0,0.0,0.0,0.0,0.0,0.0,0.0,0.0,4.3301,4.0686,0.0,0.0,0.0,0.0,0.0,0.0,0.0,0.0,0.0,0.0,0.0,0.0,0.0,0.0,0.0,0.0,0.0,0.0,0.0,0.0,0.0,0.0,0.0,0.0,0.0,0.0,0.0,0.0,0.0,0.0,0.0,0.0,0.0,0.0,0.0,0.0,0.0,0.0,0.0,0.0,5.1292,5.7178,6.101,6.0997,6.0987,6.0987,6.0987,5.9212,5.6242,5.1806,4.7177,0.0,0.0,0.0,0.0,0.0,0.0,0.0,0.0,0.0,0.0,0.0,0.0,0.0,0.0,0.0,0.0,0.0,0.0,0.0,0.0,0.0,0.0,0.0,0.0,0.0,0.0,0.0,0.0,0.0,0.0,0.0,0.0,0.0,0.0,0.0,0.0,0.0,0.0,0.0,0.0,0.0,0.0,0.0,0.0,0.0,0.0,0.0,0.0,0.0,0.0,0.0,0.0,0.0,0.0,0.0,0.0,0.0,0.0,0.0,5.0326,4.7598,0.0,0.0,0.0,0.0,0.0,0.0,0.0,0.0,0.0,0.0,0.0,0.0,0.0,0.0,0.0,0.0,0.0,0.0,0.0,0.0,0.0,0.0,0.0,0.0,0.0,0.0,0.0,0.0,0.0,0.0,0.0,0.0,0.0,0.0,0.0,0.0,0.0,0.0,0.0,0.0,5.1661,5.736,6.107,6.1041,6.1031,6.1031,6.1031,5.9823,5.7767,5.4755,5.0538,0.0,0.0,0.0,0.0,0.0,0.0,0.0,0.0,0.0,0.0,0.0,0.0,0.0,0.0,0.0,0.0,0.0,0.0,0.0,0.0,0.0,0.0,0.0,0.0,0.0,0.0,0.0,0.0,0.0,0.0,0.0,0.0,0.0,0.0,0.0,0.0,0.0,0.0,0.0,0.0,0.0,0.0,0.0,0.0,0.0,0.0,0.0,0.0,0.0,0.0,0.0,0.0,0.0,5.9772,6.1056,6.0917,6.1818,6.2984,6.4025,5.8223,5.6264,5.6786,5.2256,0.0,0.0,0.0,0.0,0.0,0.0,0.0,0.0,0.0,0.0,0.0,0.0,0.0,0.0,0.0,0.0,0.0,0.0,0.0,0.0,0.0,0.0,5.3487,5.5011,5.7088,5.6459,4.8173,0.0,0.0,0.0,0.0,0.0,0.0,0.0,0.0,0.0,0.0,0.0,5.2475,5.7738,6.1169,6.1134,6.1134,6.1116,6.1079,6.0423,5.9283,5.7544,5.3962,5.0546,0.0,0.0,0.0,0.0,0.0,0.0,0.0,0.0,0.0,0.0,0.0,0.0,0.0,0.0,0.0,0.0,0.0,0.0,0.0,0.0,0.0,0.0,0.0,0.0,0.0,0.0,0.0,0.0,0.0,0.0,0.0,0.0,4.0109,4.207,0.0,0.0,0.0,0.0,0.0,0.0,0.0,0.0,0.0,0.0,0.0,0.0,0.0,5.6458,5.892,6.3023,6.4721,6.3994,6.8183,6.9738,6.8924,6.9782,7.0323,7.0484,6.965,0.0,6.0621,5.8433,0.0,0.0,0.0,0.0,0.0,0.0,0.0,0.0,0.0,0.0,0.0,0.0,0.0,0.0,0.0,0.0,0.0,0.0,0.0,0.0,0.0,0.0,6.1218,6.147,6.2366,6.2396,5.9693,5.39,4.8383,4.5462,4.3086,4.071,0.0,0.0,0.0,0.0,0.0,0.0,5.5229,5.9036,6.1328,6.1289,6.1274,6.1221,6.1089,6.0993,6.0219,5.8526,5.7155,5.5552,5.3593,4.9768,0.0,0.0,0.0,0.0,0.0,0.0,0.0,0.0,0.0,0.0,0.0,0.0,0.0,0.0,0.0,0.0,0.0,0.0,0.0,0.0,0.0,0.0,0.0,0.0,0.0,0.0,0.0,0.0,0.0,3.9619,4.4185,4.4984,4.5186,4.4212,0.0,0.0,0.0,0.0,0.0,0.0,0.0,0.0,0.0,6.039,6.2186,6.4059,6.6129,6.902,7.0461,7.0565,7.3467,7.4635,7.4232,7.5128,7.5245,7.4777,7.4324,7.2137,6.8535,6.4336,6.101,5.828,0.0,0.0,0.0,0.0,5.55,5.6017,5.8036,5.8397,5.758,5.5285,0.0,0.0,0.0,0.0,0.0,0.0,0.0,5.4027,5.6774,6.0159,6.3068,6.4072,6.5013,6.5286,6.4078,6.1156,5.7247,5.2164,5.0274,4.7894,4.291,4.3224,0.0,0.0,0.0,5.3837,5.6671,5.9585,6.1393,6.1345,6.134,6.1316,6.1259,6.1253,6.0942,6.021,5.9311,5.825,5.6994,5.4188,5.0805,0.0,0.0,0.0,0.0,0.0,0.0,0.0,0.0,0.0,0.0,0.0,0.0,0.0,0.0,0.0,0.0,0.0,0.0,0.0,0.0,0.0,0.0,0.0,0.0,0.0,0.0,0.0,0.0,4.402,4.8197,4.8242,4.9648,4.9101,0.0,0.0,0.0,0.0,0.0,0.0,5.8789,6.1523,6.4414,6.7461,6.9492,7.1211,7.2656,7.4179,7.5273,7.5937,7.7226,7.7851,7.7851,7.8515,7.8437,7.7812,7.7148,7.6483,7.5468,6.9566,6.6632,6.5577,6.2471,6.1405,6.1718,6.2806,6.3073,6.3235,6.5641,6.6079,6.5107,6.2572,6.0699,5.8747,5.4831,0.0,0.0,0.0,0.0,5.8222,6.1523,6.3124,6.4292,6.5859,6.6562,6.6718,6.6054,6.5742,6.3905,5.8207,5.6938,5.4948,4.9142,4.9575,0.0,4.9296,5.3113,5.6737,5.8448,6.051,6.1705,6.1491,6.1448,6.1439,6.1412,6.1412,6.1412,6.1412,6.075,6.008,5.9419,5.7882,5.4992,5.05,0.0,0.0,0.0,0.0,0.0,0.0,0.0,0.0,0.0,0.0,0.0,0.0,0.0,0.0,0.0,0.0,0.0,0.0,0.0,0.0,0.0,0.0,0.0,0.0,0.0,0.0,0.0,0.0,0.0,5.3594,5.6562,0.0,0.0,0.0,0.0,5.6015,6.0039,6.3242,6.5039,6.8359,7.1015,7.2849,7.5429,7.7148,7.8005,7.8906,7.9414,7.9453,7.9531,7.957,7.957,7.9608,7.9606,7.9567,7.9523,7.9481,7.9052,7.3827,7.1172,7.0192,6.8435,6.8201,6.8787,6.8123,6.8828,7.0078,6.9414,6.9179,6.91,6.8943,6.6675,6.3934,6.3662,6.1864,0.0,0.0,6.3115,6.4443,6.7059,6.7216,6.6905,6.7764,6.7413,6.6906,6.6833,6.6169,6.4998,6.3008,6.1914,6.0508,5.7734,0.0,5.6445,5.7187,5.8281,5.9609,6.1289,6.2343,6.2573,6.1683,6.1601,6.154,6.1422,6.1412,6.1412,6.1412,6.1369,6.1325,6.1286,6.0429,5.8719,5.5953,5.0977,0.0,0.0,0.0,0.0,0.0,0.0,0.0,0.0,0.0,0.0,0.0,0.0,0.0,0.0,0.0,0.0,0.0,0.0,0.0,0.0,0.0,0.0,0.0,0.0,0.0,0.0,0.0,0.0,5.8047,6.0702,0.0,5.8748,6.0856,6.2846,6.3939,6.7494,7.0619,7.2885,7.4682,7.6204,7.7374,7.8313,7.8939,7.925,7.9525,7.9995,8.0542,8.0542,8.0815,8.1362,8.136,8.1085,8.0539,8.0536,8.0222,7.9558,7.7728,7.6126,7.464,7.296,7.2491,7.2726,7.2413,7.2689,7.316,7.2846,7.2767,7.2571,7.1438,6.9483,6.7487,6.6901,6.6471,6.6198,6.6276,6.6901,6.7799,6.8699,6.8308,6.7724,6.8036,6.749,6.6904,6.6906,6.6672,6.6243,6.562,6.4335,6.2539,5.9961,6.0664,6.1094,5.9726,6.1211,6.2695,6.3281,6.3164,6.2851,6.2535,6.1988,6.1633,6.1584,6.1582,6.1348,6.0801,6.0734,6.0438,5.9892,5.9529,5.8135,5.5528,5.3163,4.8879,0.0,0.0,0.0,0.0,0.0,0.0,0.0,0.0,0.0,0.0,0.0,0.0,0.0,0.0,0.0,0.0,0.0,0.0,0.0,0.0,0.0,0.0,0.0,0.0,0.0,5.6951,6.1248,6.2069,6.4957,6.6204,6.4486,6.6943,6.9322,7.1002,7.3542,7.5885,7.7879,7.8816,7.9556,8.0139,8.0416,8.0572,8.0568,8.0572,8.0886,8.1433,8.1433,8.1745,8.2292,8.2289,8.1974,8.1428,8.1424,8.1109,8.0563,8.0252,7.9469,7.8298,7.6857,7.6312,7.6273,7.5999,7.5884,7.5809,7.522,7.4828,7.4359,7.291,7.1659,7.0564,6.9665,6.9823,7.0175,6.9589,6.9823,7.0292,7.0292,6.9628,6.8964,6.8964,6.834,6.7677,6.7368,6.7524,6.7565,6.702,6.5972,6.453,6.2499,6.3592,6.4139,6.242,6.3631,6.4725,6.4725,6.4217,6.3631,6.3046,6.2499,6.203,6.1718,6.1445,6.1133,6.0859,6.0267,5.9672,5.9084,5.8468,5.7043,5.4705,5.3303,5.0184,4.531,0.0,0.0,0.0,0.0,0.0,0.0,0.0,0.0,0.0,0.0,0.0,0.0,0.0,0.0,0.0,0.0,0.0,0.0,0.0,0.0,0.0,0.0,0.0,5.7019,6.1315,6.4909,6.5807,6.9636,7.155,6.9868,7.2798,7.5454,7.7096,7.7994,7.8853,7.9713,8.0573,8.1037,8.1024,8.1857,8.2287,8.2313,8.2287,8.2292,8.2292,8.2292,8.2292,8.2292,8.2281,8.2313,8.2313,8.2299,8.2293,8.2215,8.1396,8.1044,8.0969,8.0046,7.9699,7.9582,7.876,7.8417,7.8149,7.6421,7.5323,7.4501,7.3669,7.3354,7.3158,7.23,7.2026,7.1987,7.1987,7.1987,7.1987,7.1987,7.1363,7.0699,7.0699,7.0035,6.9182,6.8332,6.8804,6.8923,6.7292,6.6941,6.6668,6.5809,6.5653,6.5653,6.5653,6.5653,0.0,6.5653,6.5614,6.495,6.3271,6.3037,6.2649,6.1794,6.0935,6.078,6.1562,6.0078,5.914,5.914,5.75,5.582,5.418,5.164,4.9922,4.9101,0.0,0.0,0.0,0.0,0.0,0.0,0.0,0.0,0.0,0.0,0.0,0.0,0.0,0.0,0.0,0.0,0.0,0.0,0.0,0.0,0.0,5.9862,6.4081,6.3228,6.7565,7.1392,7.2878,7.5177,7.6694,7.6851,7.7742,7.8752,7.9845,8.0158,8.0665,8.1524,8.1798,8.1951,8.1948,8.2185,8.2305,8.2299,8.2302,8.2305,8.2305,8.2305,8.2305,8.2305,8.2302,8.2299,8.2299,8.2293,8.2293,8.2293,8.2059,8.1942,8.1786,8.0305,7.9684,7.9684,7.9449,7.8945,7.8245,7.7149,7.617,7.5428,7.5191,7.429,7.3275,7.3002,7.2495,7.1987,7.1987,7.1987,7.1987,7.1987,7.1363,7.0699,7.0699,7.0035,6.9335,6.9103,6.9221,6.9262,6.8796,6.821,6.7512,6.6667,6.6551,6.6551,6.6551,6.6551,6.6551,6.6551,6.6004,6.5418,6.495,6.374,6.2882,6.2649,6.1829,6.0892,5.9878,5.8824,5.8277,5.8277,5.7182,5.6948,5.7689,5.4565,5.3158,0.0,0.0,0.0,0.0,0.0,0.0,0.0,0.0,0.0,0.0,0.0,0.0,0.0,0.0,0.0,0.0,0.0,0.0,0.0,0.0,0.0,0.0,6.6258,7.024,7.0872,7.3217,7.5521,7.7278,7.8367,7.9299,8.016,8.023,8.0615,8.1474,8.1552,8.1786,8.2254,8.2293,8.2293,8.2293,8.2293,8.2293,8.2293,8.2293,8.2293,8.2293,8.2293,8.2293,8.2293,8.2293,8.2293,8.2293,8.2293,8.2293,8.2293,8.2293,8.2293,8.2215,0.0,0.0,0.0,0.0,7.9444,7.8311,7.7804,7.7062,7.6281,7.5933,7.5149,7.4212,7.351,7.2963,7.2456,7.2104,7.1987,7.1987,7.1987,7.1636,7.1245,7.1245,7.0855,7.0387,7.0035,7.023,7.027,6.9528,6.9294,0.0,6.7594,6.7088,6.6854,6.6854,6.6854,6.6854,6.6854,6.6424,6.5956,6.5643,6.4706,6.3771,6.3071,6.2212,0.0,0.0,0.0,5.8077,5.7373,5.6865,0.0,0.0,0.0,0.0,0.0,0.0,0.0,0.0,5.8828,5.9961,0.0,0.0,0.0,0.0,0.0,0.0,0.0,0.0,0.0,0.0,0.0,0.0,0.0,0.0,0.0,0.0,7.2227,7.593,7.835,7.8116,7.8233,7.9678,7.9912,8.0302,8.1083,8.1161,8.1474,8.2254,8.2293,8.2293,8.2293,8.2293,0.0,0.0,0.0,8.2293,8.2293,8.2293,8.2293,8.2293,8.2293,8.2293,8.2293,8.2293,8.2293,8.2293,8.2293,8.2293,8.2293,8.2293,8.2293,8.2293,8.2293,8.2293,8.2176,8.1317,8.0029,7.8663,7.8585,0.0,0.0,7.632,7.5972,7.5501,7.4017,7.351,7.3275,7.2495,7.2221,7.2143,7.2143,7.2065,7.1987,7.1987,7.1987,7.1792,7.1011,7.1441,7.1558,6.9996,7.023,7.0191,6.8669,6.7576,6.6912,6.6795,6.6795,6.6795,6.6795,6.6795,6.6522,6.5819,6.5663,0.0,6.3412,6.2475,6.1932,6.1863,6.0417,5.8815,5.7252,5.7447,5.8308,5.9792,6.1549,6.4008,6.7173,6.8852,7.0258,7.1117,6.4908,6.4869,0.0,0.0,0.0,0.0,0.0,0.0,0.0,0.0,0.0,0.0,0.0,0.0,0.0,0.0,0.0,7.0821,7.5423,7.9131,8.0341,8.0966,8.1161,8.0771,8.1356,8.1864,8.202,8.2059,8.2137,8.2293,8.2293,8.2293,8.2293,8.2293,8.2293,8.2293,8.2293,8.2293,8.2293,8.2293,8.2293,8.2293,8.2293,0.0,8.2293,8.2293,8.2293,8.2293,8.2293,8.2293,8.2293,8.2293,8.2293,8.2293,8.2293,8.2293,8.2176,8.1317,8.0771,8.0381,7.9678,7.8897,7.8116,7.796,7.6948,7.5738,7.5423,7.4837,0.0,7.4056,7.3549,7.3041,7.3041,7.2534,7.1987,7.1987,7.1987,7.1948,7.1792,7.187,7.1909,7.1558,7.1089,7.0582,7.027,6.8903,6.7615,6.6912,6.6795,6.6795,6.6795,6.6795,6.6756,6.6561,6.5975,6.5468,6.5119,6.4301,6.3481,6.2781,6.243,6.1766,6.0749,6.274,6.4028,6.4343,6.598,6.7544,6.8911,7.0668,7.2659,7.4767,7.2793,7.2486,0.0,0.0,0.0,0.0,0.0,0.0,0.0,0.0,0.0,0.0,0.0,6.2361,6.4505,0.0,7.332,7.5501,7.839,8.0654,8.1513,8.202,8.2137,8.1708,8.202,8.2293,8.2293,8.2293,8.2293,8.2293,8.2293,8.2293,8.2293,8.2293,8.2293,8.2293,8.2293,8.2237,8.2153,8.2153,8.2089,8.1987,8.1987,8.1987,8.1987,8.1987,8.1987,8.1987,8.1987,8.1987,8.1987,8.1987,8.1987,8.1987,8.1987,8.2138,8.2254,8.1825,8.1356,8.0927,8.0498,7.9795,7.8975,7.8546,7.7804,7.6948,7.605,7.5501,7.5071,7.4603,7.4212,7.3822,7.3393,7.3275,7.3041,7.2182,7.2339,7.2534,7.2104,7.1987,7.1987,7.1987,7.1636,7.1206,7.0777,6.9996,6.9098,6.8239,6.8083,6.7927,6.7498,6.7459,6.7264,6.6834,6.6444,6.6053,6.5624,6.4804,6.4104,6.3672,6.4062,6.4101,6.3672,6.5702,6.6834,6.6834,6.8942,7.0465,7.1363,7.351,7.5423,7.7104,7.7583,7.7783,0.0,0.0,0.0,0.0,0.0,0.0,0.0,5.5501,5.8194,6.2524,6.6422,6.9852,7.2505,7.5065,7.7433,7.9537,8.0579,8.139,8.2088,8.2166,8.2166,8.2162,8.2234,8.2293,8.2293,8.2241,8.2234,8.2234,8.2218,8.2166,8.2166,8.2166,8.2166,8.2166,8.2166,8.2128,8.1948,8.1948,8.1843,8.1698,8.1698,8.1698,8.1698,8.1698,8.1698,8.1698,8.1698,8.1698,8.1698,8.1698,8.1698,8.1698,8.1698,8.1912,8.2166,8.2166,8.1737,8.1156,8.1156,8.0567,7.9669,7.8815,7.8425,7.7996,7.6435,7.5967,7.5811,7.5105,7.4792,7.4519,7.3856,7.4051,7.4051,7.2725,7.2803,7.2998,7.2295,7.2026,7.1909,7.1909,7.1909,7.1675,7.0969,7.0852,7.0512,6.9564,6.9411,6.9098,6.82,6.8083,6.7771,6.6873,6.6795,6.66,6.6131,6.5429,6.5116,6.5275,6.5936,6.6327,6.6327,6.781,6.8669,6.8864,7.1245,7.2924,7.3783,7.6203,7.7804,7.8702,8.0263,8.1005,4.5547,4.6836,4.9648,5.5076,5.5504,5.7573,0.0,6.9632,6.888,7.3178,7.5707,7.6987,7.6597,7.8525,8.0252,8.0524,8.1158,8.1645,8.1761,8.1761,8.1705,8.1582,8.2023,8.2293,8.2293,8.2148,8.2011,8.2011,8.1851,8.1761,8.1761,8.1761,8.1761,8.1761,8.1761,8.1753,8.1735,8.1726,8.1717,8.1698,8.1698,8.1698,8.1698,8.1698,8.1698,8.1698,8.1698,8.1698,8.1698,8.1698,8.1698,8.1698,8.1698,8.1726,8.1761,8.1761,8.1723,8.1606,8.1606,8.1062,8.0167,7.9312,7.8496,7.771,7.6785,7.6521,7.6482,7.6404,7.5813,7.5183,7.5105,7.4553,7.4009,7.3814,7.3278,7.2734,7.2617,7.2042,7.1575,7.1575,7.1575,7.1536,7.142,7.142,7.0966,6.9588,6.9411,6.9098,6.82,6.8083,6.7771,6.6873,6.6795,6.7068,6.7771,6.7732,6.8005,6.8786,6.8903,6.8981,6.8981,6.9918,7.0777,7.1558,7.3315,7.4642,7.5501,7.7375,7.8702,7.9561,8.0537,8.1005,5.3671,5.569,5.7768,6.1314,6.3811,6.6844,7.2251,7.3227,7.387,7.7071,7.8782,7.9739,7.978,8.0613,8.1267,8.1267,8.1519,8.1689,8.1582,8.1194,8.067,8.0076,8.0167,8.0691,8.1688,8.1701,8.1657,8.1657,8.1582,8.1543,8.1573,8.1573,8.1573,8.1573,8.1573,8.1512,8.1418,8.1418,8.1398,8.1363,8.1363,8.1363,8.1363,8.1271,8.1192,8.1203,8.1206,8.1219,8.1219,8.1298,8.1363,8.135,8.1271,8.1219,8.1259,8.1589,8.1698,8.1698,8.1698,8.1465,8.0999,8.0144,7.929,7.8387,7.7533,7.6959,7.6618,7.6618,7.6337,7.5949,7.5435,7.5396,7.528,7.4261,7.4106,7.4075,7.3562,7.2794,7.2219,7.2219,7.1831,7.1481,7.1481,7.1481,7.1295,7.0719,7.0614,7.0302,6.9439,6.9323,6.9,6.8206,6.8258,6.8474,6.8825,6.8864,6.902,6.9372,6.9879,7.0152,7.0152,7.148,7.2378,7.2768,7.4408,7.5696,7.6555,7.8311,7.96,8.0498,8.1356,8.1747,5.8603,6.1442,6.3901,6.6062,7.0045,7.3581,7.4308,7.5697,7.735,7.9113,8.0092,8.0683,8.0949,8.0961,8.0989,8.1222,8.1198,8.1209,8.1318,8.0415,7.9579,7.9081,7.8617,7.8914,8.0319,8.0754,8.1046,8.1279,8.1257,8.1271,8.132,8.132,8.132,8.132,8.132,8.1234,8.1094,8.1094,8.1084,8.1029,8.1029,8.1029,8.1013,8.0926,8.086,8.0792,8.086,8.0855,8.0893,8.0997,8.1029,8.1013,8.091,8.0855,8.092,8.1311,8.1469,8.1469,8.1469,8.1469,8.1314,8.045,7.9725,7.9028,7.7894,7.7158,7.6665,7.6433,7.6355,7.62,7.563,7.595,7.6105,7.4865,7.4837,7.4953,7.4323,7.3519,7.287,7.2599,7.2095,7.163,7.1359,7.132,7.132,7.132,7.132,7.1048,7.0291,6.9989,6.9648,6.9098,6.9187,6.935,6.9584,6.9646,6.9774,7.0008,7.0886,7.1402,7.1402,7.2846,7.3744,7.3978,7.5188,7.636,7.7453,7.8975,8.0146,8.1005,8.1903,8.2293,5.7663,6.1175,6.5803,6.9111,7.2569,7.5802,7.8339,7.9591,8.0261,8.0339,8.0387,8.0162,7.9346,7.9026,7.9168,8.0019,7.9909,8.0037,8.0805,7.9434,7.8623,7.9288,7.7948,7.7263,7.8038,7.9154,8.0186,8.1035,8.0946,8.0826,8.0826,8.0826,8.0826,8.0826,8.0826,8.0826,8.0809,8.0809,8.0809,8.0809,8.0809,8.0809,8.0809,8.0792,8.0792,8.0792,8.0792,8.0792,8.0792,8.0809,8.0809,8.0809,8.0792,8.0792,8.0809,8.0826,8.0843,8.0843,8.0843,8.0843,8.0673,7.9791,7.9522,7.9177,7.7527,7.699,7.6799,7.597,7.574,7.5756,7.5856,7.5887,7.5902,7.5952,7.5313,7.4697,7.4697,7.4028,7.3234,7.2388,7.2195,7.1926,7.1041,7.0925,7.0925,7.0925,7.0925,7.072,7.0257,6.9445,6.894,6.8909,6.8917,6.9267,7.0083,7.0304,7.0726,7.1588,7.2611,7.3234,7.3234,7.4017,7.4876,7.5699,7.5777,7.6636,7.835,7.9248,8.0146,8.1005,8.1903,8.2293,6.3157,6.701,7.064,7.3435,7.6234,7.8619,8.0073,8.0304,8.0001,7.9288,7.7891,7.6538,7.5553,7.5311,7.5732,7.7102,7.8177,7.9265,8.0528,7.9727,7.8679,7.7712,7.7617,7.7294,7.6418,7.7701,7.8952,7.9851,7.9845,8.006,8.0629,8.1242,8.128,8.0705,8.1242,8.1224,8.0667,8.0667,8.0685,8.0792,8.0792,8.0758,8.0667,8.0667,8.0632,8.0616,8.0632,8.0667,8.0667,8.0775,8.0792,8.0792,8.0685,8.0667,8.065,8.0634,8.0598,8.0616,8.0758,8.0792,8.0754,8.0447,7.9987,7.9395,7.882,7.7878,7.6958,7.6651,7.6153,7.5708,7.5763,7.5779,7.5779,7.581,7.558,7.5403,7.5503,7.435,7.3289,7.3115,7.2129,7.1245,7.0937,7.0898,7.0898,7.0898,7.0898,7.085,7.0679,7.0529,7.0428,7.0428,7.055,7.0735,7.1054,7.1606,7.2064,7.2337,7.3236,7.3762,7.3762,7.4587,7.5222,7.5654,7.62,7.7402,7.9248,7.9561,8.0459,8.1864,8.2176,8.2293,6.7794,7.1181,7.3909,7.6777,7.8903,8.0323,8.0592,8.0063,7.899,7.7097,7.5027,7.3137,7.186,7.1395,7.2097,7.4943,7.6239,7.7801,8.0249,7.9639,7.8591,7.7735,7.7564,7.722,7.6456,7.7373,7.8366,7.9225,7.9551,7.997,8.0522,8.1095,8.1287,8.1057,8.1287,8.1287,8.1019,8.0713,8.0596,8.0688,8.0688,8.067,8.056,8.056,8.0523,8.0506,8.0542,8.056,8.056,8.067,8.0688,8.0688,8.0596,8.056,8.056,8.0525,8.0506,8.0525,8.0652,8.0688,8.0688,8.0688,8.0305,7.9807,7.9501,7.8467,7.728,7.6973,7.6284,7.5611,7.5682,7.5644,7.566,7.5692,7.5692,7.5708,7.5794,7.4981,7.4066,7.3534,7.2794,7.2052,7.1475,7.136,7.1475,7.1783,7.1552,7.1245,7.0937,7.1017,7.1205,7.1514,7.1689,7.189,7.22,7.2725,7.3074,7.3074,7.3954,7.4455,7.4455,7.5318,7.596,7.637,7.6883,7.8098,7.9934,7.9934,8.0734,8.2175,8.2175,8.223,7.1168,7.363,7.5745,7.9054,8.0439,8.0785,7.99,7.8938,7.7284,7.3822,7.1706,6.9871,6.801,6.7176,6.8377,7.3254,7.421,7.5791,7.9963,7.9147,7.8404,7.9225,7.787,7.7182,7.7946,7.8099,7.8443,7.9263,8.0009,8.0468,8.0506,8.0544,8.0926,8.1729,8.0964,8.0926,8.1729,8.0926,8.0506,8.0506,8.0506,8.0506,8.0506,8.0506,8.0506,8.0506,8.0506,8.0506,8.0506,8.0506,8.0506,8.0506,8.0506,8.0506,8.0506,8.0506,8.0506,8.0506,8.0506,8.0506,8.0506,8.0506,8.0506,8.0353,7.9607,7.8748,7.787,7.7029,7.6188,7.5574,7.5604,7.5583,7.5616,7.566,7.5676,7.5676,7.5692,7.574,7.5342,7.3691,7.4072,7.413,7.2552,7.2283,7.2552,7.3399,7.2783,7.1975,7.1129,7.1014,7.136,7.2168,7.2283,7.2591,7.3437,7.3626,7.3771,7.3771,7.4751,7.5331,7.5331,7.6116,7.6932,7.7786,7.7786,7.865,8.0407,8.0407,8.0931,8.1981,8.1981,8.2078,7.3091,7.6245,7.8861,8.04,8.0439,7.9746,7.8284,7.6284,7.3476,6.8783,6.5949,6.3181,5.9557,6.1735,6.4931,6.7376,7.2017,7.631,7.9223,7.976,7.9704,7.934,7.9436,7.913,7.8099,7.913,7.9704,7.934,7.9493,7.9856,8.0468,8.1117,8.127,8.085,8.1232,8.127,8.085,8.0621,8.0506,8.0506,8.0506,8.0506,8.0506,8.0506,8.0506,8.0506,8.0506,8.0506,8.0506,8.0506,8.0506,8.0506,8.0506,8.0506,8.0506,8.0506,8.0506,8.0506,8.0506,8.0506,8.0506,8.0506,8.0506,8.0468,8.0238,7.9627,7.8787,7.7908,7.7067,7.6265,7.5688,7.5535,7.5553,7.5532,7.5549,7.5549,7.5616,7.5151,7.4609,7.4251,7.3906,7.3558,7.3231,7.3168,7.3245,7.3476,7.3322,7.3091,7.286,7.286,7.2937,7.3129,7.3168,7.3245,7.3462,7.4071,7.4458,7.4458,7.531,7.5813,7.5813,7.6044,7.661,7.7561,7.7573,7.8512,8.0407,8.0407,8.0862,8.177,8.177,8.1795,7.6015,7.8631,8.04,8.0516,7.9631,7.7861,7.4707,7.1962,6.8564,6.3065,6.0172,5.7666,5.4534,5.744,6.1171,6.392,6.9719,7.5034,7.827,7.9742,8.0315,7.9856,8.0238,8.0124,7.9207,7.9933,8.0315,7.9856,7.9818,8.0009,8.0468,8.0964,8.1194,8.1079,8.1156,8.1003,8.0506,8.0506,8.0506,8.0506,8.0506,8.0506,8.0506,8.0506,8.0506,8.0506,8.0506,8.0506,8.0506,8.0506,8.0506,8.0506,8.0506,8.0506,8.0506,8.0506,8.0506,8.0506,8.0506,8.0506,8.0506,8.0506,8.0506,8.043,8.0086,7.9398,7.8557,7.7678,7.68,7.6074,7.5633,7.5518,7.5518,7.5518,7.5518,7.5518,7.5532,7.5183,7.4889,7.5025,7.4413,7.4028,7.448,7.4255,7.4168,7.4553,7.4284,7.4168,7.4553,7.3976,7.363,7.4014,7.4053,7.4168,7.4553,7.5014,7.5284,7.5284,7.5745,7.6015,7.6015,7.6361,7.6987,7.7923,7.8309,7.9224,8.0689,8.0689,8.0981,8.1558,8.1558,8.161,7.8938,8.0362,8.0708,7.9862,7.8207,7.5476,7.036,6.7012,6.3258,5.7136,5.4671,5.3031,5.1059,5.3781,5.7698,6.1745,6.7362,7.275,7.722,7.9169,8.0238,8.0468,8.0506,8.0506,8.0506,8.0506,8.0506,8.0506,8.0621,8.0621,8.0506,8.0506,8.085,8.1614,8.0888,8.0506,8.0506,8.0506,8.0506,8.0506,8.0506,8.0506,8.0506,8.0506,8.0506,8.0506,8.0506,8.0506,8.0506,8.0506,8.0506,8.0506,8.0506,8.0506,8.0506,8.0506,8.0506,8.0506,8.0506,8.0506,8.0506,8.0506,8.0506,8.0353,7.9665,7.8863,7.7984,7.7105,7.6303,7.5633,7.5556,7.5518,7.5518,7.5518,7.5518,7.5518,7.5518,7.557,7.5616,7.566,7.5165,7.4981,7.5764,7.5272,7.5101,7.587,7.5332,7.5154,7.5885,7.4731,7.4091,7.4822,7.4861,7.5168,7.5938,7.6015,7.6053,7.6169,7.6169,7.6207,7.6322,7.7053,7.7823,7.8669,7.94,8.0246,8.1093,8.1093,8.1205,8.1375,8.1375,8.1461,7.9246,7.99,7.9823,7.8938,7.6438,7.2822,6.7705,6.3449,5.8685,5.2015,5.0329,4.9143,4.5972,5.0405,5.5683,5.9185,6.4726,7.0495,7.615,7.7793,7.8939,8.0353,8.0506,8.0506,8.0506,8.0506,8.0506,8.0506,8.1156,8.127,8.0544,8.0506,8.0582,8.0735,8.0582,8.0506,8.0506,8.0506,8.0506,8.0506,8.0506,8.0506,8.0506,8.0506,8.0506,8.0506,8.0506,8.0506,8.0506,8.0506,8.0506,8.0506,8.0506,8.0506,8.0506,8.0506,8.0506,8.0506,8.0506,8.0506,8.0506,8.0506,8.0506,8.0468,8.0315,7.9704,7.8863,7.8022,7.7144,7.6341,7.5671,7.5518,7.5518,7.5518,7.5518,7.5518,7.5518,7.5518,7.5553,7.5599,7.5518,7.5474,7.5708,7.5609,7.5587,7.574,7.571,7.5756,7.591,7.5701,7.563,7.5745,7.5784,7.5822,7.5976,7.6015,7.6322,7.7015,7.7053,7.7361,7.8054,7.8207,7.8707,7.9554,7.9708,8.0246,8.1093,8.1093,8.1124,8.1146,8.1146,8.1176,7.8784,7.9438,7.94,7.763,7.4639,7.0434,6.4038,5.9199,5.4254,4.7933,4.6242,4.5214,4.3139,4.7554,5.2308,5.4779,6.0141,6.6178,7.252,7.4545,7.6494,7.9513,8.0238,8.0506,8.0506,8.0506,8.0506,8.0506,8.0888,8.0926,8.0506,8.0506,8.0506,8.0506,8.0506,8.0506,8.0506,8.0506,8.0506,8.0506,8.0506,8.0506,8.0506,8.0506,8.0506,8.0506,8.0506,8.0506,8.0506,8.0506,8.0506,8.0506,8.0506,8.0506,8.0506,8.0506,8.0506,8.0506,8.0506,8.0506,8.0506,8.0506,8.0506,8.043,8.0009,7.9283,7.8443,7.7564,7.6723,7.5997,7.5577,7.5518,7.5518,7.5518,7.5518,7.5518,7.5518,7.5518,7.5518,7.5532,7.5566,7.5616,7.5649,7.566,7.5692,7.5692,7.5763,7.581,7.5879,7.5925,7.597,7.6015,7.6015,7.6169,7.663,7.6669,7.7015,7.7861,7.79,7.8092,7.8477,7.8938,7.9361,7.9785,8.0246,8.0669,8.1093,8.1093,8.1093,8.1093,8.1093,8.1093,7.7977,7.8746,7.8707,7.6322,7.2818,6.8087,6.0885,5.5543,5.055,4.5045,4.3178,4.2374,4.1877,4.5354,4.906,5.1467,5.6205,6.1975,6.889,7.168,7.4507,7.8519,7.9895,8.0506,8.0506,8.0506,8.0506,8.0506,8.0506,8.0506,8.0506,8.0506,8.0506,8.0506,8.0506,8.0506,8.0506,8.0506,8.0506,8.0506,8.0506,8.0506,8.0506,8.0506,8.0506,8.0506,8.0506,8.0506,8.0506,8.0506,8.0506,8.0506,8.0506,8.0506,8.0506,8.0506,8.0506,8.0506,8.0506,8.0506,8.0506,8.0506,8.0506,8.0391,7.9742,7.8939,7.8099,7.722,7.6379,7.5709,7.5556,7.5518,7.5518,7.5518,7.5518,7.5518,7.5518,7.5518,7.5518,7.5518,7.5532,7.5566,7.5566,7.5633,7.5644,7.5644,7.566,7.5731,7.5833,7.5848,7.5895,7.5985,7.6,7.6361,7.7207,7.7284,7.7707,7.8707,7.8784,7.8861,7.9054,7.9708,8.0092,8.0092,8.0746,8.1093,8.1093,8.1093,8.1093,8.1093,8.1093,8.1093,7.6938,7.7476,7.7092,7.5284,7.1049,6.5781,5.9769,5.3815,4.8301,4.3905,4.2259,4.1839,4.2565,4.4322,4.7199,5.1926,5.5097,5.9568,6.7056,7.0954,7.4278,7.7717,7.9513,8.0506,8.0506,8.0506,8.0506,8.0506,8.0506,8.0506,8.0506,8.0506,8.0506,8.0506,8.0506,8.0506,8.0506,8.0506,8.0506,8.0506,8.0506,8.0506,8.0506,8.0506,8.0506,8.0506,8.0506,8.0506,8.0506,8.0506,8.0506,8.0506,8.0506,8.0506,8.0506,8.0506,8.0506,8.0506,8.0506,8.0506,8.0506,8.0506,8.0506,8.0506,8.0391,7.9818,7.8978,7.8137,7.7258,7.6418,7.5692,7.5518,7.5518,7.5518,7.5518,7.5518,7.5518,7.5518,7.5518,7.5518,7.5518,7.5518,7.5518,7.5497,7.5535,7.5535,7.5566,7.5616,7.5616,7.5699,7.5779,7.5895,7.597,7.6361,7.7207,7.7284,7.7977,7.9592,7.9669,8.0054,8.0823,8.0939,8.0977,8.0977,8.1054,8.1093,8.1093,8.1093,8.1093,8.1093,8.1093,8.1093,7.3783,7.4976,7.5192,7.2919,6.925,6.4678,5.8741,5.3123,4.7941,4.3695,4.1734,4.1036,4.1877,4.2565,4.4513,4.906,5.0206,5.3187,6.079,6.3923,6.7591,7.3514,7.615,7.829,8.0315,8.0506,8.0506,8.0506,8.0506,8.0506,8.0506,8.0506,8.0506,8.0506,8.0506,8.0506,8.0506,8.0506,8.0506,8.0506,8.0506,8.0506,8.0506,8.0506,8.0506,8.0506,8.0506,8.0506,8.0506,8.0506,8.0506,8.0506,8.0506,8.0506,8.0506,8.0506,8.0506,8.0506,8.0506,8.0506,8.0506,8.0506,8.0506,8.0506,8.0506,7.9933,7.9111,7.8252,7.7373,7.6494,7.5692,7.5518,7.5518,7.5518,7.5518,7.5518,7.5518,7.5518,7.5518,7.5518,7.5518,7.5518,7.5518,7.5518,7.5518,7.5518,7.5497,7.5549,7.5583,7.5633,7.5874,7.6492,7.6202,7.6509,7.79,7.8015,7.8746,8.0477,8.0592,8.0746,8.1093,8.1093,8.1093,8.1093,8.1093,8.1093,8.1093,8.1093,8.1093,8.1093,8.1093,8.1093,7.009,7.1923,7.2702,7.057,6.7289,6.3142,5.7644,5.2223,4.7286,4.3551,4.1456,4.054,4.1342,4.1724,4.3023,4.65,4.7379,4.9939,5.6587,5.9606,6.3503,6.9807,7.2826,7.5577,7.871,7.9933,8.0506,8.0506,8.0506,8.0506,8.0506,8.0506,8.0506,8.0506,8.0506,8.0506,8.0506,8.0506,8.0506,8.0506,8.0506,8.0506,8.0506,8.0506,8.0506,8.0506,8.0506,8.0506,8.0506,8.0506,8.0506,8.0506,8.0506,8.0506,8.0506,8.0506,8.0506,8.0506,8.0506,8.0506,8.0506,8.0506,8.0506,8.0468,8.02,7.9742,7.9111,7.8252,7.7373,7.6494,7.5692,7.5518,7.5518,7.5518,7.5518,7.5518,7.5518,7.5518,7.5518,7.5518,7.5518,7.5518,7.5518,7.5518,7.5518,7.5518,7.5518,7.5535,7.5549,7.5566,7.5944,7.687,7.6498,7.6939,7.87,7.8639,7.9231,8.0977,8.1093,8.1093,8.1093,8.1093,8.1093,8.1093,8.1093,8.1093,8.1093,8.1093,8.1093,8.1093,8.1093,8.1093,6.6231,6.8396,6.9418,6.8534,6.5114,6.0802,5.6482,5.0833,4.5823,4.3321,4.1456,4.054,4.1342,4.2183,4.3329,4.5048,4.8105,5.1735,5.6014,6.0217,6.4153,6.7553,7.019,7.275,7.5327,7.8557,8.0506,8.0506,8.0506,8.0506,8.0506,8.0506,8.0506,8.0506,8.0506,8.0506,8.0506,8.0506,8.0506,8.0506,8.0506,8.0506,8.0506,8.0506,8.0506,8.0506,8.0506,8.0506,8.0506,8.0506,8.0506,8.0506,8.0506,8.0506,8.0506,8.0506,8.0506,8.0506,8.0506,8.0506,8.0506,8.0506,8.0506,8.0353,7.9569,7.9302,7.9111,7.8252,7.7373,7.6494,7.5692,7.5518,7.5518,7.5518,7.5518,7.5518,7.5518,7.5518,7.5518,7.5518,7.5518,7.5518,7.5518,7.5518,7.5518,7.5518,7.5518,7.5518,7.5518,7.5518,7.5841,7.6807,7.6884,7.7658,7.9527,7.8891,7.9169,8.0977,8.1093,8.1093,8.1093,8.1093,8.1093,8.1093,8.1093,8.1093,8.1093,8.1093,8.1093,8.1093,8.1093,8.1093,5.8846,6.0515,6.13,5.9266,5.7273,5.486,5.109,4.787,4.4944,4.2441,4.1046,4.054,4.1342,4.1266,4.2756,4.7876,4.9137,5.1162,5.5938,6.0255,6.4153,6.7477,7.3705,7.8022,7.8825,7.9895,8.0506,8.0506,8.0506,8.0506,8.0506,8.0506,8.0506,8.0506,8.0506,8.0506,8.0506,8.0506,8.0506,8.0506,8.0506,8.0506,8.0506,8.0506,8.0506,8.0506,8.0506,8.0506,8.0506,8.0506,8.0506,8.0506,8.0506,8.0506,8.0506,8.0506,8.0506,8.0506,8.0506,8.0506,8.0506,8.0506,8.0506,8.0238,7.8825,7.8825,7.8996,7.7526,7.6532,7.5806,7.5577,7.5518,7.5518,7.5518,7.5518,7.5518,7.5518,7.5518,7.5518,7.5518,7.5518,7.5518,7.5518,7.5518,7.5518,7.5518,7.5959,7.6303,7.6303,7.6838,7.7544,7.8441,7.802,7.8185,7.9429,7.9292,7.9687,8.0882,8.0959,8.0991,8.1093,8.1093,8.1093,8.1093,8.1093,8.1093,8.1093,8.1093,8.1093,8.1093,8.1093,8.1093,5.2931,5.4743,5.5366,5.371,5.2433,5.0829,4.7974,4.5774,4.3825,4.1877,4.0845,4.0454,4.096,4.0883,4.2221,4.6729,4.8105,5.0245,5.4982,5.93,6.3656,6.8279,7.4622,7.871,7.9054,7.9933,8.0506,8.0506,8.0506,8.0506,8.0506,8.0506,8.0506,8.0506,8.0506,8.0506,8.0506,8.0506,8.0506,8.0506,8.0506,8.0506,8.0506,8.0506,8.0506,8.0506,8.0506,8.0506,0.0,8.0506,8.0506,8.0506,8.0506,8.0506,8.0506,8.0506,8.0506,8.0506,8.0506,8.0506,8.0506,8.0506,8.0086,7.936,7.8328,7.8137,7.8022,7.6647,7.6112,7.5883,7.5594,7.5518,7.5518,7.5518,7.5518,7.5518,7.5518,7.5518,7.5518,7.5518,7.573,7.5844,7.5556,7.5997,7.6341,7.5997,7.6647,7.7182,7.7182,7.7678,7.8328,7.9225,7.8787,7.8879,7.9789,7.9612,7.9855,8.08,8.0877,8.091,8.1007,8.1007,8.1061,8.1093,8.1093,8.1093,8.1093,8.1093,8.1093,8.1093,8.1093,8.1093,0.0,5.0281,5.0856,5.0741,4.9592,4.8001,4.6282,4.4131,0.0,4.1418,4.0692,4.0263,4.053,4.1074,4.1953,4.3367,4.6156,4.9671,5.3951,5.8383,6.3618,7.0151,7.3858,7.615,7.6914,7.9092,8.0506,8.0506,8.0506,8.0506,8.0506,8.0506,8.0506,8.0506,8.0506,8.0506,8.0506,8.0506,8.0506,8.0506,8.0506,8.0506,8.0506,8.0506,8.0506,8.0506,8.0506,8.0506,8.0506,8.0506,8.0506,8.0506,8.0506,8.0506,8.0506,8.0506,8.0506,8.0506,8.0506,8.0506,8.0506,8.043,7.9321,7.7984,7.7946,7.7296,7.6456,7.5692,7.6036,7.6456,7.5692,7.5518,7.5518,7.5518,7.5518,7.5518,7.5518,7.5518,7.5518,7.5518,7.6112,7.6379,7.5633,7.6838,7.764,7.6838,7.7487,7.8099,7.8099,7.8137,7.8481,7.9302,7.9378,7.9665,8.043,7.9871,7.9845,8.0737,8.0775,8.0826,8.0871,8.0871,8.0959,8.1077,8.1093,8.1093,8.1093,8.1093,8.1093,8.1093,8.1093,8.1093,4.018,0.0,4.269,4.1379,4.1273,4.1187,0.0,3.9814,3.9661,3.8782,3.8973,4.0081,4.2669,4.2259,4.3673,5.0359,5.1544,5.3339,5.823,6.4764,7.0839,7.5653,7.8061,7.9398,7.9589,8.0162,8.0506,8.0506,8.0506,8.0506,8.0506,8.0506,8.0506,8.0506,8.0506,8.0506,8.0506,8.0506,8.0506,8.0506,8.0506,8.0506,8.0506,8.0506,8.0506,8.0506,8.0506,8.0506,8.0506,8.0506,8.0506,8.0506,8.0506,8.0506,8.0506,8.0506,8.0506,8.0506,8.0506,8.0506,8.0391,7.978,7.8863,7.787,7.722,7.6418,7.573,7.5556,7.5633,7.573,7.5556,7.5518,7.5518,7.5518,7.5518,7.5518,7.5518,7.5518,7.5518,7.5518,7.5653,7.573,7.5556,7.6341,7.6953,7.6723,7.8022,7.8978,7.8978,7.9513,7.9971,8.02,8.02,8.0277,8.0468,8.0333,8.035,8.065,8.065,8.0685,8.0826,8.0826,8.086,8.0959,8.1061,8.1093,8.1093,8.1093,8.1093,8.1093,8.1093,8.1093,3.6362,3.8971,4.1227,4.0309,4.0462,4.0768,4.0616,3.9775,3.8973,3.8897,3.9279,4.0272,4.245,4.3061,4.4972,5.0359,5.2766,5.6282,6.2892,6.9043,7.4125,7.7602,7.9474,8.0506,8.0506,8.0506,8.0506,8.0506,8.0506,8.0506,8.0506,8.0506,8.0506,8.0506,8.0506,8.0506,8.0506,8.0506,8.0506,8.0506,8.0506,8.0506,8.0506,8.0506,8.0506,8.0506,8.0506,8.0506,8.0506,8.0506,8.0506,8.0506,8.0506,8.0506,8.0506,8.0506,8.0506,8.0411,7.9819,7.9163,7.858,7.8163,7.7442,7.6703,7.6484,7.5818,7.517,7.5427,7.5518,7.5518,7.5518,7.53,7.5132,7.5132,7.498,7.4863,7.5095,7.5132,7.5226,7.5445,7.5806,7.6036,7.6036,7.7067,7.787,7.787,7.9016,7.9856,7.9856,8.0238,8.0506,8.0506,8.0506,8.0506,8.0506,8.0506,8.0525,8.0542,8.0542,8.0596,8.0685,8.0685,8.0737,8.086,8.0959,8.0991,8.0991,8.1077,8.1093,8.1093,8.1093,8.1093,3.542,3.9393,4.2985,4.2221,4.2412,4.2908,4.3319,4.1218,3.9431,4.0148,4.0377,4.0922,4.2374,4.4409,4.6691,4.9137,5.3683,5.9682,6.7553,7.1985,7.5348,7.7908,7.9551,8.0506,8.0506,8.0506,8.0506,8.0506,8.0506,8.0506,8.0506,8.0506,8.0506,8.0506,8.0506,8.0506,8.0506,8.0506,8.0506,8.0506,8.0506,8.0506,8.0506,8.0506,8.0506,8.0506,8.0506,8.0506,8.0506,8.0506,8.0506,8.0506,8.0506,8.0506,8.0506,8.0506,8.043,8.0201,7.8845,7.7561,7.6498,7.6385,7.5836,7.5342,7.5594,7.5191,7.4685,7.5132,7.53,7.5374,7.5281,7.4922,7.4564,7.4564,7.4265,7.4124,7.4519,7.4564,7.4725,7.5189,7.5872,7.6366,7.6366,7.7795,7.8958,7.9072,7.978,8.0353,8.0468,8.0506,8.0506,8.0506,8.0506,8.0506,8.0506,8.0506,8.0506,8.0506,8.0506,8.0543,8.0596,8.0614,8.065,8.0775,8.086,8.0871,8.091,8.0991,8.1077,8.1077,8.1093,8.1093,3.7406,4.1609,4.3864,3.9546,4.0654,4.245,4.1141,4.0454,4.0148,4.0263,4.0845,4.2679,4.7122,4.8269,5.0474,5.6396,6.1019,6.5834,7.1412,7.401,7.6227,7.8787,7.9933,8.0506,8.0506,8.0506,8.0506,8.0506,8.0506,8.0506,8.0506,8.0506,8.0506,8.0506,8.0506,8.0506,8.0506,8.0506,8.0506,8.0506,8.0506,8.0506,8.0506,8.0506,8.0506,8.0506,8.0506,8.0506,8.0506,8.0506,8.0506,8.0506,8.0506,8.0506,8.0506,8.0506,8.0199,7.9637,7.8299,7.7222,7.6361,7.5723,7.5385,7.5183,7.4515,7.4199,7.4109,7.4214,7.4519,7.4725,7.4347,7.4192,7.4124,7.4124,7.4079,7.4033,7.4064,7.4124,7.4109,7.4214,7.4636,7.4995,7.4995,7.616,7.7335,7.8099,7.8939,7.9704,8.0391,8.0506,8.0506,8.0506,8.0506,8.0506,8.0506,8.0506,8.0506,8.0506,8.0506,8.0506,8.0525,8.0578,8.0614,8.0632,8.0775,8.0809,8.0809,8.091,8.0943,8.0943,8.1061,8.1093,3.5534,3.9576,4.2715,4.1427,4.4666,4.799,4.7226,4.6003,4.5163,4.5621,4.6003,4.7111,4.9939,5.1926,5.5261,6.1726,6.5187,6.8291,7.1709,7.4237,7.6234,7.7602,7.8869,7.9751,8.002,8.0061,8.0061,8.0061,8.0354,8.0373,8.0061,8.0354,8.0506,8.0506,8.0506,8.0506,8.0506,8.0506,8.0506,8.0506,8.0506,8.0506,8.0506,8.0506,8.0506,8.0506,8.0506,8.0506,8.0506,8.0506,8.0238,7.9876,7.9989,7.9528,7.8747,7.8445,7.7712,7.6791,7.6169,7.5254,7.4248,7.3914,7.3803,7.3781,7.3653,7.3603,7.3603,7.3603,7.3963,7.4265,7.4079,7.3821,7.3603,7.3603,7.3415,7.3287,7.3566,7.3603,7.3677,7.3963,7.4154,7.446,7.495,7.5539,7.6369,7.7657,7.8187,7.8718,7.9551,7.9916,8.0061,8.0061,8.0335,8.0506,8.0506,8.0506,8.0506,8.0506,8.0506,8.0506,8.0506,8.0505,8.0542,8.0542,8.0632,8.0685,8.0685,8.0809,8.086,8.086,8.0943,8.0991,3.4227,3.7899,4.162,4.4184,4.8131,5.1701,5.273,5.1179,4.987,5.0976,5.1447,5.1828,5.2397,5.5555,5.9915,6.5445,6.7978,6.9957,7.2079,7.4341,7.596,7.6423,7.7601,7.8497,7.8904,7.8949,7.8949,7.8949,7.9309,7.9464,7.9214,7.9613,7.9911,8.0101,8.0139,8.0139,8.0139,7.9949,8.0048,8.0506,8.0373,8.0373,8.0506,8.0238,8.0199,8.0315,8.0179,8.0025,7.9854,7.9854,7.9359,7.8635,7.8853,7.8192,7.7052,7.6498,7.5545,7.445,7.4354,7.3518,7.2496,7.2496,7.2496,7.2582,7.3017,7.3114,7.3114,7.3114,7.3364,7.3652,7.3652,7.339,7.3114,7.3114,7.2798,7.261,7.3007,7.3114,7.3246,7.3579,7.375,7.407,7.4707,7.4939,7.5497,7.6925,7.73,7.7714,7.8515,7.9114,7.9494,7.9494,7.9999,8.0373,8.0506,8.0506,8.0506,8.0506,8.0506,8.0506,8.0506,8.0506,8.0506,8.0506,8.0542,8.0578,8.0578,8.0723,8.0758,8.0758,8.086,8.0871,3.6303,3.9071,4.1845,4.6089,4.7246,4.839,5.2445,5.2092,5.1505,5.3453,5.4759,5.5501,5.5194,5.9121,6.3593,6.7201,6.9735,7.2177,7.4671,7.522,7.5619,7.6423,7.6587,7.6686,7.6733,7.6733,7.6733,7.6733,7.6757,7.7095,7.7799,7.7885,7.8223,7.8975,7.9013,7.9013,7.9013,7.8261,7.876,8.0506,7.9999,8.002,8.0487,7.9471,7.9311,7.973,7.9204,7.8599,7.7909,7.7909,7.742,7.6705,7.6695,7.6658,7.6474,7.5965,7.5209,7.4434,7.3922,7.3185,7.2496,7.2496,7.2496,7.2496,7.2553,7.2553,7.2553,7.2553,7.2582,7.261,7.261,7.2582,7.2553,7.2553,7.2524,7.2496,7.2553,7.2553,7.2582,7.261,7.3007,7.335,7.345,7.3813,7.4385,7.5347,7.6098,7.6863,7.7676,7.8489,7.894,7.894,7.9426,7.9958,8.0468,8.0506,8.0506,8.0506,8.0506,8.0506,8.0506,8.0506,8.0506,8.0506,8.0506,8.0525,8.0525,8.0578,8.0632,8.0632,8.0758,8.0843,3.4216,3.7662,4.1241,4.4694,4.7436,5.0282,5.3858,5.5835,5.7366,5.914,6.0266,6.0792,6.0154,6.179,6.3973,6.6292,6.874,7.0895,7.2574,7.3959,7.4807,7.4762,7.5189,7.5622,7.5954,7.5979,7.5979,7.5979,7.6305,7.6504,7.6453,7.6755,7.7075,7.7413,7.7413,7.7413,7.7413,7.7113,7.7325,7.8025,7.7787,7.7847,7.8003,7.7603,7.7509,7.7696,7.7509,7.7225,7.6925,7.6925,7.6474,7.5662,7.4836,7.4618,7.468,7.3979,7.3527,7.3213,7.3023,7.2753,7.2496,7.2496,7.2496,7.2496,7.2496,7.2496,7.2496,7.2496,7.2496,7.2496,7.2496,7.2496,7.2496,7.2496,7.2496,7.2496,7.2496,7.2496,7.2496,7.2496,7.263,7.2798,7.2798,7.2953,7.3347,7.4189,7.4977,7.5792,7.657,7.7717,7.8416,7.8416,7.8866,7.9426,7.9958,7.9999,8.0159,8.0487,8.0506,8.0506,8.0506,8.0506,8.0506,8.0506,8.0506,8.0506,8.0506,8.0543,8.0523,8.0523,8.0632,8.0685,3.3741,3.7203,4.12,4.4252,4.7935,5.1772,5.5471,5.8351,6.0821,6.2801,6.3243,6.3243,6.3264,6.3222,6.3844,6.5791,6.8148,7.0127,7.1157,7.2789,7.3748,7.3361,7.3817,7.4286,7.4635,7.469,7.469,7.469,7.5027,7.5191,7.5088,7.5437,7.5693,7.5902,7.5939,7.5939,7.5939,7.5678,7.5555,7.5606,7.532,7.5646,7.6474,7.6132,7.6119,7.6231,7.6093,7.5867,7.5606,7.5606,7.5158,7.4324,7.3416,7.3158,7.323,7.2716,7.2496,7.2496,7.2496,7.2496,7.2496,7.2496,7.2496,7.2496,7.2496,7.2496,7.2496,7.2496,7.2496,7.2496,7.2496,7.2496,7.2496,7.2496,7.2496,7.2496,7.2496,7.2496,7.2496,7.2496,7.2496,7.2496,7.2496,7.2496,7.2679,7.323,7.4001,7.4808,7.5616,7.6736,7.7607,7.8063,7.8442,7.8866,7.9403,7.9449,7.9583,7.9979,8.0159,8.0335,8.0506,8.0506,8.0506,8.0506,8.0506,8.0506,8.0506,8.0506,8.0506,8.0506,8.0542,8.0578,3.5659,3.8331,4.1985,4.546,4.8587,5.2123,5.6932,5.9013,6.0713,6.3554,6.2805,6.2144,6.3796,6.3429,6.3649,6.6109,6.8495,7.0367,7.1174,7.1982,7.2496,7.2496,7.2496,7.2496,7.2496,7.2496,7.2496,7.2496,7.2496,7.2826,7.3634,7.367,7.4015,7.4641,7.4677,7.4677,7.4677,7.3873,7.356,7.367,7.2754,7.3739,7.6426,7.5356,7.5195,7.5639,7.5109,7.4441,7.367,7.367,7.323,7.2496,7.2496,7.2496,7.2496,7.2496,7.2496,7.2496,7.2496,7.2496,7.2496,7.2496,7.2496,7.2496,7.2496,7.2496,7.2496,7.2496,7.2496,7.2496,7.2496,7.2496,7.2496,7.2496,7.2496,7.2496,7.2496,7.2496,7.2496,7.2496,7.2496,7.2496,7.2496,7.2496,7.2496,7.2496,7.3193,7.4001,7.4808,7.5616,7.6626,7.7933,7.809,7.8309,7.8841,7.8891,7.8891,7.8891,7.9403,7.9937,8.0487,8.0506,8.0506,8.0506,8.0506,8.0506,8.0506,8.0506,8.0506,8.0506,8.0506,8.0523,3.537,3.8921,4.3441,4.6158,5.0973,5.5684,5.8253,6.0465,6.2818,6.5977,6.5778,6.5044,6.4971,6.4751,6.4824,6.5558,6.721,6.8678,6.9522,7.0293,7.0807,7.0807,7.0807,7.0807,7.0807,7.0722,7.0951,7.1586,7.145,7.1692,7.268,7.2562,7.2612,7.2808,7.2808,7.2808,7.2808,7.2552,7.2443,7.2503,7.2217,7.2621,7.3656,7.3251,7.3193,7.3442,7.328,7.3083,7.2863,7.2863,7.2716,7.2496,7.2496,7.2496,7.2496,7.2496,7.2496,7.2496,7.2496,7.2496,7.2496,7.2496,7.2496,7.2496,7.2496,7.2496,7.2496,7.2496,7.2496,7.2496,7.2496,7.2496,7.2496,7.2496,7.2496,7.2496,7.2496,7.2496,7.2496,7.2496,7.2496,7.2496,7.2496,7.2496,7.2496,7.2496,7.3193,7.4001,7.4808,7.613,7.6888,7.6729,7.7208,7.7768,7.8309,7.8336,7.8484,7.8866,7.9037,7.9381,7.9916,8.0315,8.0506,8.0506,8.0506,8.0506,8.0506,8.0506,8.0506,8.0506,8.0506,8.0525,3.7991,4.1809,4.6214,4.9627,5.3665,5.7556,6.0493,6.2511,6.453,6.7136,6.6806,6.6072,6.6219,6.5742,6.5521,6.6145,6.732,6.8348,6.8825,6.9596,7.011,7.011,7.0054,7.0026,7.0026,6.9884,7.001,7.0572,7.0464,7.0595,7.1187,7.1099,7.101,7.095,7.095,7.095,7.095,7.095,7.098,7.1039,7.098,7.1281,7.1845,7.2146,7.2358,7.2409,7.2467,7.2467,7.2409,7.2467,7.2496,7.2496,7.2496,7.2496,7.2459,7.2165,7.2239,7.2422,7.1762,7.1982,7.2459,7.2129,7.2239,7.2496,7.2496,7.2496,7.2496,7.2496,7.2496,7.2496,7.2496,7.2496,7.2496,7.2496,7.2496,7.2496,7.2496,7.2496,7.2496,7.2496,7.2496,7.2496,7.2496,7.2496,7.2496,7.2496,7.3193,7.3891,7.4368,7.5579,7.6136,7.5689,7.635,7.6942,7.7287,7.7612,7.7903,7.8255,7.8458,7.8716,7.9037,7.9773,8.0179,8.0179,8.0392,8.0506,8.0506,8.0506,8.0506,8.0506,8.0506,8.0506,4.1919,4.5626,4.937,5.4363,5.6492,5.8547,6.3062,6.4677,6.5632,6.7136,6.6366,6.5852,6.732,6.6476,6.5999,6.7467,6.8311,6.8761,6.8788,6.9385,6.9825,6.9862,6.975,6.9665,6.9665,6.9485,6.9398,6.9471,6.9479,6.9479,6.9552,6.9552,6.9529,6.9381,6.9381,6.9381,6.9381,6.9381,6.9441,6.9552,6.9441,6.9841,7.0718,7.1669,7.216,7.2189,7.227,7.2233,7.2043,7.2189,7.2218,7.2247,7.2247,7.2247,7.2173,7.1439,7.1651,7.2055,7.0624,7.1064,7.2165,7.1431,7.1725,7.2386,7.2386,7.2386,7.2386,7.2386,7.2349,7.2312,7.2386,7.2386,7.2422,7.2496,7.2496,7.2496,7.2496,7.2496,7.2496,7.2496,7.2496,7.2496,7.2496,7.2496,7.2496,7.2496,7.3193,7.367,7.3597,7.4368,7.4882,7.4808,7.5506,7.6019,7.6093,7.6717,7.709,7.7163,7.7657,7.7933,7.7933,7.9,7.9643,7.9643,8.0119,8.0373,8.0411,8.0411,8.043,8.0506,8.0506,8.0506,4.0063,4.3938,4.869,5.4216,5.8584,6.1911,6.3496,6.4123,6.464,6.5595,6.6035,6.6366,6.6696,6.699,6.7283,6.7614,6.7753,6.7808,6.7944,6.79,6.7862,6.8037,6.7898,6.7777,6.7777,6.7635,6.7862,6.8596,6.8436,6.8675,6.9404,6.9322,6.9268,6.9237,6.9237,6.9237,6.9237,6.9237,6.9268,6.9298,6.9268,6.934,6.9588,7.0538,7.1016,7.1135,7.1165,7.08,7.0186,7.0215,7.0245,7.0245,7.0397,7.0454,7.0446,7.0384,7.0477,7.055,7.022,7.033,7.0587,7.0403,7.0917,7.155,7.155,7.155,7.155,7.155,7.1101,7.077,7.1394,7.155,7.1725,7.2349,7.2496,7.2496,7.2496,7.2496,7.2496,7.2496,7.2496,7.2496,7.2496,7.2496,7.2496,7.2496,7.3193,7.345,7.2826,7.4001,7.4661,7.4037,7.4698,7.5432,7.6056,7.5689,7.5689,7.6313,7.647,7.6523,7.6523,7.8148,7.9061,7.9061,7.918,7.9449,7.9895,7.9895,8.0099,8.0506,8.0506,8.0506,3.9926,4.4473,4.9651,5.609,5.9896,6.2212,6.2939,6.321,6.3408,6.3811,6.4924,6.582,6.582,6.6176,6.6406,6.6353,6.6326,6.6362,6.6326,6.6153,6.6099,6.6217,6.6043,6.6114,6.6478,6.6409,6.6678,6.7564,6.7491,6.7649,6.8137,6.8114,6.8054,6.8054,6.8054,6.8054,6.8054,6.8054,6.8054,6.8054,6.8054,6.8235,6.8633,6.9612,7.0059,7.0119,7.0208,6.9953,6.9529,6.9552,6.9581,6.9581,6.9704,6.9733,6.9725,6.9502,6.9668,6.9916,6.9201,6.9449,7.0036,6.9633,7.0073,7.0734,7.0734,7.0734,7.0734,7.0734,7.0403,7.0183,7.0624,7.0734,7.0844,7.1248,7.1945,7.2496,7.2496,7.2496,7.2496,7.2496,7.2496,7.2496,7.2496,7.2496,7.2496,7.2496,7.2863,7.2973,7.2569,7.323,7.3597,7.3156,7.3854,7.4515,7.4918,7.4918,7.5102,7.5506,7.5542,7.5542,7.5542,7.6847,7.7845,7.8484,7.8766,7.9037,7.9335,7.9335,7.9583,8.0139,8.0139,8.0238,3.9129,4.4876,5.0836,5.7656,6.0172,6.1157,6.1798,6.1969,6.2006,6.2126,6.3607,6.4845,6.4845,6.4955,6.5001,6.4821,6.4948,6.4975,6.4794,6.474,6.4713,6.474,6.4667,6.481,6.5501,6.546,6.5663,6.6351,6.6388,6.6388,6.6388,6.6388,6.6388,6.6388,6.6533,6.6605,6.6605,6.675,6.6786,6.6786,6.6786,6.7148,6.7836,6.8602,6.9025,6.917,6.9282,6.9179,6.8952,6.9063,6.9092,6.9122,6.9122,6.9151,6.9078,6.8629,6.8868,6.9262,6.8055,6.8513,6.9476,6.8816,6.9146,6.9834,6.9862,6.9834,6.9834,6.9889,6.9779,6.9678,6.9853,6.9889,6.9926,7.0073,7.1101,7.2129,7.2275,7.2422,7.2496,7.2496,7.2496,7.2496,7.2496,7.2496,7.2496,7.2496,7.2496,7.2496,7.2496,7.2496,7.2496,7.2496,7.3083,7.356,7.367,7.4184,7.4551,7.4698,7.4698,7.4698,7.4698,7.5469,7.6479,7.7737,7.8341,7.8665,7.8766,7.8766,7.9037,7.9538,7.9665,7.9937,3.4,4.1916,5.0535,5.56,5.8555,6.0147,6.0154,6.0242,6.0475,6.1074,6.2599,6.3809,6.3809,6.4383,6.4821,6.4794,6.4749,6.4694,6.4767,6.4612,6.4509,6.4612,6.45,6.446,6.4569,6.4569,6.4613,6.4722,6.4722,6.4722,6.4722,6.4722,6.4722,6.4722,6.541,6.5772,6.5772,6.646,6.6786,6.6786,6.6786,6.6858,6.6967,6.7105,6.754,6.8192,6.8222,6.7824,6.7142,6.7171,6.7171,6.72,6.7281,6.7339,6.7367,6.7401,6.7457,6.753,6.7339,6.7412,6.7558,6.7449,6.796,6.8674,6.8823,6.8767,6.8702,6.8963,6.8486,6.8,6.8871,6.9082,6.9229,6.9926,7.0257,7.0624,7.1321,7.2018,7.2496,7.2496,7.2496,7.2496,7.2496,7.2496,7.2496,7.2496,7.2496,7.2496,7.2496,7.2496,7.2496,7.2496,7.2606,7.2936,7.3634,7.3156,7.312,7.3817,7.3854,7.3854,7.3854,7.4625,7.5462,7.636,7.7112,7.7739,7.82,7.82,7.8458,7.9013,7.9471,7.973,3.6453,4.2577,4.8603,5.4662,5.6988,5.809,5.9393,5.9709,5.9844,6.0155,6.0824,6.164,6.2629,6.3092,6.332,6.3239,6.3239,6.3239,6.3212,6.3139,6.3083,6.3139,6.3083,6.3237,6.3671,6.3708,6.3889,6.4359,6.4396,6.4396,6.4396,6.4396,6.4396,6.4396,6.4722,6.4939,6.4939,6.5265,6.5446,6.5446,6.5917,6.6134,6.6134,6.6605,6.7003,6.7329,6.7329,6.7148,6.6786,6.6786,6.6786,6.6822,6.6845,6.6874,6.6903,6.704,6.7069,6.7097,6.7182,6.721,6.721,6.721,6.7429,6.7749,6.7991,6.7991,6.7926,6.8183,6.7954,6.7716,6.8128,6.8238,6.8311,6.8678,6.9082,6.9522,6.9889,7.0587,7.1284,7.1762,7.1835,7.1982,7.2422,7.2496,7.2496,7.2496,7.2496,7.2496,7.2496,7.2496,7.2496,7.2496,7.2496,7.2642,7.301,7.2716,7.2642,7.301,7.3046,7.3046,7.3046,7.3817,7.4404,7.4735,7.5983,7.6948,7.7651,7.7651,7.7932,7.8469,7.869,7.9147,3.6962,4.1125,4.4682,5.1561,5.4037,5.545,5.7876,5.8565,5.8818,5.9216,5.9289,5.975,6.127,6.1551,6.1524,6.139,6.147,6.1497,6.139,6.1362,6.1362,6.1362,6.1362,6.1716,6.2512,6.2585,6.2911,6.3744,6.378,6.378,6.378,6.378,6.378,6.378,6.3997,6.4106,6.4106,6.4287,6.4396,6.4396,6.5011,6.5301,6.5301,6.5917,6.6207,6.6207,6.6424,6.6496,6.6496,6.6279,6.6207,6.6207,6.6424,6.6496,6.6533,6.6831,6.6961,6.6961,6.704,6.7097,6.7097,6.7097,6.7097,6.7126,6.7331,6.7331,6.7359,6.7524,6.7552,6.7552,6.7633,6.7633,6.766,6.7687,6.8164,6.8715,6.9119,6.9669,7.0293,7.0881,7.1174,7.1505,7.2092,7.2349,7.2496,7.2496,7.2496,7.2496,7.2496,7.2496,7.2496,7.2496,7.2496,7.2496,7.2496,7.2496,7.2496,7.2496,7.2496,7.2496,7.2496,7.3083,7.3487,7.3707,7.4882,7.5909,7.6686,7.6686,7.6921,7.731,7.7441,7.8024,3.1111,3.4443,3.7848,4.4258,4.8713,5.219,5.4581,5.5703,5.6609,5.8166,5.8456,5.8709,5.9579,5.9724,5.9724,5.9724,5.9724,5.9724,5.9724,5.9724,5.9724,5.9724,5.9724,6.005,6.0846,6.0919,6.1254,6.205,6.2123,6.2123,6.2123,6.2123,6.2123,6.2123,6.2875,6.3237,6.3237,6.3997,6.4396,6.4396,6.4432,6.4468,6.4468,6.4504,6.4504,6.4577,6.5337,6.5663,6.5591,6.483,6.4504,6.4577,6.5374,6.5663,6.5772,6.6533,6.6786,6.6786,6.6815,6.6815,6.6815,6.6815,6.6815,6.6845,6.699,6.6932,6.6874,6.7154,6.7126,6.7134,6.7414,6.7497,6.7524,6.766,6.7724,6.8164,6.9706,7.0073,7.011,7.0146,7.077,7.1293,7.1329,7.1982,7.2496,7.2496,7.2496,7.2496,7.2496,7.2496,7.2496,7.2496,7.2496,7.2496,7.2496,7.2496,7.2496,7.2496,7.2496,7.2496,7.2496,7.2532,7.2936,7.367,7.378,7.4221,7.5028,7.5028,7.5028,7.5088,7.5579,7.625,2.9332,3.1771,3.4526,4.0226,4.4185,4.7296,4.965,5.1882,5.3727,5.4794,5.5705,5.6447,5.6822,5.8376,5.9615,5.9615,5.9615,5.9615,5.9615,5.9615,5.9615,5.9615,5.9615,5.9724,6.0013,6.005,6.0158,6.0448,6.0484,6.0701,6.1181,6.1218,6.1471,6.1978,6.2295,6.244,6.244,6.273,6.2875,6.2875,6.3382,6.3635,6.3635,6.4142,6.4396,6.4396,6.4142,6.4359,6.4794,6.4504,6.4396,6.4432,6.4722,6.483,6.4939,6.5736,6.6025,6.6098,6.6641,6.6786,6.6786,6.6786,6.6786,6.6815,6.6961,6.699,6.699,6.7154,6.7238,6.7331,6.7442,6.7552,6.7633,6.7687,6.7687,6.7834,6.8421,6.8531,6.8715,6.9229,6.9559,6.9926,7.044,7.1211,7.1725,7.1725,7.2165,7.2496,7.2496,7.2496,7.2496,7.2496,7.2496,7.2496,7.2496,7.2496,7.2496,7.2496,7.2496,7.2496,7.2496,7.2496,7.2642,7.2936,7.2936,7.3597,7.4918,7.4918,7.4918,7.4918,7.5117,7.5541,2.7205,2.9069,3.178,3.6996,3.9696,4.2149,4.6552,4.8665,5.0198,5.2001,5.3501,5.4603,5.4928,5.673,5.8241,5.8466,5.8651,5.8782,5.8782,5.8782,5.8782,5.8782,5.8782,5.8891,5.918,5.9216,5.9325,5.9579,5.9615,5.9832,6.0375,6.0412,6.0774,6.1543,6.158,6.1725,6.1978,6.1978,6.1978,6.2014,6.2549,6.2802,6.2802,6.3345,6.3599,6.3563,6.3019,6.3237,6.3961,6.3708,6.3599,6.3635,6.3889,6.3997,6.407,6.4903,6.5192,6.5265,6.5808,6.617,6.6388,6.6388,6.6569,6.6815,6.6903,6.6932,6.6961,6.704,6.7162,6.7275,6.7387,6.7552,6.7687,6.7687,6.7687,6.7687,6.7687,6.7687,6.7834,6.8385,6.8715,6.9082,6.9596,7.0367,7.0991,7.1284,7.1762,7.2202,7.2459,7.2496,7.2496,7.2496,7.2496,7.2496,7.2496,7.2496,7.2496,7.2496,7.2496,7.2496,7.2496,7.2496,7.2496,7.2496,7.2496,7.3046,7.4111,7.4111,7.4111,7.4111,7.4111,7.4454,0.0,0.0,0.0,3.4322,3.5151,3.6939,4.5129,4.5927,4.6046,4.9881,5.1833,5.3078,5.3934,5.477,5.5501,5.6111,5.6767,5.7163,5.7163,5.7188,5.7188,5.7188,5.7188,5.7514,5.8275,5.8347,5.8709,5.947,5.9542,5.9542,5.9579,5.9579,5.9977,6.0738,6.0747,6.1145,6.1942,6.1942,6.1978,6.1978,6.1978,6.1978,6.1978,6.1978,6.1978,6.1978,6.1978,6.244,6.3092,6.2331,6.1978,6.2087,6.2875,6.3164,6.3237,6.407,6.4359,6.4359,6.4396,6.4903,6.5555,6.5555,6.6098,6.675,6.675,6.675,6.6786,6.6786,6.6786,6.6874,6.7126,6.7433,6.7687,6.7687,6.7687,6.7687,6.7687,6.7687,6.7687,6.7687,6.8311,6.8862,6.8862,6.9522,7.033,7.1138,7.1256,7.1578,7.2349,7.2496,7.2496,7.2496,7.2496,7.2496,7.2496,7.2496,7.2496,7.2496,7.2496,7.2496,7.2496,7.2496,7.2496,7.2496,7.2496,7.2496,7.2496,7.2496,7.2496,7.2496,7.2496,7.2936,2.4554,0.0,0.0,0.0,0.0,0.0,3.6504,3.8242,4.0312,4.4582,4.6185,4.7731,5.0678,5.2155,5.3197,5.3997,5.5504,5.6555,5.6555,5.6933,5.7188,5.7188,5.7188,5.7297,5.7514,5.7514,5.7623,5.784,5.7876,5.813,5.8709,5.9289,5.9724,5.9941,5.9941,6.0339,6.1109,6.1109,6.1399,6.1978,6.1978,6.1978,6.1978,6.1978,6.1978,6.1978,6.1978,6.215,6.2331,6.2087,6.1978,6.2014,6.2259,6.2331,6.244,6.3237,6.3526,6.3599,6.4178,6.4541,6.4722,6.4722,6.4867,6.5156,6.5772,6.5917,6.6062,6.6641,6.6874,6.7019,6.7331,6.747,6.7579,6.7687,6.7687,6.7687,6.7687,6.7687,6.7687,6.7687,6.7871,6.8017,6.8017,6.8715,6.9302,6.9522,7.055,7.1366,7.1615,7.2165,7.2496,7.2496,7.2496,7.2496,7.2496,7.2496,7.2496,7.2496,7.2496,7.2496,7.2496,7.2496,7.2496,7.2496,7.2496,7.2496,7.2496,7.2496,7.2496,7.2496,7.2496,7.2936,2.6184,2.7078,2.8682,2.9336,0.0,0.0,3.4506,3.5318,3.6738,4.1508,4.3284,4.4844,4.7755,4.9375,5.0546,5.1398,5.3002,5.4649,5.6087,5.6582,5.6819,5.6819,5.7061,5.7112,5.6855,5.7061,5.7188,5.7188,5.7188,5.7406,5.7876,5.8347,5.8746,5.9108,5.9108,5.9506,6.0303,6.0629,6.1064,6.1471,6.1833,6.1978,6.1978,6.1978,6.1978,6.1978,6.1978,6.1978,6.1978,6.1978,6.1978,6.1978,6.1978,6.1978,6.205,6.2549,6.2693,6.2766,6.3237,6.3635,6.3889,6.3889,6.4106,6.4468,6.4939,6.5084,6.5265,6.6062,6.6649,6.7076,6.7331,6.7442,6.7524,6.766,6.7687,6.7687,6.7687,6.7687,6.7687,6.7687,6.7687,6.7687,6.7687,6.8091,6.8495,6.8862,7.0,7.0807,7.0807,7.1505,7.2018,7.2018,7.2018,7.2165,7.2459,7.2496,7.2496,7.2496,7.2496,7.2496,7.2496,7.2496,7.2496,7.2496,7.2496,7.2496,7.2496,7.2496,7.2496,7.2496,7.2496,7.2753,2.89,2.9669,0.0,3.293,3.1562,0.0,3.596,3.5081,3.4607,3.9242,4.1204,4.2598,4.4485,4.5974,4.7225,4.8105,4.953,5.1738,5.534,5.5889,5.598,5.6062,5.6534,5.6685,5.6196,5.6731,5.7112,5.7112,5.7112,5.7087,5.701,5.7061,5.7412,5.8135,5.8249,5.8637,5.947,6.0194,6.0593,6.0701,6.1362,6.1761,6.1869,6.1869,6.1906,6.1978,6.1978,6.1978,6.1978,6.1978,6.1978,6.1978,6.1978,6.1978,6.1978,6.1978,6.1978,6.1978,6.1978,6.2476,6.3056,6.3056,6.3526,6.4142,6.4251,6.4251,6.4432,6.5337,6.6185,6.691,6.7117,6.7331,6.747,6.7633,6.7687,6.7687,6.7687,6.7687,6.7687,6.7687,6.7687,6.7687,6.7687,6.7687,6.7944,6.8678,6.9449,6.9963,6.9963,7.066,7.1174,7.1174,7.1219,7.1615,7.2312,7.2459,7.2496,7.2496,7.2496,7.2496,7.2496,7.2496,7.2496,7.2496,7.2496,7.2496,7.2496,7.2496,7.2496,7.2496,7.2496,7.2496,3.2271,3.3141,3.4287,3.2869,3.3918,0.0,3.2171,3.207,3.2801,3.3816,3.3795,3.4776,3.87,4.0155,4.1373,4.3267,4.5377,4.8236,5.2409,5.3449,5.3891,5.442,5.4622,5.493,5.5294,5.6036,5.6474,5.6474,5.6474,5.6257,5.5773,5.6229,5.6546,5.6689,5.7175,5.7804,5.8637,5.8782,5.918,5.9832,6.0013,6.0412,6.1,6.1,6.139,6.1978,6.1978,6.1978,6.1978,6.1978,6.1978,6.1978,6.1978,6.1978,6.1978,6.1978,6.1978,6.1978,6.1978,6.2087,6.2259,6.2259,6.2367,6.2585,6.3237,6.3418,6.3744,6.5192,6.5728,6.604,6.6837,6.7076,6.719,6.747,6.7524,6.7552,6.7687,6.7687,6.7687,6.7687,6.7687,6.7687,6.7687,6.7687,6.7724,6.7907,6.8605,6.9119,6.9119,6.9853,7.033,7.033,7.0917,7.1329,7.1541,7.2129,7.2496,7.2496,7.2496,7.2496,7.2496,7.2496,7.2496,7.2496,7.2496,7.2496,7.2496,7.2496,7.2496,7.2496,7.2496,7.2496,3.5312,3.57,3.6479,3.5351,3.5656,0.0,0.0,3.2869,3.2936,3.5204,3.3863,3.3457,3.7212,3.8193,3.8937,4.0392,4.2861,4.5173,4.7005,4.9734,5.1675,5.1981,5.2677,5.3106,5.3106,5.4063,5.4866,5.5228,5.5228,5.5327,5.5396,5.5694,5.5865,5.5865,5.6111,5.6626,5.7352,5.7747,5.8303,5.8999,5.9434,5.9832,6.0194,6.0194,6.0665,6.1399,6.1399,6.1616,6.1978,6.1978,6.1978,6.1978,6.1978,6.1978,6.1978,6.1978,6.1978,6.1978,6.1978,6.1978,6.1978,6.1978,6.1978,6.2087,6.2476,6.2875,6.3345,6.4178,6.4975,6.5728,6.6264,6.6692,6.7076,6.7266,6.7414,6.7497,6.7579,6.766,6.7687,6.7687,6.7687,6.7687,6.7687,6.7687,6.7687,6.7687,6.8385,6.8752,6.8348,6.9009,6.9486,6.9486,6.9853,7.0293,7.066,7.1064,7.1284,7.1284,7.1284,7.1284,7.1284,7.1688,7.2092,7.2496,7.2496,7.2496,7.2496,7.2496,7.2496,7.2496,7.2496,7.2496,3.843,3.8497,3.9005,3.8294,3.7719,3.7144,0.0,0.0,0.0,3.6874,3.5081,3.3761,3.6366,3.6705,3.684,3.7584,4.0087,4.1644,4.0899,4.4776,4.7913,4.8584,4.9917,5.0697,5.0472,5.1144,5.2124,5.3293,5.3006,5.3299,5.452,5.485,5.5049,5.5189,5.5343,5.5636,5.6118,5.6779,5.7322,5.7818,5.8466,5.8862,5.9006,5.915,5.9637,6.0395,6.0684,6.1172,6.1761,6.1942,6.1978,6.1978,6.1978,6.1978,6.1978,6.1978,6.1978,6.1978,6.1978,6.1978,6.1978,6.1978,6.1978,6.1978,6.1978,6.244,6.2983,6.3164,6.4142,6.5185,6.5472,6.6155,6.6765,6.6907,6.7157,6.7414,6.7442,6.7524,6.7633,6.766,6.766,6.766,6.7687,6.7687,6.7687,6.7687,6.8238,6.8421,6.776,6.8274,6.8678,6.8678,6.8825,6.9155,6.9816,7.0,7.011,7.011,7.011,7.011,7.011,7.0734,7.1468,7.2275,7.2275,7.2349,7.2496,7.2496,7.2496,7.2496,7.2496,7.2496,0.0,0.0,0.0,0.0,4.1238,4.1847,3.5284,0.0,3.5509,3.2645,0.0,3.1732,3.2767,0.0,0.0,3.2936,3.4979,3.6208,3.5487,3.7621,4.0446,4.3611,4.5419,4.6846,4.7872,4.7026,4.753,5.0253,4.8612,4.8678,5.1507,5.286,5.3825,5.4482,5.5069,5.5432,5.5519,5.559,5.5654,5.5742,5.5748,5.6135,5.6864,5.7484,5.8164,5.9015,6.0269,6.0846,6.0991,6.1688,6.1978,6.1978,6.1978,6.1978,6.1978,6.1978,6.1978,6.1978,6.1978,6.1978,6.1978,6.1978,6.1978,6.1978,6.1978,6.205,6.2295,6.2983,6.3309,6.3663,6.4352,6.5149,6.5794,6.5929,6.6502,6.7105,6.721,6.7238,6.7294,6.747,6.7497,6.7552,6.7687,6.7687,6.7687,6.7687,6.776,6.7797,6.7714,6.776,6.7834,6.7834,6.8458,6.8935,6.9045,6.9706,7.011,7.011,7.011,7.011,7.011,7.0183,7.0624,7.1403,7.1439,7.1798,7.2496,7.2496,7.2496,7.2496,7.2496,7.2496,0.0,0.0,0.0,0.0,0.0,4.0804,3.6918,3.5723,3.5385,3.5148,0.0,0.0,0.0,0.0,0.0,0.0,3.3423,3.3795,3.2171,3.3897,3.6491,3.9744,4.0747,4.2053,4.4292,4.3594,4.4243,4.729,4.5815,4.6255,4.9729,5.1301,5.2448,5.3164,5.3901,5.4457,5.4826,5.4826,5.5009,5.5402,5.5367,5.5507,5.5888,5.6152,5.6721,5.7494,5.845,5.913,5.9661,6.082,6.1063,6.0819,6.1687,6.1978,6.1978,6.1978,6.1978,6.1978,6.1978,6.1978,6.1978,6.1978,6.1978,6.1978,6.1978,6.1978,6.205,6.2404,6.2838,6.3273,6.3599,6.4287,6.4931,6.4952,6.5327,6.563,6.5686,6.6134,6.6545,6.6601,6.7085,6.7534,6.7552,6.7633,6.7687,6.7687,6.7687,6.7687,6.7687,6.7687,6.7687,6.7687,6.7981,6.8201,6.8201,6.8495,6.8715,6.8715,6.8715,6.8898,6.9376,6.9412,6.9779,7.0587,7.1064,7.1439,7.1798,7.2275,7.2496,7.2496,7.2496,7.2496,4.3314,0.0,0.0,0.0,4.056,3.9674,3.7682,3.6399,3.5993,3.7229,3.5779,0.0,0.0,0.0,0.0,0.0,0.0,3.2341,3.0108,3.119,3.3152,3.5757,3.6975,3.843,4.0561,3.9546,4.0257,4.391,4.2361,4.324,4.7868,4.9695,5.1048,5.1961,5.2976,5.3684,5.4139,5.4139,5.4394,5.4892,5.4892,5.4892,5.4892,5.5074,5.5444,5.5964,5.6863,5.7576,5.8174,5.9458,5.9659,5.9355,6.0641,6.1135,6.1199,6.1759,6.1978,6.1978,6.1978,6.1978,6.1978,6.1978,6.1978,6.1978,6.1978,6.1978,6.1978,6.1978,6.244,6.2875,6.2875,6.3454,6.407,6.407,6.4299,6.4528,6.4528,6.5084,6.5568,6.5624,6.6208,6.6802,6.7049,6.7432,6.7687,6.7687,6.7687,6.7687,6.7687,6.7687,6.7687,6.7687,6.7687,6.7687,6.7687,6.7687,6.7687,6.7687,6.7687,6.7944,6.8568,6.8568,6.8935,6.9743,7.0367,7.077,7.0991,7.1578,7.1835,7.1835,7.2275,7.2496,0.0,0.0,0.0,4.1212,4.0637,4.0172,3.643,3.7134,3.8161,0.0,0.0,0.0,0.0,0.0,0.0,0.0,0.0,0.0,0.0,2.9111,2.9721,3.1224,3.4629,3.6863,3.6965,3.4303,3.4721,3.9893,3.7527,3.8744,4.5466,4.7902,4.9729,5.1217,5.2706,5.3518,5.3551,5.3551,5.3517,5.3551,5.3551,5.3551,5.3584,5.4171,5.4422,5.4554,5.5898,5.655,5.6621,5.7459,5.7776,5.7846,5.862,5.8901,5.9162,6.1227,6.1978,6.1978,6.1978,6.1978,6.1978,6.1978,6.1978,6.1978,6.1978,6.1978,6.1978,6.1978,6.2014,6.2014,6.2014,6.2657,6.3237,6.3237,6.3844,6.4424,6.4424,6.4424,6.4489,6.462,6.4684,6.4994,6.5897,6.6975,6.7687,6.7687,6.7687,6.7687,6.7687,6.7687,6.7687,6.7687,6.7687,6.7687,6.7687,6.7687,6.7687,6.7687,6.7687,6.7714,6.7724,6.7724,6.8128,6.8935,6.8972,6.9376,7.0146,7.0146,7.0183,7.022,7.1762,7.2496,0.0,0.0,4.6173,4.2842,0.0,0.0,3.7526,0.0,0.0,0.0,0.0,0.0,0.0,0.0,0.0,0.0,0.0,0.0,0.0,2.6708,2.73,2.877,3.1833,3.3444,3.2476,3.2307,3.3626,3.6884,3.6174,3.8101,4.3876,4.6312,4.8443,5.0405,5.1928,5.2976,5.3484,5.3518,5.3518,5.3518,5.3518,5.3518,5.3518,5.3684,5.3816,5.3849,5.473,5.5081,5.5212,5.6409,5.6632,5.6362,5.7596,5.7817,5.7739,6.0368,6.1343,6.1401,6.1868,6.1978,6.1978,6.1978,6.1978,6.1978,6.1978,6.1978,6.1978,6.1978,6.1978,6.1978,6.1978,6.2195,6.2404,6.2404,6.2621,6.2802,6.2802,6.3237,6.3627,6.3646,6.4165,6.4684,6.5031,6.5889,6.6784,6.7478,6.7633,6.7687,6.7687,6.7687,6.7687,6.7687,6.7687,6.7687,6.7687,6.7687,6.7687,6.7687,6.7687,6.7687,6.7687,6.7687,6.7834,6.8091,6.8641,6.9045,6.9302,6.9853,7.011,7.011,7.066,7.1211,4.6319,4.6689,0.0,4.4006,4.2912,0.0,3.8538,0.0,3.918,0.0,0.0,0.0,0.0,0.0,0.0,0.0,0.0,0.0,0.0,2.6185,2.664,2.7317,2.96,3.0871,3.0176,3.0209,3.1664,3.4957,3.4742,3.6705,4.1948,4.4891,4.7293,4.9255,5.1251,5.2706,5.3484,5.3518,5.3518,5.3518,5.3518,5.3518,5.3518,5.3518,5.3518,5.3517,5.3913,5.4074,5.4141,5.507,5.5182,5.4897,5.6139,5.6318,5.6296,5.917,6.0558,6.1104,6.1748,6.1978,6.1978,6.1978,6.1978,6.1978,6.1978,6.1978,6.1978,6.1978,6.1978,6.1978,6.1978,6.1978,6.1978,6.1978,6.1978,6.1978,6.1978,6.2404,6.2766,6.2766,6.3247,6.3766,6.4056,6.4858,6.5861,6.6838,6.7341,6.7633,6.7633,6.766,6.7687,6.7687,6.7687,6.7687,6.7687,6.7687,6.7687,6.7687,6.7687,6.7687,6.7687,6.7687,6.7687,6.7687,6.8201,6.8458,6.8458,6.8972,6.9229,6.9229,6.9229,6.9669]}]]